[[{"header":{"parameterUnit":"m.s-1","parameterCategory":1,"la1":31.0,"la2":29.5877,"lo1":-88.7671,"lo2":-86.6584,"dy":0.0162,"dx":0.0185,"nx":115,"ny":88,"refTime":"2023-04-17T12:00:00:Z","depth":0,"parameterNumber":2,"parameterNumberName":"U-component_of_WINDS"},"data":[0.0,0.0,0.0,0.0,0.0,0.0,0.0,0.0,0.0,0.0,0.0,0.0,0.0,0.0,0.0,0.0,0.0,0.0,0.0,0.0,0.0,0.0,0.0,0.0,0.0,0.0,0.0,0.0,0.0,0.0,0.0,0.0,0.0,0.0,0.0,0.0,0.0,0.0,0.0,0.0,0.0,0.0,0.0,0.0,0.0,0.0,0.0,0.0,0.0,0.0,0.0,0.0,0.0,0.0,0.0,0.0,0.0,0.0,0.0,0.0,0.0,0.0,0.0,0.0,0.0,0.0,0.0,0.0,0.0,0.0,0.0,0.0,0.0,0.0,0.0,0.0,0.0,0.0,0.0,0.0,0.0,0.0,0.0,0.0,0.0,0.0,0.0,0.0,0.0,0.0,0.0,0.0,0.0,0.0,0.0,0.0,0.0,0.0,0.0,0.0,0.0,0.0,0.0,0.0,0.0,0.0,0.0,0.0,0.0,0.0,0.0,0.0,0.0,0.0,0.0,0.0,0.0,0.0,0.0,0.0,0.0,0.0,0.0,0.0,0.0,0.0,0.0,0.0,0.0,0.0,0.0,0.0,0.0,0.0,0.0,0.0,0.0,0.0,0.0,0.0,0.0,0.0,0.0,0.0,0.0,0.0,0.0,0.0,0.0,0.0,0.0,0.0,0.0,0.0,0.0,0.0,0.0,0.0,0.0,0.0,0.0,0.0,0.0,0.0,0.0,0.0,0.0,0.0,0.0,0.0,0.0,0.0,0.0,0.0,0.0,0.0,0.0,0.0,0.0,0.0,0.0,0.0,0.0,0.0,0.0,0.0,0.0,0.0,0.0,0.0,0.0,0.0,0.0,0.0,0.0,0.0,0.0,0.0,0.0,0.0,0.0,0.0,0.0,0.0,0.0,0.0,0.0,0.0,0.0,0.0,0.0,0.0,0.0,0.0,0.0,0.0,0.0,0.0,0.0,0.0,0.0,0.0,0.0,0.0,0.0,0.0,0.0,0.0,0.0,0.0,0.0,0.0,0.0,0.0,0.0,0.0,0.0,0.0,0.0,0.0,0.0,0.0,0.0,0.0,0.0,0.0,0.0,0.0,0.0,0.0,0.0,0.0,0.0,0.0,0.0,0.0,0.0,0.0,0.0,0.0,0.0,0.0,0.0,0.0,0.0,0.0,0.0,0.0,0.0,0.0,0.0,0.0,0.0,0.0,0.0,0.0,0.0,0.0,0.0,0.0,0.0,0.0,0.0,0.0,0.0,0.0,0.0,0.0,0.0,0.0,0.0,0.0,0.0,0.0,0.0,0.0,0.0,0.0,0.0,0.0,0.0,0.0,0.0,0.0,0.0,0.0,0.0,0.0,0.0,0.0,0.0,0.0,0.0,0.0,0.0,0.0,0.0,0.0,0.0,0.0,0.0,0.0,0.0,0.0,0.0,0.0,0.0,0.0,0.0,0.0,0.0,0.0,0.0,0.0,0.0,0.0,0.0,0.0,0.0,0.0,0.0,0.0,0.0,0.0,0.0,0.0,0.0,0.0,0.0,0.0,0.0,0.0,0.0,0.0,0.0,0.0,0.0,0.0,0.0,0.0,0.0,0.0,0.0,0.0,0.0,0.0,0.0,0.0,0.0,0.0,0.0,0.0,0.0,0.0,0.0,0.0,0.0,0.0,0.0,0.0,0.0,0.0,0.0,0.0,0.0,0.0,0.0,0.0,0.0,0.0,0.0,0.0,0.0,0.0,0.0,0.0,0.0,0.0,0.0,0.0,0.0,0.0,0.0,0.0,0.0,0.0,0.0,0.0,0.0,0.0,0.0,0.0,0.0,0.0,0.0,0.0,0.0,0.0,0.0,0.0,0.0,0.0,0.0,0.0,0.0,0.0,0.0,0.0,0.0,0.0,0.0,0.0,0.0,0.0,0.0,0.0,0.0,0.0,0.0,0.0,0.0,0.0,0.0,0.0,0.0,0.0,0.0,0.0,0.0,0.0,0.0,0.0,0.0,0.0,0.0,0.0,0.0,0.0,0.0,0.0,0.0,0.0,0.0,0.0,0.0,0.0,0.0,0.0,0.0,0.0,0.0,0.0,0.0,0.0,0.0,0.0,0.0,0.0,0.0,0.0,0.0,0.0,0.0,0.0,0.0,0.0,0.0,0.0,0.0,0.0,0.0,0.0,0.0,0.0,0.0,0.0,0.0,0.0,0.0,0.0,0.0,0.0,0.0,0.0,0.0,0.0,0.0,0.0,0.0,0.0,0.0,0.0,0.0,0.0,0.0,0.0,0.0,0.0,0.0,0.0,0.0,0.0,0.0,0.0,0.0,0.0,0.0,0.0,0.0,0.0,0.0,0.0,0.0,0.0,0.0,0.0,0.0,0.0,0.0,0.0,0.0,0.0,0.0,0.0,0.0,0.0,0.0,0.0,0.0,0.0,0.0,0.0,0.0,0.0,0.0,0.0,0.0,0.0,0.0,0.0,0.0,0.0,0.0,0.0,0.0,0.0,0.0,0.0,0.0,0.0,0.0,0.0,0.0,0.0,0.0,0.0,0.0,0.0,0.0,0.0,0.0,0.0,0.0,0.0,0.0,0.0,0.0,0.0,0.0,0.0,0.0,0.0,0.0,0.0,0.0,0.0,0.0,0.0,0.0,0.0,0.0,0.0,0.0,0.0,0.0,0.0,0.0,0.0,0.0,0.0,0.0,0.0,0.0,0.0,0.0,0.0,0.0,0.0,0.0,0.0,0.0,0.0,0.0,0.0,0.0,0.0,0.0,0.0,0.0,0.0,0.0,0.0,0.0,0.0,0.0,0.0,0.0,0.0,0.0,0.0,0.0,0.0,0.0,0.0,0.0,0.0,0.0,0.0,0.0,0.0,0.0,0.0,0.0,0.0,0.0,0.0,0.0,0.0,0.0,0.0,0.0,0.0,0.0,0.0,0.0,0.0,0.0,0.0,0.0,0.0,0.0,0.0,0.0,0.0,0.0,0.0,0.0,0.0,0.0,0.0,0.0,0.0,0.0,0.0,0.0,0.0,0.0,0.0,0.0,0.0,0.0,0.0,0.0,0.0,0.0,0.0,0.0,0.0,0.0,0.0,0.0,0.0,0.0,0.0,0.0,0.0,0.0,0.0,0.0,0.0,0.0,0.0,0.0,0.0,0.0,0.0,0.0,0.0,0.0,0.0,0.0,0.0,0.0,0.0,0.0,0.0,0.0,0.0,0.0,0.0,0.0,0.0,0.0,0.0,0.0,0.0,0.0,0.0,0.0,0.0,0.0,0.0,0.0,0.0,0.0,0.0,0.0,0.0,0.0,0.0,0.0,0.0,0.0,0.0,0.0,0.0,0.0,0.0,0.0,0.0,0.0,0.0,0.0,0.0,0.0,0.0,0.0,0.0,0.0,0.0,0.0,0.0,0.0,0.0,0.0,0.0,0.0,0.0,0.0,0.0,0.0,0.0,0.0,0.0,0.0,0.0,0.0,0.0,0.0,0.0,0.0,0.0,0.0,0.0,0.0,0.0,0.0,0.0,0.0,0.0,0.0,0.0,0.0,0.0,0.0,0.0,0.0,0.0,0.0,0.0,0.0,0.0,0.0,0.0,0.0,0.0,0.0,0.0,0.0,0.0,0.0,0.0,0.0,0.0,0.0,0.0,0.0,0.0,0.0,0.0,0.0,0.0,0.0,0.0,0.0,0.0,0.0,0.0,0.0,0.0,0.0,0.0,0.0,0.0,0.0,0.0,0.0,0.0,0.0,0.0,0.0,0.0,0.0,0.0,0.0,0.0,0.0,0.0,0.0,0.0,0.0,0.0,0.0,0.0,0.0,0.0,0.0,0.0,0.0,0.0,0.0,0.0,0.0,0.0,0.0,0.0,0.0,0.0,0.0,0.0,0.0,0.0,0.0,0.0,0.0,0.0,0.0,0.0,0.0,0.0,0.0,0.0,0.0,0.0,0.0,0.0,0.0,0.0,0.0,0.0,0.0,0.0,0.0,0.0,0.0,0.0,0.0,0.0,0.0,0.0,0.0,0.0,0.0,0.0,0.0,0.0,0.0,0.0,0.0,0.0,0.0,0.0,0.0,0.0,0.0,0.0,0.0,0.0,0.0,0.0,0.0,0.0,0.0,0.0,0.0,0.0,0.0,0.0,0.0,0.0,0.0,0.0,0.0,0.0,0.0,0.0,0.0,0.0,0.0,0.0,0.0,0.0,0.0,0.0,0.0,0.0,0.0,0.0,0.0,0.0,0.0,0.0,0.0,0.0,0.0,0.0,-3.1755,0.0,0.0,0.0,0.0,0.0,0.0,0.0,0.0,0.0,0.0,0.0,0.0,0.0,0.0,0.0,0.0,0.0,0.0,0.0,0.0,0.0,0.0,0.0,0.0,0.0,0.0,0.0,0.0,0.0,0.0,0.0,0.0,0.0,0.0,0.0,0.0,0.0,0.0,0.0,0.0,0.0,0.0,0.0,0.0,0.0,0.0,0.0,0.0,0.0,0.0,0.0,0.0,0.0,0.0,0.0,0.0,0.0,0.0,0.0,0.0,0.0,0.0,0.0,0.0,0.0,0.0,0.0,0.0,0.0,0.0,0.0,0.0,0.0,0.0,0.0,0.0,0.0,0.0,0.0,0.0,0.0,0.0,0.0,0.0,0.0,0.0,0.0,0.0,0.0,0.0,0.0,0.0,0.0,0.0,0.0,0.0,0.0,0.0,0.0,0.0,0.0,0.0,0.0,0.0,0.0,0.0,0.0,0.0,0.0,0.0,-3.2753,-3.1477,-3.3085,-3.3122,-3.1273,0.0,0.0,0.0,0.0,0.0,0.0,0.0,0.0,0.0,0.0,0.0,0.0,0.0,0.0,0.0,0.0,0.0,0.0,0.0,0.0,0.0,0.0,0.0,0.0,0.0,0.0,0.0,0.0,0.0,0.0,0.0,0.0,0.0,0.0,0.0,0.0,0.0,0.0,0.0,0.0,0.0,0.0,0.0,0.0,0.0,0.0,0.0,0.0,0.0,0.0,0.0,0.0,0.0,0.0,0.0,0.0,0.0,0.0,0.0,0.0,0.0,0.0,0.0,0.0,0.0,0.0,0.0,0.0,0.0,0.0,0.0,0.0,0.0,0.0,0.0,0.0,0.0,0.0,0.0,0.0,0.0,0.0,0.0,0.0,0.0,0.0,0.0,0.0,0.0,0.0,0.0,0.0,0.0,0.0,0.0,0.0,0.0,0.0,0.0,0.0,0.0,0.0,0.0,0.0,0.0,0.0,0.0,0.0,0.0,0.0,0.0,0.0,-3.388,-3.3708,-3.1279,0.0,0.0,0.0,0.0,0.0,0.0,0.0,0.0,0.0,0.0,0.0,0.0,0.0,0.0,0.0,0.0,0.0,0.0,0.0,0.0,0.0,0.0,0.0,0.0,0.0,0.0,0.0,0.0,0.0,0.0,0.0,0.0,0.0,0.0,0.0,0.0,0.0,0.0,0.0,0.0,0.0,0.0,0.0,0.0,0.0,0.0,0.0,0.0,0.0,0.0,0.0,0.0,0.0,0.0,0.0,0.0,0.0,0.0,0.0,0.0,0.0,0.0,0.0,0.0,0.0,0.0,0.0,0.0,0.0,0.0,0.0,0.0,0.0,0.0,0.0,0.0,0.0,0.0,0.0,0.0,0.0,0.0,0.0,0.0,0.0,0.0,0.0,0.0,0.0,0.0,0.0,0.0,0.0,0.0,0.0,0.0,0.0,0.0,0.0,0.0,0.0,0.0,0.0,0.0,0.0,0.0,0.0,0.0,0.0,0.0,-3.404,-3.5386,-3.5642,0.0,-3.2902,0.0,0.0,0.0,0.0,0.0,0.0,0.0,0.0,0.0,0.0,0.0,0.0,0.0,0.0,0.0,0.0,0.0,0.0,0.0,0.0,0.0,0.0,0.0,0.0,0.0,0.0,0.0,0.0,0.0,0.0,0.0,0.0,0.0,0.0,0.0,0.0,0.0,0.0,0.0,0.0,0.0,0.0,0.0,0.0,0.0,0.0,0.0,0.0,0.0,0.0,0.0,0.0,0.0,0.0,0.0,0.0,0.0,0.0,0.0,0.0,0.0,0.0,0.0,0.0,0.0,0.0,0.0,0.0,0.0,0.0,0.0,0.0,0.0,0.0,0.0,0.0,0.0,0.0,0.0,0.0,0.0,0.0,0.0,0.0,0.0,0.0,0.0,0.0,0.0,0.0,0.0,0.0,0.0,0.0,0.0,0.0,0.0,0.0,0.0,0.0,0.0,0.0,0.0,0.0,0.0,0.0,0.0,0.0,0.0,0.0,-3.4158,-3.5868,-3.5278,-3.4076,0.0,0.0,0.0,0.0,0.0,0.0,0.0,0.0,0.0,0.0,0.0,0.0,0.0,0.0,0.0,0.0,0.0,0.0,0.0,0.0,0.0,0.0,0.0,0.0,0.0,0.0,0.0,0.0,0.0,0.0,0.0,0.0,0.0,0.0,0.0,0.0,0.0,0.0,0.0,0.0,0.0,0.0,0.0,0.0,0.0,0.0,0.0,0.0,0.0,0.0,0.0,0.0,0.0,0.0,0.0,0.0,0.0,0.0,0.0,0.0,0.0,0.0,0.0,0.0,0.0,0.0,0.0,0.0,0.0,0.0,0.0,0.0,0.0,0.0,0.0,0.0,0.0,0.0,0.0,0.0,0.0,0.0,0.0,0.0,0.0,0.0,0.0,0.0,0.0,0.0,0.0,0.0,0.0,0.0,0.0,0.0,0.0,0.0,0.0,0.0,0.0,0.0,0.0,0.0,0.0,0.0,0.0,0.0,0.0,0.0,-3.4033,-3.5058,-3.6405,-3.5331,-3.3792,-3.1975,0.0,0.0,0.0,0.0,0.0,0.0,0.0,0.0,0.0,0.0,0.0,0.0,0.0,0.0,0.0,0.0,0.0,0.0,0.0,0.0,0.0,0.0,0.0,0.0,0.0,0.0,0.0,0.0,0.0,0.0,0.0,0.0,0.0,0.0,0.0,0.0,0.0,0.0,0.0,0.0,0.0,0.0,0.0,0.0,0.0,0.0,0.0,0.0,0.0,0.0,0.0,0.0,0.0,0.0,0.0,0.0,0.0,0.0,0.0,0.0,0.0,0.0,0.0,0.0,0.0,0.0,0.0,0.0,0.0,0.0,0.0,0.0,0.0,0.0,0.0,0.0,0.0,0.0,0.0,0.0,0.0,0.0,0.0,0.0,0.0,0.0,0.0,0.0,0.0,0.0,0.0,0.0,0.0,0.0,0.0,0.0,0.0,0.0,0.0,0.0,0.0,0.0,0.0,0.0,0.0,0.0,0.0,0.0,-3.6643,-3.6855,-3.7324,-3.8081,-3.6464,-3.4648,0.0,0.0,0.0,0.0,0.0,0.0,0.0,0.0,0.0,0.0,0.0,0.0,0.0,0.0,0.0,0.0,0.0,0.0,0.0,0.0,0.0,0.0,0.0,0.0,0.0,0.0,0.0,0.0,0.0,0.0,0.0,0.0,0.0,0.0,0.0,0.0,0.0,0.0,0.0,0.0,0.0,0.0,0.0,0.0,0.0,0.0,0.0,0.0,0.0,0.0,0.0,0.0,0.0,0.0,0.0,0.0,0.0,0.0,0.0,0.0,0.0,0.0,0.0,0.0,0.0,0.0,0.0,0.0,0.0,0.0,0.0,0.0,0.0,0.0,0.0,0.0,0.0,0.0,0.0,0.0,0.0,0.0,0.0,0.0,0.0,0.0,0.0,0.0,0.0,0.0,0.0,0.0,0.0,0.0,0.0,0.0,0.0,0.0,0.0,0.0,0.0,0.0,0.0,0.0,0.0,0.0,0.0,0.0,0.0,-3.4636,-3.6781,-3.7747,-3.7394,-3.6193,-3.4866,0.0,0.0,0.0,0.0,0.0,0.0,0.0,0.0,0.0,0.0,0.0,0.0,0.0,0.0,0.0,0.0,0.0,0.0,0.0,0.0,0.0,0.0,0.0,0.0,0.0,0.0,0.0,0.0,0.0,0.0,0.0,0.0,0.0,0.0,0.0,0.0,0.0,0.0,0.0,0.0,0.0,0.0,0.0,0.0,0.0,0.0,0.0,0.0,0.0,0.0,0.0,0.0,0.0,0.0,0.0,0.0,0.0,0.0,0.0,0.0,0.0,0.0,0.0,0.0,0.0,0.0,0.0,0.0,0.0,0.0,0.0,0.0,0.0,0.0,0.0,0.0,0.0,0.0,0.0,0.0,0.0,0.0,0.0,0.0,0.0,0.0,0.0,0.0,0.0,0.0,0.0,0.0,0.0,0.0,0.0,0.0,0.0,0.0,0.0,0.0,0.0,0.0,0.0,0.0,0.0,0.0,0.0,0.0,0.0,-3.5325,0.0,-3.861,-3.7316,-3.6122,-3.4684,0.0,0.0,0.0,0.0,0.0,0.0,0.0,0.0,0.0,0.0,0.0,0.0,0.0,0.0,0.0,0.0,0.0,0.0,0.0,0.0,0.0,0.0,0.0,0.0,0.0,0.0,0.0,0.0,0.0,0.0,0.0,0.0,0.0,0.0,0.0,0.0,0.0,0.0,0.0,0.0,0.0,0.0,0.0,0.0,0.0,0.0,0.0,0.0,0.0,0.0,0.0,0.0,0.0,0.0,0.0,0.0,0.0,0.0,0.0,0.0,0.0,0.0,0.0,0.0,0.0,0.0,0.0,0.0,0.0,0.0,0.0,0.0,0.0,0.0,0.0,0.0,0.0,0.0,0.0,0.0,0.0,0.0,0.0,0.0,0.0,0.0,0.0,0.0,0.0,0.0,0.0,0.0,0.0,0.0,0.0,0.0,0.0,0.0,0.0,0.0,0.0,0.0,0.0,0.0,0.0,0.0,0.0,0.0,-3.5254,-3.9294,-4.0349,-3.9928,-3.8172,-3.6433,-3.4148,0.0,0.0,0.0,0.0,0.0,0.0,0.0,0.0,0.0,0.0,0.0,0.0,0.0,0.0,0.0,0.0,0.0,0.0,0.0,0.0,0.0,0.0,0.0,0.0,0.0,0.0,0.0,0.0,0.0,0.0,0.0,0.0,0.0,0.0,0.0,0.0,0.0,0.0,0.0,0.0,0.0,0.0,0.0,0.0,0.0,0.0,0.0,0.0,0.0,0.0,0.0,0.0,0.0,0.0,0.0,0.0,0.0,0.0,0.0,0.0,0.0,0.0,0.0,0.0,0.0,0.0,0.0,0.0,0.0,0.0,0.0,0.0,0.0,0.0,0.0,0.0,0.0,0.0,0.0,0.0,0.0,0.0,0.0,0.0,0.0,0.0,0.0,0.0,0.0,0.0,0.0,0.0,0.0,0.0,0.0,0.0,0.0,0.0,0.0,0.0,0.0,0.0,0.0,0.0,0.0,0.0,0.0,0.0,0.0,-3.7812,-3.8753,-3.9369,-3.9574,-3.6877,-3.5081,0.0,0.0,0.0,0.0,0.0,0.0,0.0,0.0,0.0,0.0,0.0,0.0,0.0,0.0,0.0,0.0,0.0,0.0,0.0,0.0,0.0,0.0,0.0,0.0,0.0,0.0,0.0,0.0,0.0,0.0,0.0,0.0,0.0,0.0,0.0,0.0,0.0,0.0,0.0,0.0,0.0,0.0,0.0,0.0,0.0,0.0,0.0,0.0,0.0,0.0,0.0,0.0,0.0,0.0,0.0,0.0,0.0,0.0,0.0,0.0,0.0,0.0,0.0,0.0,0.0,0.0,0.0,0.0,0.0,0.0,0.0,0.0,0.0,0.0,0.0,0.0,0.0,0.0,0.0,0.0,0.0,0.0,0.0,0.0,0.0,0.0,0.0,0.0,0.0,0.0,0.0,0.0,0.0,0.0,0.0,0.0,0.0,0.0,0.0,0.0,0.0,0.0,0.0,0.0,0.0,0.0,0.0,0.0,0.0,-3.8024,-3.9197,-3.9993,-4.0399,-3.7717,-3.5859,-3.4994,0.0,0.0,0.0,0.0,0.0,0.0,0.0,0.0,0.0,0.0,0.0,0.0,0.0,0.0,0.0,0.0,0.0,0.0,0.0,0.0,0.0,0.0,0.0,0.0,0.0,0.0,0.0,0.0,0.0,0.0,0.0,0.0,0.0,0.0,0.0,0.0,0.0,0.0,0.0,0.0,0.0,0.0,0.0,0.0,0.0,0.0,0.0,0.0,0.0,0.0,0.0,0.0,0.0,0.0,0.0,0.0,0.0,0.0,0.0,0.0,0.0,0.0,0.0,0.0,0.0,0.0,0.0,0.0,0.0,0.0,0.0,0.0,0.0,0.0,0.0,0.0,0.0,0.0,0.0,0.0,0.0,0.0,0.0,0.0,0.0,0.0,0.0,0.0,0.0,0.0,0.0,0.0,0.0,0.0,0.0,0.0,0.0,0.0,0.0,0.0,0.0,0.0,0.0,0.0,0.0,0.0,0.0,0.0,-3.973,-4.1429,-4.1781,-4.0668,-3.89,-3.6608,0.0,0.0,0.0,0.0,0.0,0.0,0.0,0.0,0.0,0.0,0.0,0.0,0.0,0.0,0.0,0.0,0.0,0.0,0.0,0.0,0.0,0.0,0.0,0.0,0.0,0.0,0.0,0.0,0.0,0.0,0.0,0.0,0.0,0.0,0.0,0.0,0.0,0.0,0.0,0.0,0.0,0.0,0.0,0.0,0.0,0.0,0.0,0.0,0.0,0.0,0.0,0.0,0.0,0.0,0.0,0.0,0.0,0.0,0.0,0.0,0.0,0.0,0.0,0.0,0.0,0.0,0.0,0.0,0.0,0.0,0.0,0.0,0.0,0.0,0.0,0.0,0.0,0.0,0.0,0.0,0.0,0.0,0.0,0.0,0.0,0.0,0.0,0.0,0.0,0.0,0.0,0.0,0.0,0.0,0.0,0.0,0.0,0.0,0.0,0.0,0.0,0.0,0.0,0.0,0.0,0.0,0.0,0.0,0.0,-4.1472,-4.3123,-4.3711,-4.3078,-4.0274,-3.7918,0.0,0.0,0.0,0.0,0.0,0.0,0.0,0.0,0.0,0.0,0.0,0.0,0.0,0.0,0.0,0.0,0.0,0.0,0.0,0.0,0.0,0.0,0.0,0.0,0.0,0.0,0.0,0.0,0.0,0.0,0.0,0.0,0.0,0.0,0.0,0.0,0.0,0.0,0.0,0.0,0.0,0.0,0.0,0.0,0.0,0.0,0.0,0.0,0.0,0.0,0.0,0.0,0.0,0.0,0.0,0.0,0.0,0.0,0.0,0.0,0.0,0.0,0.0,0.0,0.0,0.0,0.0,0.0,0.0,0.0,0.0,0.0,0.0,0.0,0.0,0.0,0.0,0.0,0.0,0.0,0.0,0.0,0.0,0.0,0.0,0.0,0.0,0.0,0.0,0.0,0.0,0.0,0.0,0.0,0.0,0.0,0.0,0.0,0.0,0.0,0.0,0.0,0.0,0.0,0.0,0.0,0.0,0.0,-4.0213,-4.1681,-4.3899,-4.4935,-4.4698,-4.2029,-3.9327,0.0,0.0,0.0,0.0,0.0,0.0,0.0,0.0,0.0,0.0,0.0,0.0,0.0,0.0,0.0,0.0,0.0,0.0,0.0,0.0,0.0,0.0,0.0,0.0,0.0,0.0,0.0,0.0,0.0,0.0,0.0,0.0,0.0,0.0,0.0,0.0,0.0,0.0,0.0,0.0,0.0,0.0,0.0,0.0,0.0,0.0,0.0,0.0,0.0,0.0,0.0,0.0,0.0,0.0,0.0,0.0,0.0,0.0,0.0,0.0,0.0,0.0,0.0,0.0,0.0,0.0,0.0,0.0,0.0,0.0,0.0,0.0,0.0,0.0,0.0,0.0,0.0,0.0,0.0,0.0,0.0,0.0,0.0,0.0,0.0,0.0,0.0,0.0,0.0,0.0,0.0,0.0,0.0,0.0,0.0,0.0,0.0,0.0,0.0,0.0,0.0,0.0,0.0,0.0,0.0,0.0,0.0,0.0,-4.0957,-4.1174,-4.4033,-4.5495,-4.5325,-4.3599,-4.0623,0.0,0.0,0.0,0.0,0.0,0.0,0.0,0.0,0.0,0.0,0.0,0.0,0.0,0.0,0.0,0.0,0.0,0.0,0.0,0.0,0.0,0.0,0.0,0.0,0.0,0.0,0.0,0.0,0.0,0.0,0.0,0.0,0.0,0.0,0.0,0.0,0.0,0.0,0.0,0.0,0.0,0.0,0.0,0.0,0.0,0.0,0.0,0.0,0.0,0.0,0.0,0.0,0.0,0.0,0.0,0.0,0.0,0.0,0.0,0.0,0.0,0.0,0.0,0.0,0.0,0.0,0.0,0.0,0.0,0.0,0.0,0.0,0.0,0.0,0.0,0.0,0.0,0.0,0.0,0.0,0.0,0.0,0.0,0.0,0.0,0.0,0.0,0.0,0.0,0.0,0.0,0.0,0.0,0.0,0.0,0.0,0.0,0.0,0.0,0.0,0.0,0.0,0.0,0.0,0.0,0.0,0.0,0.0,-4.0643,-4.2009,-4.3762,-4.4635,-4.4531,-4.2661,-4.019,0.0,0.0,0.0,0.0,0.0,0.0,0.0,0.0,0.0,0.0,0.0,0.0,0.0,0.0,0.0,0.0,0.0,0.0,0.0,0.0,0.0,0.0,0.0,0.0,0.0,0.0,0.0,0.0,0.0,0.0,0.0,0.0,0.0,0.0,0.0,0.0,0.0,0.0,0.0,0.0,0.0,0.0,0.0,0.0,0.0,0.0,0.0,0.0,-3.5325,0.0,0.0,0.0,0.0,0.0,0.0,0.0,0.0,0.0,0.0,0.0,0.0,0.0,0.0,0.0,0.0,0.0,0.0,0.0,0.0,0.0,0.0,0.0,0.0,0.0,0.0,0.0,0.0,0.0,0.0,0.0,0.0,0.0,0.0,0.0,0.0,0.0,0.0,0.0,0.0,0.0,0.0,0.0,0.0,0.0,0.0,0.0,0.0,0.0,0.0,0.0,0.0,0.0,0.0,0.0,0.0,0.0,0.0,0.0,-4.0544,-4.2279,-4.3719,-4.4595,-4.4837,-4.334,-4.0933,0.0,0.0,0.0,0.0,0.0,0.0,0.0,0.0,0.0,0.0,0.0,0.0,0.0,0.0,0.0,0.0,0.0,0.0,0.0,0.0,0.0,0.0,0.0,0.0,0.0,0.0,0.0,0.0,0.0,0.0,0.0,0.0,0.0,0.0,0.0,0.0,0.0,0.0,0.0,0.0,0.0,0.0,0.0,0.0,0.0,0.0,0.0,0.0,0.0,0.0,0.0,0.0,0.0,0.0,0.0,0.0,0.0,0.0,0.0,0.0,0.0,0.0,0.0,0.0,0.0,0.0,0.0,0.0,0.0,0.0,0.0,0.0,0.0,0.0,0.0,0.0,0.0,0.0,0.0,0.0,0.0,0.0,0.0,0.0,0.0,0.0,0.0,0.0,0.0,0.0,0.0,0.0,0.0,0.0,0.0,0.0,0.0,0.0,0.0,0.0,0.0,0.0,0.0,0.0,0.0,0.0,0.0,-3.8707,-4.0407,-4.2254,-4.3608,-4.4638,-4.5382,-4.4317,-4.1824,-3.7887,0.0,0.0,0.0,0.0,0.0,0.0,0.0,0.0,0.0,0.0,0.0,0.0,0.0,0.0,0.0,0.0,0.0,0.0,0.0,0.0,0.0,0.0,0.0,0.0,0.0,0.0,0.0,0.0,0.0,0.0,0.0,0.0,0.0,0.0,0.0,0.0,0.0,0.0,-3.4852,-3.6445,0.0,0.0,0.0,0.0,0.0,0.0,0.0,0.0,-3.8104,0.0,0.0,0.0,0.0,0.0,0.0,0.0,0.0,0.0,0.0,0.0,0.0,0.0,0.0,0.0,0.0,0.0,0.0,0.0,0.0,0.0,0.0,0.0,0.0,0.0,0.0,0.0,0.0,0.0,0.0,0.0,0.0,0.0,0.0,0.0,0.0,0.0,0.0,0.0,0.0,0.0,0.0,0.0,0.0,0.0,0.0,0.0,0.0,0.0,0.0,0.0,0.0,0.0,0.0,0.0,0.0,-3.803,-3.8442,-3.9824,-4.2254,-4.3038,-4.3787,-4.4538,-4.3558,-4.159,-3.8745,0.0,0.0,0.0,0.0,0.0,0.0,0.0,0.0,0.0,0.0,0.0,0.0,0.0,0.0,0.0,0.0,0.0,0.0,0.0,0.0,0.0,0.0,0.0,0.0,0.0,0.0,0.0,0.0,0.0,0.0,0.0,0.0,0.0,0.0,0.0,0.0,0.0,0.0,0.0,-3.9491,-4.0325,0.0,0.0,0.0,0.0,0.0,0.0,0.0,0.0,-3.9542,0.0,0.0,0.0,0.0,0.0,0.0,0.0,0.0,0.0,0.0,0.0,0.0,0.0,0.0,0.0,0.0,0.0,0.0,0.0,0.0,0.0,0.0,0.0,0.0,0.0,0.0,0.0,0.0,0.0,0.0,0.0,0.0,0.0,0.0,0.0,0.0,0.0,0.0,0.0,0.0,0.0,0.0,0.0,0.0,0.0,0.0,0.0,0.0,0.0,0.0,0.0,0.0,0.0,0.0,0.0,-3.754,-3.9008,-4.0801,-4.2904,-4.359,-4.4292,-4.4997,-4.3675,-4.1819,0.0,0.0,0.0,0.0,0.0,0.0,0.0,0.0,0.0,0.0,0.0,0.0,0.0,0.0,0.0,0.0,0.0,0.0,0.0,0.0,0.0,0.0,0.0,0.0,0.0,0.0,0.0,0.0,0.0,0.0,0.0,0.0,0.0,0.0,0.0,0.0,0.0,0.0,0.0,0.0,-3.9866,-4.0701,-4.2148,0.0,0.0,0.0,0.0,0.0,0.0,-3.9843,-3.9914,0.0,0.0,0.0,0.0,0.0,0.0,0.0,0.0,0.0,0.0,0.0,0.0,0.0,0.0,0.0,0.0,0.0,0.0,0.0,0.0,0.0,0.0,0.0,0.0,0.0,0.0,0.0,0.0,0.0,0.0,0.0,0.0,0.0,0.0,0.0,0.0,0.0,0.0,0.0,0.0,0.0,0.0,0.0,0.0,0.0,0.0,0.0,0.0,0.0,0.0,0.0,0.0,0.0,0.0,0.0,-3.7011,-3.9474,-4.166,-4.351,-4.3911,-4.4537,-4.5397,-4.3704,-4.1855,0.0,0.0,0.0,0.0,0.0,0.0,0.0,0.0,0.0,0.0,0.0,0.0,0.0,0.0,0.0,0.0,0.0,0.0,0.0,0.0,0.0,0.0,0.0,0.0,0.0,0.0,0.0,0.0,0.0,0.0,0.0,0.0,0.0,0.0,0.0,0.0,0.0,0.0,0.0,0.0,0.0,-4.1358,-4.3273,-4.1696,0.0,0.0,0.0,0.0,-4.0705,-4.069,0.0,0.0,0.0,0.0,0.0,0.0,0.0,0.0,0.0,0.0,0.0,0.0,0.0,0.0,0.0,0.0,0.0,0.0,0.0,0.0,0.0,0.0,0.0,0.0,0.0,0.0,0.0,0.0,0.0,0.0,0.0,0.0,0.0,0.0,0.0,0.0,0.0,0.0,0.0,0.0,0.0,0.0,0.0,0.0,0.0,0.0,0.0,0.0,0.0,0.0,0.0,0.0,0.0,0.0,0.0,0.0,-3.699,-3.8865,-4.107,-4.3413,-4.2802,-4.3114,-4.4562,-4.2884,-4.1089,0.0,0.0,0.0,0.0,0.0,0.0,0.0,0.0,0.0,0.0,0.0,0.0,0.0,0.0,0.0,0.0,0.0,0.0,0.0,0.0,0.0,0.0,0.0,0.0,0.0,0.0,0.0,0.0,0.0,0.0,0.0,0.0,0.0,0.0,0.0,0.0,0.0,0.0,0.0,0.0,0.0,-4.4018,-4.3567,-4.2646,-4.1992,0.0,0.0,-4.1809,-4.2345,-4.2849,0.0,0.0,0.0,0.0,0.0,0.0,0.0,0.0,0.0,0.0,0.0,0.0,0.0,0.0,0.0,0.0,0.0,0.0,0.0,0.0,0.0,0.0,0.0,0.0,0.0,0.0,0.0,0.0,0.0,0.0,0.0,0.0,0.0,0.0,0.0,0.0,0.0,0.0,0.0,0.0,0.0,0.0,0.0,0.0,0.0,0.0,0.0,0.0,0.0,0.0,0.0,0.0,0.0,0.0,0.0,-3.4991,-3.6317,-3.9019,-4.1222,-4.2793,-4.2885,-4.3194,-4.378,-4.1667,-4.0077,0.0,0.0,0.0,0.0,0.0,0.0,0.0,0.0,0.0,0.0,0.0,0.0,0.0,0.0,0.0,0.0,0.0,0.0,0.0,0.0,0.0,0.0,0.0,0.0,0.0,0.0,0.0,0.0,0.0,0.0,0.0,0.0,0.0,0.0,0.0,0.0,0.0,0.0,0.0,0.0,0.0,0.0,-4.3408,-4.2789,0.0,0.0,0.0,-4.2121,-4.2759,0.0,0.0,0.0,0.0,0.0,0.0,0.0,0.0,0.0,0.0,0.0,0.0,0.0,0.0,0.0,0.0,0.0,0.0,0.0,0.0,0.0,0.0,0.0,0.0,0.0,0.0,0.0,0.0,0.0,0.0,0.0,0.0,0.0,0.0,0.0,0.0,0.0,0.0,0.0,0.0,0.0,0.0,0.0,0.0,0.0,0.0,0.0,0.0,0.0,0.0,0.0,0.0,0.0,0.0,0.0,0.0,0.0,-3.5745,-3.8992,-4.1194,-4.2302,-4.2682,-4.2934,-4.301,-4.0974,0.0,0.0,0.0,0.0,0.0,0.0,0.0,0.0,0.0,0.0,0.0,0.0,0.0,0.0,0.0,0.0,0.0,0.0,0.0,0.0,0.0,0.0,0.0,0.0,0.0,0.0,0.0,-3.2229,0.0,0.0,0.0,0.0,0.0,0.0,0.0,0.0,0.0,0.0,0.0,0.0,0.0,0.0,-4.179,-4.3295,-4.3133,-4.3349,0.0,0.0,-4.2822,-4.3517,-4.3446,-4.2877,0.0,0.0,0.0,0.0,0.0,0.0,0.0,0.0,0.0,0.0,0.0,0.0,0.0,0.0,0.0,0.0,0.0,0.0,0.0,0.0,0.0,0.0,0.0,0.0,0.0,0.0,0.0,0.0,0.0,0.0,0.0,0.0,0.0,0.0,0.0,0.0,0.0,0.0,0.0,0.0,0.0,0.0,0.0,0.0,0.0,0.0,0.0,0.0,0.0,0.0,0.0,0.0,0.0,0.0,0.0,-3.5752,-3.8396,-4.0613,-4.2283,-4.1606,-4.154,-4.2309,-4.1342,-4.0027,0.0,0.0,0.0,0.0,0.0,0.0,0.0,0.0,0.0,0.0,0.0,0.0,0.0,0.0,0.0,0.0,0.0,0.0,0.0,0.0,0.0,0.0,0.0,0.0,0.0,0.0,0.0,0.0,0.0,0.0,0.0,0.0,0.0,0.0,0.0,0.0,0.0,0.0,0.0,0.0,0.0,-4.251,-4.3382,-4.4145,-4.4889,0.0,0.0,-4.4638,-4.5232,-4.5303,-4.4441,-4.1896,0.0,0.0,0.0,0.0,0.0,0.0,0.0,0.0,0.0,0.0,0.0,0.0,0.0,0.0,0.0,0.0,0.0,0.0,0.0,0.0,0.0,0.0,0.0,0.0,0.0,0.0,0.0,0.0,0.0,0.0,0.0,0.0,0.0,0.0,0.0,0.0,0.0,0.0,0.0,0.0,0.0,0.0,0.0,0.0,0.0,0.0,0.0,0.0,0.0,0.0,0.0,0.0,0.0,-3.4214,-3.5691,-3.7323,-3.9284,-4.1466,-4.0762,-4.0707,-4.1495,-4.0677,-3.9382,0.0,0.0,0.0,0.0,0.0,0.0,0.0,0.0,0.0,0.0,0.0,0.0,0.0,0.0,0.0,0.0,0.0,0.0,0.0,0.0,0.0,0.0,0.0,0.0,0.0,0.0,0.0,0.0,-3.4337,-3.456,-3.4969,0.0,0.0,0.0,0.0,0.0,0.0,0.0,0.0,0.0,0.0,-4.2596,-4.3383,-4.4213,0.0,0.0,-4.5176,-4.4878,-4.5626,-4.482,-4.3744,-4.2702,-4.1212,0.0,0.0,0.0,0.0,0.0,0.0,0.0,0.0,0.0,0.0,0.0,0.0,0.0,0.0,0.0,0.0,0.0,0.0,0.0,0.0,0.0,0.0,0.0,0.0,0.0,0.0,0.0,0.0,0.0,0.0,0.0,0.0,0.0,0.0,0.0,0.0,0.0,0.0,0.0,0.0,0.0,0.0,0.0,0.0,0.0,0.0,0.0,0.0,0.0,0.0,0.0,0.0,-3.4116,-3.5702,-3.6676,-3.8185,-4.0274,-3.9758,-3.9726,-4.0209,-3.9696,-3.8711,0.0,0.0,0.0,0.0,0.0,0.0,0.0,0.0,0.0,0.0,0.0,0.0,0.0,0.0,0.0,0.0,0.0,0.0,0.0,0.0,0.0,0.0,0.0,0.0,0.0,0.0,0.0,0.0,-3.496,-3.4927,-3.5345,0.0,0.0,0.0,0.0,0.0,0.0,0.0,0.0,0.0,0.0,-4.2504,-4.3062,-4.4053,-4.4815,-4.5138,-4.4663,-4.4484,-4.5053,-4.4318,-4.3576,-4.3285,0.0,0.0,0.0,0.0,0.0,0.0,0.0,0.0,0.0,0.0,0.0,0.0,0.0,0.0,0.0,0.0,0.0,0.0,0.0,0.0,0.0,0.0,0.0,0.0,0.0,0.0,0.0,0.0,0.0,0.0,0.0,0.0,0.0,0.0,0.0,0.0,0.0,0.0,0.0,0.0,0.0,0.0,0.0,0.0,0.0,0.0,0.0,0.0,0.0,0.0,0.0,0.0,0.0,-3.4656,-3.5681,-3.66,-3.755,-3.8537,-3.8538,-3.8544,-3.8584,-3.8552,-3.8144,-3.7304,0.0,0.0,0.0,0.0,0.0,0.0,0.0,0.0,0.0,0.0,0.0,0.0,0.0,0.0,0.0,0.0,0.0,0.0,0.0,0.0,0.0,0.0,0.0,0.0,0.0,0.0,-3.4543,-3.5121,-3.5507,0.0,0.0,0.0,0.0,0.0,0.0,0.0,0.0,0.0,0.0,-4.0713,-4.2297,-4.2344,-4.3744,-4.4489,-4.3734,-4.3573,-4.3535,-4.358,-4.4204,-4.4453,0.0,0.0,0.0,0.0,0.0,0.0,0.0,0.0,0.0,0.0,0.0,0.0,0.0,0.0,0.0,0.0,0.0,0.0,0.0,0.0,0.0,0.0,0.0,0.0,0.0,0.0,0.0,-3.5573,-3.5056,0.0,0.0,0.0,0.0,0.0,0.0,0.0,0.0,0.0,0.0,0.0,-3.3792,-3.441,0.0,0.0,0.0,0.0,0.0,0.0,0.0,0.0,0.0,0.0,0.0,0.0,-3.4667,-3.562,-3.5936,-3.6852,-3.8361,-3.7878,-3.7864,-3.8482,-3.8518,-3.8113,-3.7331,0.0,0.0,0.0,0.0,0.0,0.0,0.0,0.0,0.0,0.0,0.0,0.0,0.0,0.0,0.0,0.0,0.0,0.0,0.0,0.0,0.0,0.0,0.0,0.0,0.0,-3.5403,0.0,0.0,0.0,0.0,0.0,0.0,0.0,0.0,0.0,0.0,0.0,-3.8956,-3.9312,-4.1074,-4.2301,-4.2303,-4.3273,-4.4108,0.0,0.0,0.0,0.0,0.0,0.0,0.0,0.0,0.0,0.0,0.0,0.0,0.0,0.0,-4.3131,-4.1976,-4.083,-3.9873,-3.9296,0.0,0.0,0.0,0.0,0.0,0.0,0.0,0.0,0.0,0.0,0.0,0.0,0.0,0.0,0.0,0.0,-3.4586,0.0,0.0,0.0,0.0,0.0,0.0,0.0,0.0,-3.4253,-3.453,-3.4397,-3.4966,-3.5004,0.0,-3.4079,-3.3686,0.0,0.0,0.0,0.0,0.0,0.0,0.0,0.0,-3.4712,-3.5063,-3.5388,-3.6162,-3.7335,-3.688,-3.6881,-3.7494,-3.7542,-3.7301,-3.6772,-3.5103,-3.4318,0.0,0.0,0.0,0.0,0.0,0.0,0.0,0.0,0.0,0.0,0.0,0.0,0.0,0.0,0.0,0.0,0.0,0.0,0.0,0.0,0.0,0.0,0.0,-3.547,0.0,0.0,0.0,0.0,0.0,0.0,0.0,0.0,0.0,-3.7029,-3.8568,-3.9717,-3.9797,-4.1246,-4.2207,-4.1924,0.0,0.0,0.0,0.0,0.0,0.0,0.0,-4.4136,-4.4387,-4.3539,-4.305,-4.3828,-4.4637,-4.4904,-4.404,0.0,0.0,-4.2913,-4.1704,-4.0806,-4.0558,-4.0049,-3.9461,-3.8899,-3.8316,-3.7765,0.0,0.0,0.0,0.0,0.0,0.0,0.0,0.0,-3.5277,-3.5736,0.0,-3.3988,0.0,0.0,0.0,0.0,0.0,0.0,0.0,0.0,-3.4646,-3.4721,-3.4148,-3.426,-3.4284,-3.4318,-3.4367,-3.4383,-3.4293,-3.2314,0.0,0.0,0.0,0.0,0.0,0.0,-3.4837,-3.4237,-3.4994,-3.5477,-3.5635,-3.5604,-3.5635,-3.5723,-3.5769,-3.5791,-3.5713,-3.5674,-3.5292,-3.4475,-3.4393,0.0,0.0,0.0,0.0,0.0,0.0,0.0,0.0,0.0,0.0,0.0,0.0,0.0,0.0,0.0,0.0,0.0,0.0,0.0,0.0,-3.5361,0.0,0.0,0.0,0.0,0.0,0.0,0.0,0.0,0.0,0.0,-3.7166,-3.864,-3.9767,-3.9846,0.0,0.0,0.0,0.0,-4.2061,-4.1367,-4.1924,-4.2188,-4.1445,-4.3283,-4.4562,-4.3789,0.0,0.0,-4.4958,-4.5516,-4.5779,-4.4941,-4.4733,-4.4496,-4.3578,-4.2131,-4.1315,-4.1937,-4.0883,-3.9873,-3.9733,-3.9616,-3.9276,-3.7311,0.0,0.0,0.0,0.0,-3.5002,-3.5341,-3.6073,-3.5592,-3.5621,-3.5875,-3.4064,0.0,0.0,0.0,0.0,0.0,0.0,-3.364,-3.3473,-3.428,-3.4579,-3.4422,-3.515,-3.5183,-3.4674,-3.4257,-3.3839,-3.334,-3.1616,-3.2014,-3.447,0.0,0.0,0.0,0.0,-3.4472,-3.4879,-3.5128,-3.5289,-3.5371,-3.5392,-3.5412,-3.549,-3.5508,-3.553,-3.5565,-3.5565,-3.5474,-3.5252,-3.4607,0.0,0.0,0.0,0.0,0.0,0.0,0.0,0.0,0.0,0.0,0.0,0.0,0.0,0.0,0.0,0.0,0.0,0.0,0.0,-3.5297,-3.5304,-3.5289,0.0,0.0,0.0,0.0,0.0,0.0,0.0,0.0,0.0,-3.7967,-3.9473,-4.059,0.0,0.0,-4.061,-4.1052,-4.0781,-4.1127,-4.2714,0.0,0.0,0.0,-4.3964,-4.4183,-4.4545,-4.5484,-4.591,-4.502,-4.5562,-4.5814,-4.495,-4.4319,-4.3672,-4.2864,-4.2747,-4.2573,-4.2267,-4.1791,-4.1242,-4.0639,-4.0472,-4.0293,-3.6566,-3.6378,-3.5705,-3.5438,-3.5403,-3.5188,-3.5294,-3.5616,-3.5225,-3.5149,-3.5192,-3.3598,-3.3113,-3.3364,-3.2554,0.0,0.0,0.0,-3.2583,-3.255,-3.2772,-3.2889,-3.2952,-3.3541,-3.3567,-3.3092,-3.2506,-3.2221,-3.2164,-3.0655,-3.1098,-3.3368,0.0,0.0,-3.3903,-3.4083,-3.4299,-3.457,-3.4883,-3.507,-3.5138,-3.5165,-3.5205,-3.5285,-3.5285,-3.5292,-3.5306,-3.532,-3.5519,-3.5853,-3.5062,-3.4342,0.0,0.0,0.0,0.0,0.0,0.0,0.0,0.0,0.0,0.0,0.0,-3.344,0.0,0.0,0.0,0.0,-3.4536,-3.5091,-3.5182,-3.5168,0.0,0.0,0.0,0.0,0.0,0.0,0.0,-3.6071,-3.7347,-3.8266,-3.8292,-3.9796,-4.0915,-4.1075,-4.0583,-4.0437,-4.101,0.0,-4.0878,-4.2441,-4.2964,-4.3251,-4.3425,-4.3597,-4.3887,-4.4395,-4.4852,-4.5016,-4.4556,-4.4813,-4.4916,-4.4416,-4.3666,-4.2919,-4.2393,-4.2175,-4.1993,-4.1766,-4.1718,-4.1412,-4.0553,-4.0329,-4.0198,-3.5968,-3.586,-3.5843,-3.5773,-3.5614,-3.5582,-3.5087,-3.431,-3.4319,-3.4379,-3.433,-3.2825,-3.2582,-3.3266,-3.2666,0.0,0.0,-3.1604,-3.1299,-3.1245,-3.0645,-3.0383,-3.044,-3.0469,-3.0451,-3.0362,-2.9876,-3.0008,-3.0609,-2.9515,-2.9672,-3.1066,-3.1447,-3.1771,-3.2131,-3.3529,-3.4045,-3.3582,-3.4291,-3.4745,-3.4851,-3.4926,-3.4999,-3.5053,-3.5053,-3.5016,-3.4981,-3.5008,-3.5397,-3.6083,-3.5508,-3.5039,-3.4786,0.0,0.0,0.0,0.0,0.0,0.0,0.0,0.0,0.0,0.0,0.0,0.0,0.0,0.0,0.0,-3.4311,0.0,-3.5001,-3.4945,0.0,0.0,0.0,-3.4963,-3.5176,-3.5362,-3.5458,-3.5397,0.0,0.0,0.0,0.0,-4.0582,-4.086,-4.0883,-4.095,-4.1072,-4.0991,-4.1025,-4.1315,-4.193,-4.2109,-4.1698,-4.2616,-4.353,-4.3588,-4.3602,-4.3718,-4.3721,-4.3717,-4.3671,-4.372,-4.2895,-4.2256,-4.2292,-4.0958,-3.9883,-4.088,-4.0878,-4.0521,-3.9762,-3.9537,-3.9282,-3.5464,-3.5424,-3.5447,-3.556,-3.5677,-3.4899,-3.4516,-3.435,-3.3284,-3.3234,-3.3862,-3.2326,-3.1414,-3.1001,-3.0829,-3.054,-3.0127,-2.9988,-3.0002,-3.0184,-3.0008,-2.9953,-2.9969,-3.0113,-2.9861,-2.9311,-2.9245,-2.9115,-2.8923,-2.8594,-2.8386,-2.8312,-2.8961,-3.0147,-3.1789,-3.1662,-3.2126,-3.328,-3.3487,-3.3872,-3.4502,-3.4586,-3.4628,-3.4639,-3.4596,-3.4618,-3.468,-3.4551,-3.4586,-3.4824,-3.4645,-3.3896,-3.2566,-3.1907,0.0,0.0,0.0,0.0,0.0,0.0,0.0,0.0,0.0,-3.2142,-3.1115,0.0,-3.3318,0.0,-3.3043,-3.4291,-3.4944,-3.4973,0.0,0.0,-3.4974,-3.4982,-3.5047,-3.5804,-3.6059,-3.5396,-3.6446,-3.7203,-3.7208,-3.7605,-3.819,-3.8949,-3.9618,-4.026,-4.0899,-4.0421,-4.0545,-4.1773,-4.2174,-4.2258,-4.2043,-4.2318,-4.2653,-4.2713,-4.3242,-4.3652,-4.3613,-4.365,-4.3663,-4.3555,-4.2371,-4.1755,-4.2178,-4.0467,-3.9524,-4.0584,-3.9997,-3.8968,-3.8747,-3.8719,-3.8593,-3.5135,-3.5018,-3.5018,-3.4912,-3.4688,-3.4343,-3.3889,-3.333,-3.2521,-3.2259,-3.2378,-3.1512,-3.0881,-3.04,-3.0137,-2.9876,-2.9546,-2.8935,-2.875,-2.8887,-2.861,-2.8488,-2.8538,-2.8653,-2.8494,-2.8061,-2.8227,-2.8147,-2.7876,-2.8003,-2.7887,-2.7549,-2.7987,-2.8871,-3.0057,-3.0232,-3.0986,-3.2372,-3.2774,-3.338,-3.4184,-3.4257,-3.4257,-3.4215,-3.3856,-3.367,-3.3699,-3.3304,-3.3403,-3.4115,-3.3476,-3.2976,-3.2678,-3.1209,-2.9948,0.0,0.0,0.0,0.0,0.0,0.0,0.0,0.0,0.0,0.0,0.0,-3.2997,0.0,0.0,0.0,-3.4783,-3.4811,-3.483,-3.4839,-3.4888,-3.4926,-3.5037,-3.5627,-3.5856,-3.5396,-3.6192,-3.6781,-3.682,-3.7192,-3.7624,-3.8204,-3.9034,-3.9796,-4.0318,-4.0292,-4.0646,-4.159,-4.1746,-4.1739,-4.1724,-4.172,-4.1739,-4.1846,-4.222,-4.242,-4.1997,-4.1945,-4.1833,-4.1367,-4.0564,-4.0091,-4.0475,-3.9273,-3.8367,-3.8874,-3.8285,-3.772,-3.8303,-3.8458,-3.8272,-3.4899,-3.4667,-3.4667,-3.4134,-3.3315,-3.3788,-3.3183,-3.1892,-3.183,-3.1329,-3.0609,-3.0526,-3.041,-3.0277,-2.9765,-2.9527,-2.9362,-2.8265,-2.775,-2.7704,-2.7114,-2.686,-2.6875,-2.6925,-2.6925,-2.6925,-2.7132,-2.7224,-2.7272,-2.7567,-2.7663,-2.759,-2.7642,-2.7699,-2.7819,-2.8878,-3.0012,-3.1176,-3.2028,-3.2838,-3.3576,-3.3589,-3.3582,-3.3479,-3.2818,-3.2425,-3.2368,-3.1734,-3.2029,-3.334,-3.2189,-3.2072,-3.3316,-3.0613,-2.9247,0.0,-2.836,0.0,0.0,0.0,0.0,0.0,0.0,0.0,0.0,-3.099,-3.2601,-3.4298,-3.4484,-3.4494,-3.4443,-3.4537,-3.4655,-3.4778,-3.4791,-3.4879,-3.5044,-3.5176,-3.5277,-3.5327,-3.5952,-3.643,-3.6479,-3.7185,-3.7665,-3.7688,-3.8388,-3.899,-3.9364,-4.0196,-4.0925,-4.0871,-4.082,-4.0812,-4.0824,-4.0838,-4.0835,-4.0908,-4.0953,-4.0605,-3.9838,-3.9706,-3.9442,-3.88,-3.8559,-3.8431,-3.8457,-3.7809,-3.7256,-3.7606,-3.703,-3.6756,-3.7722,-3.8024,-3.7662,-3.4611,-3.4546,-3.4521,-3.3784,-3.2603,-3.2695,-3.2247,-3.1408,-3.0777,-3.0368,-3.0097,-2.9545,-2.8948,-2.8294,-2.8285,-2.7955,-2.7471,-2.7816,-2.7715,-2.7321,-2.719,-2.6827,-2.6314,-2.6435,-2.6504,-2.6521,-2.6725,-2.6907,-2.7053,-2.7117,-2.6904,-2.6422,-2.642,-2.6482,0.0,0.0,0.0,0.0,-3.0839,-3.1311,-3.147,-3.1497,-3.1479,-3.1452,-3.127,0.0,-3.122,-3.098,-3.0978,-3.1285,-3.1028,0.0,0.0,0.0,0.0,0.0,0.0,0.0,0.0,0.0,0.0,0.0,-2.9034,-2.9257,-3.0924,-3.1547,-3.2281,-3.3354,-3.347,-3.3513,-3.3617,-3.4279,-3.4687,-3.4708,-3.4752,-3.4812,-3.4851,-3.4926,-3.4992,-3.501,-3.5221,-3.5392,-3.539,-3.5661,-3.5825,-3.5873,-3.6589,-3.7105,-3.7192,-3.927,-4.0563,-4.0027,-3.9861,-3.9866,-3.9855,-3.9906,-3.9941,-3.9956,-3.996,-3.9613,-3.8884,-3.8711,-3.8734,-3.8422,-3.7909,-3.7654,-3.8277,-3.7285,-3.6582,-3.8044,-3.7572,-3.6938,-3.6565,-3.6434,-3.6285,-3.4448,0.0,-3.3991,-3.3136,0.0,-3.167,-3.1095,-3.0415,-3.0179,-2.993,-2.9633,-2.9361,-2.8941,-2.8388,-2.8238,-2.7777,-2.7134,-2.7167,-2.6877,-2.6421,-2.6405,-2.6264,-2.5994,-2.6118,-2.6154,-2.6154,-2.626,-2.6418,-2.6607,-2.664,-2.6538,-2.6346,-2.636,-2.6408,-2.6457,-2.6552,-2.7489,-2.9301,-2.974,-3.037,-3.1195,-3.129,-3.144,-3.1691,0.0,0.0,0.0,0.0,0.0,0.0,0.0,0.0,0.0,0.0,0.0,-2.8508,-2.8137,-2.811,-2.8593,-2.8234,-2.8387,-2.929,-2.9502,-2.9894,-3.0661,-3.0863,-3.136,-3.2307,-3.2434,-3.2665,-3.3164,-3.3682,-3.4089,-3.4461,-3.4586,-3.4517,-3.4199,-3.4505,-3.4471,-3.38,-3.4008,-3.4186,-3.3802,-3.3807,-3.3892,-3.4014,-3.4718,-3.5281,-3.5564,-3.7674,-3.921,-3.8908,-3.8852,-3.8863,-3.8908,-3.8952,-3.8995,-3.9017,-3.9006,-3.8665,-3.7891,-3.7773,-3.7696,-3.7286,-3.6526,-3.6099,-3.6354,-3.5551,-3.5015,-3.5741,-3.5683,-3.527,-3.4832,-3.5348,-3.58,-3.4219,-3.3957,-3.3307,-3.2458,-3.1541,-3.0885,-3.0151,-2.945,0.0,0.0,0.0,-2.9148,-2.9039,-2.88,-2.8434,-2.7901,-2.7285,-2.6782,-2.6234,-2.5647,-2.5631,-2.5643,-2.5696,-2.5752,-2.5805,-2.5789,-2.5789,-2.5899,-2.6063,-2.6083,-2.619,-2.6382,-2.647,-2.6556,-2.6624,-2.6775,-2.7378,-2.8397,-2.8588,-2.9341,-3.0731,-3.0847,-3.1103,-3.1593,-3.0439,-3.0021,-3.0494,-2.9365,-2.9011,-2.9581,-2.9002,-2.8605,-2.8481,-2.7901,-2.7552,-2.7524,-2.7526,-2.7569,-2.7672,-2.7632,-2.7937,-2.8824,-2.9722,-3.0219,-3.0114,-3.0209,-3.0558,-3.1278,-3.1492,-3.186,-3.2425,-3.2757,-3.3149,-3.3743,-3.3933,-3.3732,-3.3192,-3.3717,-3.3621,-3.2589,-3.2882,-3.3043,-3.2495,-3.2457,-3.2409,-3.2598,-3.3236,-3.3644,-3.4022,-3.6043,-3.78,-3.7829,-3.7823,-3.7822,-3.7727,-3.7702,-3.7772,-3.7492,-3.7526,-3.7311,-3.6642,-3.6406,-3.6161,-3.5534,-3.4808,-3.4477,-3.4344,-3.3951,-3.3392,-3.3383,-3.3393,-3.3379,-3.3496,-3.4389,-3.5002,-3.3469,-3.2923,-3.2802,-3.1991,-3.0765,-3.0662,-3.0058,-2.9176,-2.9082,-2.8904,-2.8575,-2.8031,-2.7759,-2.7736,-2.7772,-2.7462,-2.6938,-2.7299,-2.6889,0.0,-2.5757,-2.5478,-2.4997,-2.5256,-2.5391,-2.5391,-2.5435,-2.5489,-2.5492,-2.5403,-2.5422,-2.5591,-2.574,-2.5994,-2.6242,-2.6278,-2.6433,-2.6673,-2.7109,-2.7487,-2.771,-2.7679,-2.7699,-2.7769,-2.7647,-2.7511,-2.7599,-2.7443,-2.7341,-2.7444,-2.7341,-2.7256,-2.7257,-2.7154,-2.7133,-2.7246,-2.7197,-2.7308,-2.7569,-2.7557,-2.7622,-2.7871,-2.8053,-2.892,-3.0765,-3.094,-3.0755,-3.0332,-3.0802,-3.1016,-3.0589,-3.1243,-3.1812,-3.1935,-3.2094,-3.2151,-3.209,-3.2251,-3.2275,-3.1994,-3.2166,-3.2272,-3.2049,-3.208,-3.209,-3.2232,-3.2335,-3.2533,-3.2955,-3.4983,-3.6604,-3.6814,-3.6805,-3.6547,-3.6042,-3.5886,-3.5739,-3.5034,-3.5059,-3.4899,-3.4153,-3.404,-3.3999,-3.3681,-3.3553,-3.344,-3.3466,-3.3435,-3.3188,-3.3115,-3.3159,-3.3212,-3.3178,-3.3066,-3.2947,-3.3089,-3.2463,-3.2049,-3.1475,-3.079,-3.0354,-2.9523,-2.8534,-2.8446,-2.8134,-2.767,-2.7355,-2.7138,-2.7059,-2.7217,-2.7142,-2.6857,-2.6788,-2.6257,-2.5339,-2.4976,-2.4735,-2.4559,-2.4706,-2.4826,-2.4926,-2.495,-2.5013,-2.513,-2.5075,-2.5134,-2.5288,-2.5368,-2.5532,-2.5663,-2.5793,-2.5883,-2.5937,-2.6521,-2.7045,-2.747,-2.7554,-2.7759,-2.8118,-2.7793,-2.7776,-2.8118,-2.7793,-2.7571,-2.7538,-2.747,-2.7233,-2.6809,-2.6741,-2.6757,-2.6824,-2.6774,-2.6873,-2.7101,-2.7117,-2.7197,-2.7369,-2.7353,-2.7847,-2.908,-2.9339,-2.9319,-2.907,-2.9398,-2.9699,-2.98,-3.0312,-3.0796,-3.1236,-3.1397,-3.134,-3.1097,-3.1397,-3.1343,-3.0751,-3.0982,-3.1125,-3.0738,-3.0703,-3.0733,-3.0752,-3.11,-3.1477,-3.1563,-3.3023,-3.4236,-3.4323,-3.4732,-3.4749,-3.4223,-3.4501,-3.4416,-3.3785,-3.3627,-3.3508,-3.3151,-3.3118,-3.3103,-3.3106,-3.2809,-3.2535,-3.2532,-3.2156,-3.1954,-3.1904,-3.1946,-3.1988,-3.19,-3.1655,-3.164,-3.251,-3.1695,-3.1318,-3.0948,-3.057,-2.9831,-2.8956,-2.8063,-2.7934,-2.7482,-2.6874,-2.6829,-2.6783,-2.6747,-2.6808,-2.6814,-2.6753,-2.6324,-2.5735,-2.5055,-2.4427,-2.4195,-2.4313,-2.4227,-2.4245,-2.441,-2.4431,-2.4533,-2.4699,-2.4704,-2.4799,-2.4977,-2.4997,-2.502,-2.5114,-2.5323,-2.5435,-2.5492,-2.6012,-2.665,-2.7345,-2.7519,-2.7859,-2.8243,-2.7824,-2.7807,-2.8259,-2.7807,-2.7537,-2.7485,-2.7415,-2.7075,-2.6451,-2.6367,-2.6367,-2.6385,-2.6402,-2.6454,-2.6607,-2.6657,-2.6758,-2.6923,-2.6923,-2.7053,-2.7353,-2.7659,-2.7911,-2.8063,-2.82,-2.8528,-2.9098,-2.9403,-2.9779,-3.0373,-3.0555,-3.0336,-2.9966,-3.04,-3.0429,-2.9429,-2.9769,-2.9953,-2.9516,-2.9361,-2.9427,-2.957,-2.9994,-3.0409,-3.0571,-3.1127,-3.1553,-3.1892,-3.2689,-3.3168,-3.2641,-3.2982,-3.307,-3.2479,-3.2336,-3.2306,-3.2334,-3.2419,-3.2464,-3.2319,-3.1985,-3.1654,-3.1536,-3.1181,-3.0853,-3.0879,-3.095,-3.0874,-3.0953,-3.0947,-3.0898,-3.1438,-3.0308,-3.0735,-3.0341,-2.9498,-2.8958,-2.8528,-2.8128,-2.78,-2.7141,-2.6342,-2.6283,-2.6593,-2.7037,-2.648,-2.6337,-2.6499,-2.642,-2.6051,-2.5528,-2.4882,-2.456,-2.4425,-2.3938,-2.3767,-2.3937,-2.3909,-2.3994,-2.4168,-2.4141,-2.4198,-2.4364,-2.4385,-2.4549,-2.4795,-2.4855,-2.4934,-2.5045,-2.5314,-2.5635,-2.6036,-2.6089,-2.6069,-2.601,-2.5995,-2.5907,-2.6052,-2.5924,-2.5946,-2.5912,-2.6052,-2.6001,-2.583,-2.5901,-2.599,-2.6046,-2.6046,-2.6136,-2.6314,-2.6401,-2.6453,-2.647,-2.6624,-2.6758,-2.6808,-2.7085,-2.7398,-2.7639,-2.7803,-2.7914,-2.7996,-2.8261,-2.8488,-2.8644,-2.8774,-2.8711,-2.8755,-2.8838,-2.8889,-2.881,-2.8979,-2.8948,-2.8922,-2.8938,-2.8984,-2.9049,-2.9244,-2.9417,-2.945,-2.9636,-2.9828,-3.0041,-3.1157,-3.1947,-3.155,-3.139,-3.1424,-3.0802,-3.0573,-3.0751,-3.0889,-3.086,-3.0714,-3.1176,-3.0882,-3.0801,-3.0786,-3.0632,-3.0645,-3.0661,-3.0691,-3.0717,-3.078,-3.0803,-3.0836,-3.0885,-2.9741,-3.0388,-3.016,-2.9437,-2.9197,-2.871,-2.7999,-2.7469,-2.6876,-2.6266,-2.5879,-2.5738,-2.5708,-2.5332,-2.5444,-2.5814,-2.544,-2.5184,-2.4936,-2.4261,-2.3835,-2.3591,-2.3326,-2.3312,-2.3545,-2.3538,-2.361,-2.3803,-2.3925,-2.4046,-2.4109,-2.413,-2.4213,-2.4307,-2.4446,-2.4528,-2.4589,-2.4786,-2.497,-2.5146,-2.5524,-2.5712,-2.5661,-2.5642,-2.5624,-2.5605,-2.5624,-2.5642,-2.5642,-2.5624,-2.5584,-2.553,-2.5546,-2.5546,-2.5584,-2.5696,-2.5807,-2.5939,-2.6046,-2.6154,-2.6261,-2.6242,-2.6313,-2.6504,-2.6573,-2.6708,-2.6922,-2.7353,-2.7644,-2.7674,-2.7777,-2.7864,-2.7904,-2.8,-2.8128,-2.821,-2.8335,-2.8458,-2.8556,-2.8607,-2.8626,-2.8627,-2.8652,-2.87,-2.8791,-2.885,-2.8862,-2.892,-2.9007,-2.9052,-2.9171,-2.9885,-3.0346,-3.0394,-3.0822,-3.0698,-3.0297,-3.0097,-3.014,-3.0215,-3.0267,-3.0329,-3.0389,-3.0419,-3.0442,-3.0509,-3.0525,-3.0564,-3.0586,-3.0626,-3.0652,-3.0728,-3.0774,-3.0815,-3.0452,-2.9564,-2.9883,-2.9867,-2.9572,-2.9459,-2.8823,-2.7842,-2.736,-2.6871,-2.627,-2.5802,-2.5326,-2.4844,-2.4594,-2.4851,-2.5269,-2.478,-2.4508,-2.4422,-2.3773,-2.3273,-2.302,-2.2758,-2.2791,-2.3031,-2.3038,-2.3172,-2.3399,-2.3588,-2.3711,-2.3732,-2.3754,-2.379,-2.3876,-2.4024,-2.4094,-2.412,-2.4287,-2.4385,-2.4467,-2.489,-2.5201,-2.5282,-2.5246,-2.5243,-2.5246,-2.5282,-2.532,-2.5339,-2.5262,-2.5262,-2.5282,-2.5259,-2.524,-2.5314,-2.5429,-2.5543,-2.557,-2.5661,-2.5789,-2.5917,-2.5826,-2.5862,-2.6066,-2.6119,-2.6189,-2.6348,-2.6841,-2.723,-2.7371,-2.7448,-2.7524,-2.7597,-2.7672,-2.776,-2.7844,-2.7993,-2.8101,-2.8251,-2.8251,-2.8286,-2.8303,-2.8329,-2.8399,-2.8487,-2.8562,-2.8582,-2.8626,-2.8718,-2.8791,-2.8791,-2.8927,-2.9206,-2.9589,-3.0095,-3.0262,-3.0158,-2.9932,-2.998,-3.0061,-3.0123,-3.0174,-3.026,-3.0286,-3.0361,-3.0425,-3.0472,-3.0493,-3.052,-3.0548,-3.0626,-3.07,-3.075,-3.0776,-3.0027,-2.9158,-2.897,-2.9286,-2.9754,-2.9363,-2.8662,-2.7753,-2.7652,-2.7142,-2.6315,-2.6095,-2.5728,-2.5171,-2.4747,-2.4826,-2.5215,-2.4715,-2.4458,-2.4387,-2.368,-2.3315,-2.3206,-2.2442,-2.2208,-2.2463,-2.2463,-2.2609,-2.2912,-2.2957,-2.3001,-2.315,-2.315,-2.3275,-2.3451,-2.3494,-2.356,-2.3653,-2.376,-2.3824,-2.3861,-2.4003,-2.4255,-2.4503,-2.4441,-2.4405,-2.4405,-2.4518,-2.4584,-2.465,-2.4771,-2.489,-2.497,-2.5048,-2.5127,-2.5275,-2.5294,-2.5278,-2.5294,-2.5317,-2.5336,-2.5371,-2.5432,-2.5435,-2.553,-2.5791,-2.5956,-2.601,-2.6279,-2.6556,-2.6808,-2.7021,-2.7228,-2.7355,-2.7448,-2.7511,-2.7542,-2.7657,-2.7716,-2.776,-2.7789,-2.7815,-2.7844,-2.7936,-2.8053,-2.8122,-2.8191,-2.8228,-2.8268,-2.8388,-2.8479,-2.8543,-2.8663,-2.8915,-2.9166,-2.9522,-2.9663,-2.9654,-2.9699,-2.9834,-2.9926,-2.998,-3.0049,-3.0101,-3.0123,-3.0194,-3.0336,-3.0408,-3.0436,-3.046,-3.0535,-3.0597,-3.0645,-3.0698,-3.0734,-2.9984,-2.9517,-2.9143,-2.939,-2.9909,-2.9392,-2.8656,-2.7868,-2.744,-2.6787,-2.6141,-2.6002,-2.5848,-2.5623,-2.5055,-2.4725,-2.4544,-2.4253,-2.4078,-2.3999,-2.3674,-2.3289,-2.2888,-2.2568,-2.2273,-2.2024,-2.2006,-2.217,-2.2434,-2.2572,-2.2672,-2.2694,-2.2731,-2.2762,-2.2844,-2.2867,-2.2942,-2.315,-2.3135,-2.3201,-2.3436,-2.3348,-2.3436,-2.3732,-2.4003,-2.4094,-2.4109,-2.4151,-2.4193,-2.4219,-2.4261,-2.4302,-2.4364,-2.4446,-2.4553,-2.4746,-2.4706,-2.467,-2.4731,-2.4815,-2.4895,-2.4989,-2.5127,-2.5192,-2.532,-2.547,-2.5546,-2.5602,-2.5754,-2.5939,-2.6083,-2.6419,-2.6741,-2.694,-2.7005,-2.7117,-2.7293,-2.745,-2.7542,-2.7572,-2.7587,-2.7585,-2.7569,-2.763,-2.7707,-2.7766,-2.781,-2.785,-2.7918,-2.8017,-2.8091,-2.8174,-2.8309,-2.8461,-2.8589,-2.8962,-2.9225,-2.9301,-2.9394,-2.9531,-2.9617,-2.9717,-2.9777,-2.9907,-2.9951,-3.0019,-3.014,-3.0273,-3.0317,-3.0408,-3.0469,-3.0491,-3.0554,-3.0591,-3.0644,-2.9728,-2.9695,-2.9233,-2.9421,-2.9919,-2.9535,-2.8777,-2.7923,-2.7442,-2.675,-2.6033,-2.5893,-2.5893,-2.5837,-2.5417,-2.4885,-2.4308,-2.3828,-2.3506,-2.3338,-2.3069,-2.2715,-2.2273,-2.2169,-2.1939,-2.1585,-2.1578,-2.1736,-2.1935,-2.2086,-2.2165,-2.2203,-2.2189,-2.2235,-2.2305,-2.2296,-2.2374,-2.2549,-2.2495,-2.2581,-2.2859,-2.2754,-2.2799,-2.3061,-2.3385,-2.3625,-2.3769,-2.379,-2.3797,-2.3833,-2.3818,-2.3876,-2.394,-2.403,-2.4135,-2.4297,-2.4255,-2.4096,-2.3979,-2.405,-2.4022,-2.3915,-2.43,-2.4547,-2.4657,-2.4941,-2.5123,-2.5162,-2.5282,-2.5416,-2.5495,-2.5758,-2.612,-2.6419,-2.6539,-2.6691,-2.6906,-2.7005,-2.7086,-2.7119,-2.7133,-2.7165,-2.7197,-2.7197,-2.7261,-2.7322,-2.7388,-2.7448,-2.7522,-2.7567,-2.7627,-2.7745,-2.7879,-2.8003,-2.8156,-2.8456,-2.8797,-2.8909,-2.9119,-2.9238,-2.9343,-2.9425,-2.9542,-2.9682,-2.978,-2.9847,-2.995,-3.0104,-3.0214,-3.0305,-3.0349,-3.0371,-3.0439,-3.0487,-3.0561,-2.9177,-2.9664,-2.9142,-2.9242,-2.9766,-2.9735,-2.9024,-2.796,-2.7748,-2.7017,-2.6049,-2.5894,-2.5853,-2.5825,-2.5659,-2.5325,-2.4604,-2.3606,-2.2992,-2.2681,-2.2112,-2.1692,-2.1365,-2.1307,-2.1141,-2.0983,-2.1144,-2.1253,-2.1399,-2.1434,-2.1482,-2.1578,-2.1626,-2.1746,-2.1959,-2.1841,-2.1864,-2.1973,-2.1912,-2.1973,-2.2161,-2.2217,-2.2324,-2.2555,-2.2661,-2.2851,-2.3253,-2.3275,-2.3341,-2.3451,-2.3487,-2.3596,-2.3711,-2.3818,-2.3946,-2.3925,-2.3961,-2.3648,-2.3153,-2.3122,-2.2945,-2.2685,-2.2981,-2.3566,-2.3785,-2.4313,-2.4782,-2.4806,-2.4922,-2.5025,-2.5072,-2.515,-2.5441,-2.5944,-2.6105,-2.6227,-2.6383,-2.6418,-2.6418,-2.6487,-2.6556,-2.6522,-2.6539,-2.6674,-2.6791,-2.6858,-2.694,-2.7005,-2.7036,-2.7101,-2.7164,-2.7289,-2.7446,-2.7582,-2.776,-2.7947,-2.8264,-2.8551,-2.8797,-2.8984,-2.9075,-2.9155,-2.9293,-2.9434,-2.9617,-2.9681,-2.9803,-2.9942,-3.0064,-3.0145,-3.0187,-3.0241,-3.0336,-3.0398,-3.0457,-2.9071,-2.9552,-2.9019,-2.9132,-2.9637,-2.9557,-2.9019,-2.8172,-2.7692,-2.698,-2.6258,-2.58,-2.5619,-2.5633,-2.5578,-2.5218,-2.4583,-2.3973,-2.3454,-2.2955,-2.2571,-2.2017,-2.1481,-2.1338,-2.1027,-2.0537,-2.0485,-2.0623,-2.0822,-2.0833,-2.097,-2.1155,-2.1166,-2.1229,-2.1326,-2.1277,-2.135,-2.153,-2.1471,-2.1568,-2.1864,-2.1817,-2.1864,-2.2044,-2.2231,-2.2324,-2.2287,-2.2609,-2.2828,-2.2888,-2.2873,-2.2926,-2.3046,-2.3091,-2.315,-2.3216,-2.3157,-2.3032,-2.2886,-2.2965,-2.299,-2.2978,-2.333,-2.3639,-2.3773,-2.4039,-2.4297,-2.4421,-2.4503,-2.4569,-2.471,-2.4735,-2.5033,-2.5682,-2.5756,-2.5848,-2.6048,-2.6138,-2.6243,-2.6314,-2.6349,-2.6349,-2.6367,-2.6435,-2.647,-2.647,-2.6556,-2.6573,-2.664,-2.6708,-2.6858,-2.6955,-2.7069,-2.7149,-2.7289,-2.7426,-2.7634,-2.8024,-2.8347,-2.8633,-2.8743,-2.8904,-2.9052,-2.9217,-2.9384,-2.9532,-2.9653,-2.9779,-2.9864,-2.9956,-2.9984,-3.0082,-3.024,-3.0292,-3.0331,-2.8993,-2.9331,-2.8806,-2.8904,-2.9401,-2.932,-2.8802,-2.8008,-2.7515,-2.6848,-2.6102,-2.5674,-2.5508,-2.548,-2.5313,-2.5018,-2.4568,-2.415,-2.3587,-2.3029,-2.267,-2.2074,-2.1302,-2.1132,-2.0732,-2.0118,-2.0029,-2.0144,-2.0308,-2.0271,-2.0372,-2.0586,-2.0586,-2.0686,-2.081,-2.0761,-2.086,-2.1158,-2.1059,-2.112,-2.1399,-2.1423,-2.1471,-2.1626,-2.1793,-2.1817,-2.1688,-2.1983,-2.2217,-2.237,-2.2463,-2.2563,-2.2655,-2.2678,-2.2686,-2.2731,-2.2694,-2.2577,-2.2376,-2.2394,-2.2447,-2.2447,-2.2817,-2.3129,-2.3289,-2.3452,-2.3818,-2.3931,-2.3958,-2.4073,-2.4261,-2.4287,-2.4553,-2.5033,-2.5224,-2.5397,-2.5607,-2.5756,-2.5811,-2.5883,-2.5901,-2.5937,-2.5939,-2.601,-2.603,-2.6013,-2.6049,-2.612,-2.6192,-2.6279,-2.6384,-2.6521,-2.6607,-2.6691,-2.6808,-2.6922,-2.7018,-2.7424,-2.7837,-2.8161,-2.8378,-2.8601,-2.8785,-2.9003,-2.9181,-2.931,-2.9434,-2.9532,-2.9617,-2.9699,-2.9787,-2.9905,-3.0023,-3.0118,-3.0177,-2.8812,-2.8979,-2.8563,-2.8646,-2.902,-2.9058,-2.846,-2.7481,-2.7258,-2.6638,-2.5742,-2.5494,-2.5453,-2.5341,-2.5018,-2.475,-2.4593,-2.3975,-2.3247,-2.2706,-2.2321,-2.1752,-2.0874,-2.0532,-2.0126,-1.9653,-1.9682,-1.9747,-1.9798,-1.9682,-1.972,-1.9965,-1.9914,-2.0055,-2.0384,-2.0309,-2.0423,-2.075,-2.0612,-2.0674,-2.0947,-2.0972,-2.1019,-2.1264,-2.1337,-2.135,-2.1264,-2.1337,-2.1554,-2.1926,-2.2123,-2.224,-2.244,-2.2523,-2.2402,-2.2417,-2.2523,-2.2184,-2.1758,-2.1817,-2.1611,-2.1319,-2.1881,-2.2048,-2.2367,-2.2915,-2.3304,-2.3421,-2.3406,-2.3493,-2.3717,-2.3803,-2.3973,-2.4224,-2.463,-2.4926,-2.5084,-2.522,-2.5298,-2.5298,-2.5294,-2.5275,-2.5317,-2.5394,-2.5451,-2.5473,-2.5532,-2.561,-2.5719,-2.5811,-2.5883,-2.601,-2.6137,-2.6244,-2.635,-2.6487,-2.6607,-2.6856,-2.727,-2.7604,-2.7968,-2.8246,-2.8538,-2.8767,-2.8922,-2.9078,-2.92,-2.9299,-2.9412,-2.954,-2.9626,-2.9699,-2.9813,-2.991,-3.0019,-2.839,-2.8408,-2.8318,-2.8315,-2.8474,-2.8734,-2.8437,-2.7711,-2.7182,-2.6565,-2.5828,-2.5322,-2.5187,-2.5103,-2.4723,-2.435,-2.3972,-2.3691,-2.2985,-2.2217,-2.2441,-2.1654,-2.0575,-2.0083,-1.9706,-1.9257,-1.9237,-1.9265,-1.9331,-1.9317,-1.9408,-1.9551,-1.9525,-1.9656,-1.9965,-1.9927,-2.0067,-2.0347,-2.0322,-2.0309,-2.041,-2.0435,-2.0422,-2.0523,-2.0809,-2.0797,-2.0573,-2.0611,-2.0896,-2.1337,-2.1372,-2.1382,-2.1479,-2.1479,-2.1565,-2.1626,-2.1602,-2.1585,-2.1553,-2.1695,-2.175,-2.1749,-2.1977,-2.2425,-2.2439,-2.2622,-2.2859,-2.2979,-2.3046,-2.3135,-2.3348,-2.3436,-2.3523,-2.3681,-2.4204,-2.465,-2.4786,-2.4811,-2.4826,-2.4902,-2.4942,-2.4926,-2.4966,-2.5025,-2.5107,-2.513,-2.5169,-2.5227,-2.5285,-2.5416,-2.5492,-2.5567,-2.568,-2.5775,-2.5886,-2.6031,-2.619,-2.6349,-2.6674,-2.6985,-2.7422,-2.7837,-2.8174,-2.8513,-2.8614,-2.8737,-2.891,-2.9048,-2.92,-2.9326,-2.9382,-2.9435,-2.9617,-2.9745,-2.9828,-2.8494,-2.8387,-2.8418,-2.8418,-2.841,-2.8643,-2.8375,-2.7816,-2.7369,-2.6687,-2.5968,-2.5548,-2.5236,-2.4962,-2.4452,-2.4034,-2.3666,-2.3275,-2.2662,-2.214,-2.217,-2.1602,-2.0704,-2.0148,-1.9634,-1.9146,-1.8935,-1.8881,-1.8934,-1.8907,-1.8972,-1.9105,-1.9105,-1.9239,-1.9552,-1.95,-1.9656,-1.9952,-1.9991,-1.9991,-2.0182,-2.0195,-2.0195,-2.0233,-2.0447,-2.0422,-2.022,-2.0169,-2.0472,-2.097,-2.1031,-2.0944,-2.0979,-2.0979,-2.1042,-2.1118,-2.1118,-2.1166,-2.1264,-2.1468,-2.1589,-2.1674,-2.1926,-2.2044,-2.2123,-2.2184,-2.2263,-2.2472,-2.2503,-2.2655,-2.2881,-2.3038,-2.315,-2.3268,-2.3702,-2.4141,-2.4343,-2.4369,-2.4446,-2.4564,-2.4661,-2.4706,-2.4722,-2.4726,-2.471,-2.4751,-2.4751,-2.4791,-2.4851,-2.4989,-2.5088,-2.5127,-2.5127,-2.5208,-2.525,-2.5346,-2.5607,-2.5793,-2.6173,-2.6488,-2.6855,-2.7346,-2.7754,-2.8065,-2.8246,-2.8422,-2.8589,-2.8755,-2.8875,-2.8991,-2.9075,-2.9217,-2.9384,-2.955,-2.9645,-2.8835,-2.8505,-2.8688,-2.8688,-2.8497,-2.8546,-2.8184,-2.7678,-2.7494,-2.6802,-2.5899,-2.5711,-2.5262,-2.4863,-2.406,-2.3712,-2.3607,-2.2836,-2.2377,-2.2032,-2.187,-2.1426,-2.1074,-2.0511,-1.994,-1.9446,-1.8916,-1.881,-1.8857,-1.8713,-1.8623,-1.8817,-1.8755,-1.8836,-1.9078,-1.904,-1.9226,-1.9578,-1.9578,-1.9708,-1.9952,-2.0029,-2.0029,-2.0118,-2.0131,-2.0169,-2.008,-1.9991,-2.0169,-2.097,-2.0784,-2.066,-2.0771,-2.0807,-2.0845,-2.0833,-2.0809,-2.0833,-2.0919,-2.0944,-2.1031,-2.1142,-2.1191,-2.1277,-2.153,-2.1602,-2.1684,-2.1959,-2.1949,-2.2114,-2.2333,-2.2632,-2.2731,-2.2799,-2.3038,-2.3326,-2.361,-2.3852,-2.4078,-2.4168,-2.4318,-2.4338,-2.4395,-2.4282,-2.4112,-2.4188,-2.4224,-2.4287,-2.4385,-2.4508,-2.4569,-2.4589,-2.4589,-2.4569,-2.4609,-2.4634,-2.493,-2.5204,-2.568,-2.6031,-2.6316,-2.6757,-2.7208,-2.7547,-2.7754,-2.8014,-2.8277,-2.8422,-2.8538,-2.8694,-2.8809,-2.8978,-2.9155,-2.932,-2.9434,-2.8379,-2.7936,-2.8415,-2.8347,-2.7972,-2.8196,-2.7868,-2.7118,-2.6918,-2.628,-2.5279,-2.4858,-2.4622,-2.4263,-2.3603,-2.3185,-2.3078,-2.2482,-2.2092,-2.1781,-2.1569,-2.1459,-2.1245,-2.0885,-2.0423,-1.9906,-1.939,-1.931,-1.9424,-1.9099,-1.8904,-1.8881,-1.877,-1.8794,-1.8714,-1.8694,-1.8815,-1.9107,-1.9146,-1.9277,-1.9539,-1.9617,-1.9694,-1.9862,-1.9888,-1.9888,-1.9862,-1.9746,-1.9746,-1.9837,-1.9837,-1.9862,-1.9952,-1.9978,-2.0067,-2.0195,-2.022,-2.0271,-2.0372,-2.0535,-2.0684,-2.0709,-2.0845,-2.1042,-2.1091,-2.1115,-2.1251,-2.1471,-2.1544,-2.1664,-2.1888,-2.2077,-2.2203,-2.2273,-2.2379,-2.254,-2.2746,-2.3172,-2.3486,-2.3505,-2.3227,-2.3032,-2.3576,-2.3188,-2.3184,-2.3475,-2.3681,-2.3803,-2.3903,-2.4009,-2.4015,-2.4015,-2.4015,-2.4036,-2.4177,-2.4224,-2.4467,-2.4617,-2.5003,-2.5247,-2.5548,-2.6008,-2.6421,-2.6867,-2.7291,-2.7565,-2.7858,-2.8027,-2.8134,-2.8339,-2.8525,-2.8707,-2.8885,-2.9052,-2.9225,-2.7944,-2.7801,-2.8096,-2.799,-2.7679,-2.7808,-2.7735,-2.7412,-2.6987,-2.6252,-2.54,-2.497,-2.4476,-2.3809,-2.3203,-2.2841,-2.2641,-2.2099,-2.1737,-2.1549,-2.1368,-2.1316,-2.1282,-2.109,-2.0768,-2.0226,-1.9738,-1.9657,-1.9628,-1.9345,-1.8958,-1.885,-1.8634,-1.8341,-1.8282,-1.8236,-1.8344,-1.8602,-1.8694,-1.8827,-1.9146,-1.9277,-1.9382,-1.9578,-1.9656,-1.9682,-1.9604,-1.9486,-1.942,-1.9394,-1.9289,-1.9303,-1.946,-1.9512,-1.9603,-1.9681,-1.9707,-1.9733,-1.9849,-1.9939,-2.008,-2.0232,-2.0371,-2.0535,-2.0646,-2.0696,-2.0795,-2.097,-2.1068,-2.1166,-2.1482,-2.1793,-2.1864,-2.1912,-2.1973,-2.203,-2.217,-2.264,-2.3046,-2.3113,-2.2958,-2.3024,-2.2987,-2.2564,-2.2644,-2.3135,-2.3201,-2.3304,-2.3268,-2.3355,-2.3421,-2.3443,-2.3443,-2.3523,-2.3696,-2.3861,-2.4073,-2.4117,-2.4204,-2.43,-2.4385,-2.495,-2.5534,-2.6083,-2.6689,-2.71,-2.7365,-2.7562,-2.7754,-2.8,-2.8192,-2.8391,-2.8576,-2.8725,-2.8915,-2.759,-2.7709,-2.7709,-2.7623,-2.7503,-2.7423,-2.7523,-2.7689,-2.7154,-2.6189,-2.5607,-2.5263,-2.4412,-2.3508,-2.2935,-2.2623,-2.2249,-2.1815,-2.1463,-2.138,-2.1285,-2.1233,-2.121,-2.1129,-2.0968,-2.045,-1.9991,-1.9884,-1.9826,-1.9355,-1.9206,-1.8954,-1.8447,-1.8209,-1.7983,-1.781,-1.792,-1.8209,-1.8236,-1.8414,-1.8801,-1.8975,-1.9081,-1.933,-1.9486,-1.9486,-1.9356,-1.9263,-1.9182,-1.9143,-1.9025,-1.9105,-1.921,-1.9342,-1.9406,-1.9394,-1.9447,-1.9473,-1.9499,-1.9499,-1.9565,-1.9734,-1.9747,-1.9914,-2.0169,-2.0207,-2.0308,-2.0434,-2.056,-2.0723,-2.1057,-2.1288,-2.1506,-2.1578,-2.1626,-2.1688,-2.1793,-2.2189,-2.2466,-2.268,-2.2435,-2.2357,-2.2531,-2.2413,-2.2579,-2.2703,-2.2754,-2.2777,-2.2754,-2.2777,-2.2867,-2.2934,-2.2957,-2.3046,-2.3224,-2.3406,-2.3623,-2.3592,-2.3539,-2.3442,-2.3447,-2.4004,-2.4673,-2.5512,-2.6098,-2.6539,-2.689,-2.7067,-2.7286,-2.7595,-2.7818,-2.794,-2.8151,-2.837,-2.8589,-2.741,-2.7297,-2.7297,-2.7377,-2.739,-2.7019,-2.6871,-2.6829,-2.6333,-2.5462,-2.4615,-2.4569,-2.3936,-2.304,-2.2781,-2.2305,-2.173,-2.1388,-2.1305,-2.1221,-2.1158,-2.1169,-2.1138,-2.1138,-2.1026,-2.0751,-2.0356,-2.0327,-2.0517,-2.0188,-1.9531,-1.9445,-1.9007,-1.8537,-1.7985,-1.7783,-1.77,-1.7838,-1.7865,-1.8045,-1.8333,-1.8483,-1.867,-1.8987,-1.9225,-1.9225,-1.9105,-1.9117,-1.9103,-1.889,-1.8825,-1.881,-1.8911,-1.9098,-1.9295,-1.9316,-1.9342,-1.9316,-1.9342,-1.9382,-1.9394,-1.9473,-1.946,-1.9499,-1.9603,-1.9604,-1.9785,-1.9965,-2.0169,-2.0346,-2.0498,-2.0698,-2.0709,-2.0833,-2.1019,-2.1155,-2.1288,-2.1468,-2.1732,-2.1955,-2.1709,-2.165,-2.1967,-2.2117,-2.2094,-2.2179,-2.2296,-2.231,-2.2273,-2.2333,-2.2402,-2.2449,-2.2495,-2.2632,-2.2777,-2.2935,-2.3091,-2.2995,-2.2893,-2.2699,-2.2798,-2.3176,-2.3822,-2.4505,-2.5361,-2.6053,-2.6332,-2.6556,-2.6807,-2.71,-2.7289,-2.7474,-2.771,-2.794,-2.8165,-2.6679,-2.6701,-2.6701,-2.6667,-2.6561,-2.6104,-2.6154,-2.6361,-2.5354,-2.4612,-2.4242,-2.3853,-2.3216,-2.2462,-2.2194,-2.1779,-2.1311,-2.1146,-2.1063,-2.0967,-2.0946,-2.0946,-2.0958,-2.0946,-2.0882,-2.0719,-2.0497,-2.0495,-2.0801,-1.9944,-1.9584,-1.9242,-1.8731,-1.8092,-1.7757,-1.7562,-1.7534,-1.7562,-1.7617,-1.7728,-1.7991,-1.8088,-1.8348,-1.8521,-1.8774,-1.8774,-1.8521,-1.8548,-1.8533,-1.8429,-1.8584,-1.8716,-1.8936,-1.9191,-1.936,-1.917,-1.9103,-1.9143,-1.9184,-1.921,-1.921,-1.9302,-1.9302,-1.9328,-1.938,-1.9447,-1.9459,-1.9591,-1.9837,-2.0016,-2.008,-2.0195,-2.0321,-2.0372,-2.0511,-2.0611,-2.0673,-2.0747,-2.097,-2.1215,-2.1308,-2.1417,-2.1736,-2.1791,-2.1576,-2.1631,-2.1827,-2.1817,-2.1817,-2.1841,-2.1888,-2.1978,-2.1997,-2.2007,-2.207,-2.2067,-2.2353,-2.2334,-2.2127,-2.1913,-2.2129,-2.2463,-2.2798,-2.3262,-2.4205,-2.5373,-2.5885,-2.6138,-2.6367,-2.6556,-2.6757,-2.697,-2.7239,-2.75,-2.7692,-2.5968,-2.6094,-2.6094,-2.5963,-2.5677,-2.5193,-2.5348,-2.5605,-2.4615,-2.4032,-2.3937,-2.3551,-2.2871,-2.206,-2.1686,-2.136,-2.0935,-2.0935,-2.0839,-2.0765,-2.0733,-2.0701,-2.0701,-2.068,-2.0637,-2.0453,-2.0474,-2.0508,-2.0544,-1.978,-1.9331,-1.9004,-1.8157,-1.7545,-1.7512,-1.7407,-1.7407,-1.7434,-1.7451,-1.7534,-1.7673,-1.7843,-1.7968,-1.7991,-1.8275,-1.8251,-1.7968,-1.8166,-1.8173,-1.821,-1.8414,-1.8736,-1.9005,-1.9413,-1.9379,-1.8897,-1.8844,-1.8905,-1.8851,-1.8866,-1.8866,-1.8878,-1.8958,-1.9112,-1.9378,-1.9441,-1.9474,-1.9405,-1.9486,-1.963,-1.9694,-1.9849,-1.9952,-2.0029,-2.0054,-2.0105,-2.0144,-2.022,-2.0309,-2.0573,-2.0871,-2.108,-2.1261,-2.1492,-2.1315,-2.1191,-2.1361,-2.1251,-2.1251,-2.1275,-2.1348,-2.1462,-2.1489,-2.1413,-2.1273,-2.0973,-2.1326,-2.1591,-2.125,-2.0905,-2.1276,-2.1747,-2.2096,-2.2554,-2.3528,-2.4628,-2.5157,-2.5663,-2.5832,-2.6015,-2.6211,-2.6471,-2.679,-2.6953,-2.7131,-2.5793,-2.5676,-2.5676,-2.5489,-2.5166,-2.4747,-2.4536,-2.4554,-2.4423,-2.3914,-2.3313,-2.3797,-2.3257,-2.2092,-2.1537,-2.121,-2.0967,-2.0839,-2.0775,-2.0637,-2.0604,-2.0637,-2.0669,-2.0701,-2.0378,-2.014,-2.0237,-2.0508,-2.0363,-1.9676,-1.9318,-1.9059,-1.8445,-1.7834,-1.7683,-1.7465,-1.7306,-1.7345,-1.7345,-1.7334,-1.7351,-1.7496,-1.7551,-1.7606,-1.7733,-1.7822,-1.7734,-1.7991,-1.8146,-1.8125,-1.8504,-1.8698,-1.8742,-1.8963,-1.8965,-1.8863,-1.8888,-1.9026,-1.8608,-1.8534,-1.8445,-1.8391,-1.8348,-1.8666,-1.9014,-1.9431,-1.9432,-1.9064,-1.9093,-1.9184,-1.9263,-1.9302,-1.9394,-1.9512,-1.9617,-1.972,-1.9785,-1.9682,-1.9772,-1.9862,-2.0131,-2.0359,-2.0572,-2.0847,-2.1033,-2.0921,-2.0833,-2.0734,-2.0709,-2.0797,-2.0833,-2.0966,-2.0959,-2.0863,-2.0713,-2.0375,-2.0532,-2.0906,-2.0474,-2.0113,-2.0834,-2.1393,-2.1628,-2.2214,-2.3117,-2.3773,-2.4282,-2.4748,-2.5137,-2.5387,-2.554,-2.5943,-2.6384,-2.6487,-2.6488,-2.55,-2.5394,-2.5104,-2.4885,-2.4723,-2.4297,-2.4077,-2.4032,-2.4077,-2.3676,-2.3103,-2.3269,-2.2707,-2.1666,-2.121,-2.0924,-2.0679,-2.0614,-2.0518,-2.0399,-2.0378,-2.0367,-2.027,-2.0172,-1.9878,-1.9802,-1.9681,-1.9605,-1.9652,-1.9617,-1.9359,-1.9223,-1.8723,-1.8356,-1.7976,-1.7741,-1.7629,-1.7503,-1.7283,-1.7026,-1.7015,-1.706,-1.7117,-1.7117,-1.7234,-1.7366,-1.7542,-1.7698,-1.7943,-1.8021,-1.8462,-1.8672,-1.8765,-1.9071,-1.9324,-1.8737,-1.9074,-1.8957,-1.8384,-1.8382,-1.8197,-1.8079,-1.808,-1.8345,-1.8598,-1.896,-1.908,-1.8541,-1.8667,-1.8851,-1.8955,-1.8958,-1.9064,-1.9158,-1.9263,-1.9225,-1.9303,-1.9225,-1.9225,-1.9291,-1.941,-1.9643,-1.9901,-2.0182,-2.0422,-2.0472,-2.0409,-2.0359,-2.0372,-2.0422,-2.0447,-2.0459,-2.0419,-2.0315,-2.017,-1.9945,-2.0092,-2.0265,-1.9857,-1.9799,-2.0656,-2.1185,-2.1333,-2.1622,-2.2286,-2.2883,-2.3391,-2.3927,-2.4446,-2.4664,-2.4859,-2.509,-2.5336,-2.5651,-2.5779,-2.5228,-2.5071,-2.4652,-2.4374,-2.4109,-2.3725,-2.3517,-2.3408,-2.3475,-2.3247,-2.2755,-2.2455,-2.1879,-2.1302,-2.0967,-2.0722,-2.0399,-2.0399,-2.027,-2.0151,-2.0118,-2.0118,-2.0042,-1.9813,-1.9572,-1.9462,-1.9308,-1.9175,-1.9104,-1.9145,-1.9286,-1.9271,-1.882,-1.8477,-1.8224,-1.7814,-1.752,-1.7219,-1.6945,-1.679,-1.6751,-1.6733,-1.6705,-1.6722,-1.6821,-1.6963,-1.72,-1.7441,-1.7652,-1.8071,-1.8479,-1.8722,-1.8828,-1.9286,-1.935,-1.8926,-1.9062,-1.8887,-1.8422,-1.824,-1.8149,-1.8138,-1.824,-1.8496,-1.8019,-1.8453,-1.8948,-1.8683,-1.8596,-1.8803,-1.8856,-1.8863,-1.8813,-1.8866,-1.8919,-1.8839,-1.8786,-1.8866,-1.8881,-1.8934,-1.9001,-1.8975,-1.9239,-1.9526,-1.9759,-1.9939,-1.9965,-1.9965,-1.9965,-1.9952,-1.9939,-1.9927,-1.9699,-1.9623,-1.9484,-1.9445,-1.9622,-1.972,-1.9335,-1.9501,-2.0358,-2.0751,-2.0863,-2.1203,-2.1561,-2.187,-2.2331,-2.3069,-2.3752,-2.4048,-2.4236,-2.4038,-2.419,-2.4509,-2.4844,-2.5011,-2.4566,-2.4484,-2.3965,-2.3168,-2.3083,-2.2775,-2.2479,-2.2723,-2.2555,-2.208,-2.1568,-2.1377,-2.1117,-2.083,-2.0604,-2.0399,-2.0399,-2.0281,-2.0151,-2.0118,-2.0118,-1.9976,-1.9747,-1.9407,-1.9208,-1.8942,-1.8741,-1.8707,-1.8836,-1.8951,-1.8945,-1.8762,-1.8164,-1.7768,-1.7557,-1.7017,-1.6709,-1.6498,-1.6552,-1.6495,-1.6477,-1.6402,-1.6402,-1.6462,-1.661,-1.6986,-1.7297,-1.7698,-1.8226,-1.8551,-1.8705,-1.8811,-1.9227,-1.9135,-1.8829,-1.8807,-1.8658,-1.8369,-1.8317,-1.8287,-1.8437,-1.8626,-1.8672,-1.7977,-1.9006,-1.9475,-1.9168,-1.8748,-1.8831,-1.8911,-1.8912,-1.8607,-1.8694,-1.8721,-1.8706,-1.8652,-1.8652,-1.8652,-1.8625,-1.8614,-1.8614,-1.8667,-1.896,-1.9186,-1.9396,-1.9448,-1.9448,-1.9382,-1.9368,-1.9394,-1.9322,-1.9003,-1.8844,-1.8758,-1.8846,-1.9108,-1.9321,-1.922,-1.9495,-2.0066,-2.028,-2.0352,-2.0591,-2.0894,-2.1053,-2.1321,-2.21,-2.2801,-2.3406,-2.358,-2.3211,-2.2998,-2.3141,-2.3483,-2.4999,-2.446,-2.4194,-2.3652,-2.3011,-2.2883,-2.252,-2.2202,-2.2752,-2.2639,-2.1905,-2.1446,-2.101,-2.0754,-2.0593,-2.041,-2.0248,-2.0216,-2.0151,-2.0118,-2.0118,-2.0118,-1.9955,-1.9605,-1.9198,-1.8965,-1.8596,-1.8226,-1.8056,-1.8337,-1.8388,-1.8403,-1.8537,-1.8506,-1.8077,-1.7307,-1.6627,-1.6142,-1.6019,-1.6066,-1.6163,-1.6116,-1.6087,-1.6087,-1.6087,-1.6379,-1.6807,-1.7144,-1.7644,-1.8124,-1.8474,-1.8525,-1.854,-1.8839,-1.8748,-1.844,-1.8575,-1.8553,-1.8431,-1.8416,-1.8386,-1.8396,-1.8554,-1.8501,-1.792,-1.8707,-1.8915,-1.8739,-1.8552,-1.8574,-1.8743,-1.8488,-1.8236,-1.8479,-1.856,-1.8518,-1.8491,-1.8464,-1.8437,-1.841,-1.8329,-1.829,-1.8356,-1.8437,-1.8652,-1.8854,-1.8881,-1.8907,-1.8919,-1.8893,-1.8972,-1.8999,-1.875,-1.8678,-1.862,-1.8636,-1.8652,-1.8852,-1.9065,-1.9354,-1.9657,-1.9669,-1.9786,-2.0003,-2.0207,-2.0421,-2.0771,-2.1261,-2.1749,-2.2198,-2.2316,-2.2204,-2.2038,-2.1892,-2.216,-2.4999,-2.446,-2.4167,-2.3625,-2.3003,-2.2607,-2.2238,-2.204,-2.2371,-2.2296,-2.1609,-2.119,-2.0818,-2.0464,-2.0302,-2.0237,-2.0151,-2.0118,-2.0118,-2.0085,-2.0053,-2.002,-1.9747,-1.9374,-1.8975,-1.8731,-1.8182,-1.7706,-1.774,-1.7794,-1.7808,-1.7901,-1.808,-1.8097,-1.7807,-1.7091,-1.6202,-1.5674,-1.5614,-1.5614,-1.5701,-1.5672,-1.573,-1.573,-1.5749,-1.6106,-1.6598,-1.7011,-1.7454,-1.792,-1.825,-1.8282,-1.8285,-1.8265,-1.8305,-1.8285,-1.8315,-1.8472,-1.8482,-1.8474,-1.8364,-1.8253,-1.8395,-1.8243,-1.8079,-1.8341,-1.8657,-1.8659,-1.8356,-1.8219,-1.8529,-1.8226,-1.8024,-1.8187,-1.8177,-1.8166,-1.8275,-1.8275,-1.822,-1.8205,-1.8139,-1.8111,-1.8045,-1.8139,-1.8329,-1.856,-1.8721,-1.8747,-1.8721,-1.8694,-1.8694,-1.8721,-1.8623,-1.8661,-1.8697,-1.8622,-1.857,-1.8708,-1.8909,-1.8984,-1.9172,-1.9158,-1.9237,-1.946,-1.9656,-1.9849,-2.0131,-2.0484,-2.0684,-2.0872,-2.0907,-2.0877,-2.093,-2.0818,-2.0962,-2.5011,-2.4508,-2.446,-2.3917,-2.2983,-2.2249,-2.1941,-2.1812,-2.1527,-2.1211,-2.0888,-2.0765,-2.0604,-2.0378,-2.0205,-2.0151,-2.0118,-2.0085,-2.0085,-2.0074,-1.9878,-1.978,-1.9506,-1.9142,-1.8751,-1.8438,-1.7988,-1.7647,-1.7681,-1.752,-1.7417,-1.7314,-1.7423,-1.733,-1.7048,-1.6176,-1.5465,-1.5144,-1.5303,-1.5303,-1.5235,-1.5206,-1.5274,-1.5332,-1.5332,-1.5684,-1.6138,-1.6713,-1.7129,-1.7606,-1.8068,-1.8257,-1.8345,-1.8345,-1.8398,-1.8398,-1.8408,-1.8448,-1.8462,-1.8486,-1.8318,-1.8142,-1.8357,-1.8294,-1.8099,-1.8273,-1.8619,-1.8639,-1.8551,-1.8416,-1.8312,-1.8089,-1.7851,-1.7734,-1.7745,-1.781,-1.792,-1.8111,-1.8084,-1.8002,-1.803,-1.8057,-1.7909,-1.7881,-1.8057,-1.8263,-1.8506,-1.8548,-1.8441,-1.8333,-1.8224,-1.8224,-1.8197,-1.8236,-1.8263,-1.8452,-1.8513,-1.8614,-1.8587,-1.8506,-1.856,-1.8587,-1.8694,-1.8919,-1.904,-1.9174,-1.941,-1.9657,-1.9781,-1.9834,-1.9549,-1.9496,-1.9607,-1.9764,-1.9941,-2.5216,-2.4988,-2.4548,-2.3965,-2.3296,-2.2577,-2.2036,-2.1561,-2.119,-2.0882,-2.0701,-2.0572,-2.0378,-2.0216,-2.0151,-2.0085,-2.0085,-1.9976,-1.9976,-2.0009,-1.9704,-1.9605,-1.9341,-1.8942,-1.8549,-1.8347,-1.793,-1.7554,-1.7554,-1.7314,-1.7116,-1.7012,-1.6975,-1.6782,-1.6434,-1.59,-1.5574,-1.5019,-1.4946,-1.4923,-1.4753,-1.4736,-1.4765,-1.4824,-1.4824,-1.5037,-1.5484,-1.6092,-1.666,-1.7093,-1.7545,-1.8046,-1.8144,-1.8144,-1.8178,-1.8178,-1.8144,-1.8144,-1.8178,-1.8158,-1.8263,-1.8251,-1.8342,-1.8368,-1.8345,-1.8405,-1.8596,-1.8603,-1.8418,-1.8194,-1.7905,-1.7546,-1.731,-1.7201,-1.72,-1.7368,-1.7496,-1.7826,-1.7936,-1.7865,-1.7865,-1.781,-1.7689,-1.7401,-1.7523,-1.7579,-1.776,-1.787,-1.7826,-1.765,-1.754,-1.7595,-1.7634,-1.7689,-1.7744,-1.7909,-1.7897,-1.7859,-1.7788,-1.7689,-1.7772,-1.7963,-1.8061,-1.8224,-1.836,-1.8509,-1.8833,-1.9042,-1.8871,-1.875,-1.8788,-1.8658,-1.8727,-1.884,-1.8936,-2.5276,-2.5182,-2.4788,-2.4197,-2.3516,-2.2723,-2.1931,-2.1215,-2.0955,-2.0743,-2.054,-2.0399,-2.027,-2.0118,-1.9987,-1.9944,-1.9911,-1.9714,-1.9638,-1.9714,-1.9341,-1.9175,-1.8975,-1.864,-1.8313,-1.811,-1.7735,-1.7392,-1.7382,-1.7072,-1.6899,-1.683,-1.6795,-1.6529,-1.6183,-1.5934,-1.5551,-1.4984,-1.4763,-1.4579,-1.4388,-1.427,-1.4261,-1.433,-1.4359,-1.4467,-1.4819,-1.5408,-1.6115,-1.6457,-1.7002,-1.7604,-1.7666,-1.7735,-1.7769,-1.7769,-1.7803,-1.7803,-1.7803,-1.7803,-1.792,-1.8022,-1.8245,-1.8313,-1.8313,-1.8303,-1.8313,-1.8257,-1.8115,-1.7906,-1.7631,-1.7257,-1.7183,-1.7095,-1.6945,-1.7127,-1.7149,-1.7445,-1.7484,-1.744,-1.7451,-1.7423,-1.7368,-1.7106,-1.6899,-1.6937,-1.6965,-1.705,-1.7162,-1.7106,-1.6994,-1.7078,-1.7134,-1.719,-1.7228,-1.7284,-1.7217,-1.7084,-1.7067,-1.705,-1.7207,-1.7457,-1.7484,-1.7556,-1.7804,-1.8066,-1.8344,-1.8479,-1.8491,-1.8511,-1.8535,-1.8332,-1.8001,-1.8146,-1.8425,-2.5206,-2.5064,-2.5052,-2.4437,-2.3525,-2.2492,-2.1606,-2.0744,-2.085,-2.0593,-2.0107,-2.027,-2.0172,-2.0009,-1.9747,-1.9583,-1.9539,-1.9274,-1.9208,-1.9075,-1.8875,-1.8707,-1.8482,-1.8187,-1.7974,-1.7691,-1.7407,-1.7279,-1.7166,-1.7003,-1.683,-1.6682,-1.6682,-1.6419,-1.6199,-1.5986,-1.5512,-1.4927,-1.4656,-1.4378,-1.4034,-1.3851,-1.3911,-1.3941,-1.4001,-1.4165,-1.4568,-1.5226,-1.5634,-1.6033,-1.6526,-1.684,-1.7047,-1.7263,-1.7279,-1.7314,-1.7392,-1.7505,-1.7539,-1.7529,-1.7573,-1.7701,-1.7872,-1.794,-1.7974,-1.8008,-1.7974,-1.8042,-1.7982,-1.7803,-1.7585,-1.7528,-1.7487,-1.7226,-1.6936,-1.6896,-1.6835,-1.6871,-1.6846,-1.6864,-1.6864,-1.6835,-1.6751,-1.6542,-1.6343,-1.6285,-1.6314,-1.6257,-1.64,-1.6705,-1.6609,-1.6637,-1.6694,-1.6751,-1.6751,-1.6694,-1.657,-1.6464,-1.6599,-1.6637,-1.6797,-1.6899,-1.6927,-1.7067,-1.7346,-1.7628,-1.7961,-1.8178,-1.8319,-1.8326,-1.8216,-1.8242,-1.7987,-1.8201,-1.8497,-2.4861,-2.419,-2.4284,-2.3525,-2.2306,-2.1728,-2.1103,-2.055,-2.0646,-2.0464,-1.9976,-1.9878,-1.9835,-1.9714,-1.9374,-1.9274,-1.9142,-1.9008,-1.8942,-1.8751,-1.8448,-1.8245,-1.8052,-1.7847,-1.7632,-1.7486,-1.7348,-1.7201,-1.7166,-1.7003,-1.6908,-1.683,-1.6647,-1.6438,-1.6263,-1.6113,-1.5466,-1.4931,-1.4698,-1.4259,-1.383,-1.3657,-1.3679,-1.3662,-1.37,-1.3878,-1.4338,-1.4934,-1.5373,-1.5809,-1.6469,-1.6855,-1.6943,-1.7012,-1.7012,-1.7072,-1.7254,-1.747,-1.7358,-1.7426,-1.7426,-1.7358,-1.7529,-1.7598,-1.7632,-1.7632,-1.7632,-1.7769,-1.7784,-1.7629,-1.7469,-1.7448,-1.731,-1.7018,-1.6787,-1.6708,-1.6632,-1.6463,-1.643,-1.6285,-1.6324,-1.6296,-1.6181,-1.6038,-1.5865,-1.5759,-1.5672,-1.5643,-1.5701,-1.599,-1.6134,-1.6163,-1.6181,-1.6181,-1.6124,-1.6095,-1.5941,-1.5845,-1.6028,-1.6153,-1.6181,-1.6257,-1.6343,-1.6542,-1.6814,-1.7207,-1.7595,-1.7763,-1.7874,-1.7871,-1.7808,-1.7934,-1.8097,-1.8287,-1.8561,-2.4319,-2.3849,-2.3711,-2.3156,-2.2388,-2.1808,-2.1328,-2.093,-2.0772,-2.0367,-1.9813,-1.9681,-1.9539,-1.9341,-1.9042,-1.8841,-1.8831,-1.8462,-1.8327,-1.8226,-1.8008,-1.7881,-1.771,-1.7529,-1.7426,-1.7314,-1.721,-1.7072,-1.7072,-1.6968,-1.6864,-1.676,-1.6577,-1.6412,-1.6228,-1.6,-1.5592,-1.5102,-1.4717,-1.4307,-1.3947,-1.3605,-1.3519,-1.3515,-1.3515,-1.375,-1.4101,-1.4745,-1.5136,-1.5469,-1.6094,-1.6298,-1.6272,-1.6272,-1.6482,-1.6517,-1.6621,-1.6726,-1.6716,-1.6839,-1.6908,-1.6978,-1.6978,-1.6908,-1.7116,-1.722,-1.7392,-1.7564,-1.7491,-1.7425,-1.7307,-1.7202,-1.6944,-1.6676,-1.6612,-1.6548,-1.6356,-1.6158,-1.5969,-1.5818,-1.5749,-1.5749,-1.5662,-1.5527,-1.541,-1.5352,-1.5323,-1.5274,-1.5264,-1.541,-1.5527,-1.5556,-1.5575,-1.5575,-1.5546,-1.5575,-1.5546,-1.5507,-1.5623,-1.5691,-1.5643,-1.5788,-1.6009,-1.6181,-1.6314,-1.6712,-1.7078,-1.7234,-1.7341,-1.7378,-1.7561,-1.78,-1.8073,-1.8351,-1.8669,-2.3518,-2.3562,-2.3193,-2.2921,-2.3129,-2.2296,-2.183,-2.1554,-2.0908,-2.027,-1.9723,-1.956,-1.933,-1.9008,-1.864,-1.8552,-1.845,-1.8125,-1.7964,-1.7735,-1.7598,-1.7505,-1.7392,-1.7279,-1.721,-1.7141,-1.7038,-1.6968,-1.6943,-1.6899,-1.6795,-1.6612,-1.6412,-1.6272,-1.614,-1.5929,-1.5626,-1.536,-1.4949,-1.4572,-1.4179,-1.3827,-1.3571,-1.3639,-1.3682,-1.3785,-1.4187,-1.4506,-1.4764,-1.5035,-1.5218,-1.5444,-1.5453,-1.5568,-1.5815,-1.5921,-1.6053,-1.6088,-1.6158,-1.6237,-1.6202,-1.6202,-1.6096,-1.6202,-1.6482,-1.6795,-1.7003,-1.7116,-1.7054,-1.707,-1.6992,-1.6989,-1.6846,-1.6731,-1.6725,-1.6587,-1.6403,-1.6069,-1.5672,-1.5497,-1.5342,-1.5313,-1.5332,-1.5234,-1.5336,-1.5162,-1.5168,-1.5166,-1.5091,-1.515,-1.5143,-1.5163,-1.5195,-1.5283,-1.5225,-1.5225,-1.5235,-1.5225,-1.5313,-1.5391,-1.5498,-1.5614,-1.574,-1.5904,-1.6066,-1.621,-1.6457,-1.6655,-1.6909,-1.7213,-1.7412,-1.772,-1.7993,-1.8215,-1.8652,-2.259,-2.1879,-2.1257,-2.1361,-2.1867,-2.1347,-2.1333,-2.1459,-2.0665,-2.0147,-1.9735,-1.9362,-1.9008,-1.865,-1.8313,-1.8262,-1.8355,-1.7934,-1.7868,-1.771,-1.7489,-1.7229,-1.7116,-1.7047,-1.7003,-1.6968,-1.6943,-1.6908,-1.6908,-1.6864,-1.6786,-1.6612,-1.6377,-1.6202,-1.6096,-1.5894,-1.5667,-1.5514,-1.5146,-1.4864,-1.4565,-1.4281,-1.405,-1.4153,-1.423,-1.4283,-1.4533,-1.4579,-1.4934,-1.5261,-1.5255,-1.5267,-1.5232,-1.539,-1.5417,-1.5453,-1.5586,-1.5621,-1.5665,-1.5744,-1.5815,-1.5842,-1.5842,-1.5877,-1.6017,-1.6307,-1.6482,-1.6551,-1.6621,-1.6647,-1.6673,-1.6698,-1.6731,-1.672,-1.679,-1.6604,-1.6439,-1.593,-1.5432,-1.5196,-1.5007,-1.4998,-1.5045,-1.5098,-1.5196,-1.5318,-1.5497,-1.5512,-1.5327,-1.5266,-1.5193,-1.5179,-1.5075,-1.5086,-1.5056,-1.5065,-1.5142,-1.5125,-1.5215,-1.5254,-1.5323,-1.5478,-1.5624,-1.574,-1.5875,-1.599,-1.6048,-1.6077,-1.6381,-1.6768,-1.7022,-1.7179,-1.7512,-1.7794,-1.8357,-2.1664,-2.1396,-2.0899,-2.1225,-2.1955,-2.1469,-2.1463,-2.1693,-2.1151,-2.0481,-1.9821,-1.9363,-1.8853,-1.8353,-1.8086,-1.8037,-1.8191,-1.7806,-1.7624,-1.7518,-1.7362,-1.7093,-1.6943,-1.6917,-1.6908,-1.6908,-1.6908,-1.6908,-1.6864,-1.6786,-1.6682,-1.6577,-1.6377,-1.6132,-1.6026,-1.5832,-1.5655,-1.5621,-1.5239,-1.501,-1.4816,-1.4562,-1.4323,-1.4416,-1.4402,-1.4504,-1.4656,-1.4664,-1.4862,-1.5056,-1.5018,-1.4919,-1.4919,-1.4999,-1.4991,-1.4991,-1.5098,-1.5248,-1.5284,-1.5355,-1.5417,-1.5453,-1.5417,-1.5355,-1.5355,-1.5603,-1.5842,-1.5912,-1.5991,-1.6017,-1.6017,-1.6053,-1.6044,-1.6079,-1.6336,-1.6421,-1.6208,-1.5841,-1.5442,-1.512,-1.5018,-1.5058,-1.5095,-1.5074,-1.5216,-1.5494,-1.5684,-1.5619,-1.5492,-1.5469,-1.5355,-1.5252,-1.522,-1.5256,-1.5386,-1.5296,-1.5209,-1.5166,-1.5064,-1.5126,-1.5215,-1.5362,-1.5478,-1.5469,-1.5546,-1.573,-1.5759,-1.573,-1.5885,-1.6278,-1.6438,-1.6552,-1.6937,-1.729,-1.7705,-2.0963,-2.1538,-2.1178,-2.1681,-2.2621,-2.1955,-2.185,-2.212,-2.1723,-2.0938,-2.0036,-1.953,-1.8824,-1.8247,-1.7974,-1.7866,-1.7749,-1.7577,-1.7405,-1.7341,-1.7068,-1.7044,-1.7009,-1.6945,-1.6917,-1.6908,-1.6908,-1.6908,-1.6908,-1.6726,-1.6542,-1.6473,-1.6272,-1.5991,-1.5894,-1.5718,-1.5461,-1.5376,-1.5146,-1.5,-1.4861,-1.4738,-1.4589,-1.443,-1.4322,-1.4412,-1.4635,-1.4724,-1.4768,-1.4782,-1.4792,-1.4713,-1.4677,-1.4713,-1.4713,-1.4713,-1.4713,-1.482,-1.4864,-1.4935,-1.4927,-1.4892,-1.4864,-1.4872,-1.49,-1.5007,-1.5248,-1.5355,-1.539,-1.547,-1.547,-1.547,-1.5461,-1.5594,-1.5957,-1.6208,-1.5936,-1.5728,-1.5464,-1.5136,-1.5113,-1.5122,-1.5153,-1.5131,-1.5373,-1.5638,-1.5701,-1.5595,-1.5542,-1.5644,-1.5659,-1.5546,-1.5465,-1.5568,-1.5542,-1.5387,-1.5135,-1.5038,-1.4969,-1.5033,-1.5078,-1.5059,-1.5049,-1.504,-1.5157,-1.5225,-1.5371,-1.543,-1.5614,-1.5798,-1.6,-1.6163,-1.6363,-1.6722,-1.692,-2.1058,-2.1156,-2.0721,-2.1152,-2.1889,-2.1459,-2.1484,-2.1721,-2.107,-2.0562,-2.0266,-1.9861,-1.9157,-1.8018,-1.7818,-1.7768,-1.789,-1.7559,-1.7561,-1.7597,-1.7088,-1.7154,-1.7202,-1.7101,-1.6945,-1.6927,-1.6901,-1.6892,-1.6915,-1.6606,-1.6281,-1.6211,-1.5866,-1.5601,-1.5382,-1.5292,-1.5281,-1.5215,-1.5155,-1.5043,-1.5004,-1.4942,-1.4892,-1.481,-1.4768,-1.4866,-1.4905,-1.4661,-1.4695,-1.4743,-1.4721,-1.4605,-1.4569,-1.4533,-1.4525,-1.4497,-1.4533,-1.4569,-1.4605,-1.4641,-1.4641,-1.4641,-1.4649,-1.4641,-1.4641,-1.4677,-1.482,-1.4892,-1.4971,-1.515,-1.515,-1.5043,-1.5078,-1.539,-1.5745,-1.5748,-1.5616,-1.5602,-1.5457,-1.529,-1.5194,-1.5235,-1.5285,-1.5393,-1.5659,-1.5869,-1.6008,-1.5888,-1.5652,-1.5767,-1.5848,-1.5711,-1.5565,-1.537,-1.514,-1.5127,-1.4971,-1.4881,-1.4767,-1.4741,-1.4687,-1.4636,-1.4617,-1.4617,-1.4567,-1.4577,-1.4754,-1.499,-1.5196,-1.5371,-1.5643,-1.5817,-1.599,-1.6134,-1.6353]},{"header":{"parameterUnit":"m.s-1","parameterCategory":1,"la1":31.0,"la2":29.5877,"lo1":-88.7671,"lo2":-86.6584,"dy":0.0162,"dx":0.0185,"nx":115,"ny":88,"refTime":"2023-04-17T12:00:00:Z","depth":0,"parameterNumber":3,"parameterNumberName":"V-component_of_WINDS"},"data":[0.0,0.0,0.0,0.0,0.0,0.0,0.0,0.0,0.0,0.0,0.0,0.0,0.0,0.0,0.0,0.0,0.0,0.0,0.0,0.0,0.0,0.0,0.0,0.0,0.0,0.0,0.0,0.0,0.0,0.0,0.0,0.0,0.0,0.0,0.0,0.0,0.0,0.0,0.0,0.0,0.0,0.0,0.0,0.0,0.0,0.0,0.0,0.0,0.0,0.0,0.0,0.0,0.0,0.0,0.0,0.0,0.0,0.0,0.0,0.0,0.0,0.0,0.0,0.0,0.0,0.0,0.0,0.0,0.0,0.0,0.0,0.0,0.0,0.0,0.0,0.0,0.0,0.0,0.0,0.0,0.0,0.0,0.0,0.0,0.0,0.0,0.0,0.0,0.0,0.0,0.0,0.0,0.0,0.0,0.0,0.0,0.0,0.0,0.0,0.0,0.0,0.0,0.0,0.0,0.0,0.0,0.0,0.0,0.0,0.0,0.0,0.0,0.0,0.0,0.0,0.0,0.0,0.0,0.0,0.0,0.0,0.0,0.0,0.0,0.0,0.0,0.0,0.0,0.0,0.0,0.0,0.0,0.0,0.0,0.0,0.0,0.0,0.0,0.0,0.0,0.0,0.0,0.0,0.0,0.0,0.0,0.0,0.0,0.0,0.0,0.0,0.0,0.0,0.0,0.0,0.0,0.0,0.0,0.0,0.0,0.0,0.0,0.0,0.0,0.0,0.0,0.0,0.0,0.0,0.0,0.0,0.0,0.0,0.0,0.0,0.0,0.0,0.0,0.0,0.0,0.0,0.0,0.0,0.0,0.0,0.0,0.0,0.0,0.0,0.0,0.0,0.0,0.0,0.0,0.0,0.0,0.0,0.0,0.0,0.0,0.0,0.0,0.0,0.0,0.0,0.0,0.0,0.0,0.0,0.0,0.0,0.0,0.0,0.0,0.0,0.0,0.0,0.0,0.0,0.0,0.0,0.0,0.0,0.0,0.0,0.0,0.0,0.0,0.0,0.0,0.0,0.0,0.0,0.0,0.0,0.0,0.0,0.0,0.0,0.0,0.0,0.0,0.0,0.0,0.0,0.0,0.0,0.0,0.0,0.0,0.0,0.0,0.0,0.0,0.0,0.0,0.0,0.0,0.0,0.0,0.0,0.0,0.0,0.0,0.0,0.0,0.0,0.0,0.0,0.0,0.0,0.0,0.0,0.0,0.0,0.0,0.0,0.0,0.0,0.0,0.0,0.0,0.0,0.0,0.0,0.0,0.0,0.0,0.0,0.0,0.0,0.0,0.0,0.0,0.0,0.0,0.0,0.0,0.0,0.0,0.0,0.0,0.0,0.0,0.0,0.0,0.0,0.0,0.0,0.0,0.0,0.0,0.0,0.0,0.0,0.0,0.0,0.0,0.0,0.0,0.0,0.0,0.0,0.0,0.0,0.0,0.0,0.0,0.0,0.0,0.0,0.0,0.0,0.0,0.0,0.0,0.0,0.0,0.0,0.0,0.0,0.0,0.0,0.0,0.0,0.0,0.0,0.0,0.0,0.0,0.0,0.0,0.0,0.0,0.0,0.0,0.0,0.0,0.0,0.0,0.0,0.0,0.0,0.0,0.0,0.0,0.0,0.0,0.0,0.0,0.0,0.0,0.0,0.0,0.0,0.0,0.0,0.0,0.0,0.0,0.0,0.0,0.0,0.0,0.0,0.0,0.0,0.0,0.0,0.0,0.0,0.0,0.0,0.0,0.0,0.0,0.0,0.0,0.0,0.0,0.0,0.0,0.0,0.0,0.0,0.0,0.0,0.0,0.0,0.0,0.0,0.0,0.0,0.0,0.0,0.0,0.0,0.0,0.0,0.0,0.0,0.0,0.0,0.0,0.0,0.0,0.0,0.0,0.0,0.0,0.0,0.0,0.0,0.0,0.0,0.0,0.0,0.0,0.0,0.0,0.0,0.0,0.0,0.0,0.0,0.0,0.0,0.0,0.0,0.0,0.0,0.0,0.0,0.0,0.0,0.0,0.0,0.0,0.0,0.0,0.0,0.0,0.0,0.0,0.0,0.0,0.0,0.0,0.0,0.0,0.0,0.0,0.0,0.0,0.0,0.0,0.0,0.0,0.0,0.0,0.0,0.0,0.0,0.0,0.0,0.0,0.0,0.0,0.0,0.0,0.0,0.0,0.0,0.0,0.0,0.0,0.0,0.0,0.0,0.0,0.0,0.0,0.0,0.0,0.0,0.0,0.0,0.0,0.0,0.0,0.0,0.0,0.0,0.0,0.0,0.0,0.0,0.0,0.0,0.0,0.0,0.0,0.0,0.0,0.0,0.0,0.0,0.0,0.0,0.0,0.0,0.0,0.0,0.0,0.0,0.0,0.0,0.0,0.0,0.0,0.0,0.0,0.0,0.0,0.0,0.0,0.0,0.0,0.0,0.0,0.0,0.0,0.0,0.0,0.0,0.0,0.0,0.0,0.0,0.0,0.0,0.0,0.0,0.0,0.0,0.0,0.0,0.0,0.0,0.0,0.0,0.0,0.0,0.0,0.0,0.0,0.0,0.0,0.0,0.0,0.0,0.0,0.0,0.0,0.0,0.0,0.0,0.0,0.0,0.0,0.0,0.0,0.0,0.0,0.0,0.0,0.0,0.0,0.0,0.0,0.0,0.0,0.0,0.0,0.0,0.0,0.0,0.0,0.0,0.0,0.0,0.0,0.0,0.0,0.0,0.0,0.0,0.0,0.0,0.0,0.0,0.0,0.0,0.0,0.0,0.0,0.0,0.0,0.0,0.0,0.0,0.0,0.0,0.0,0.0,0.0,0.0,0.0,0.0,0.0,0.0,0.0,0.0,0.0,0.0,0.0,0.0,0.0,0.0,0.0,0.0,0.0,0.0,0.0,0.0,0.0,0.0,0.0,0.0,0.0,0.0,0.0,0.0,0.0,0.0,0.0,0.0,0.0,0.0,0.0,0.0,0.0,0.0,0.0,0.0,0.0,0.0,0.0,0.0,0.0,0.0,0.0,0.0,0.0,0.0,0.0,0.0,0.0,0.0,0.0,0.0,0.0,0.0,0.0,0.0,0.0,0.0,0.0,0.0,0.0,0.0,0.0,0.0,0.0,0.0,0.0,0.0,0.0,0.0,0.0,0.0,0.0,0.0,0.0,0.0,0.0,0.0,0.0,0.0,0.0,0.0,0.0,0.0,0.0,0.0,0.0,0.0,0.0,0.0,0.0,0.0,0.0,0.0,0.0,0.0,0.0,0.0,0.0,0.0,0.0,0.0,0.0,0.0,0.0,0.0,0.0,0.0,0.0,0.0,0.0,0.0,0.0,0.0,0.0,0.0,0.0,0.0,0.0,0.0,0.0,0.0,0.0,0.0,0.0,0.0,0.0,0.0,0.0,0.0,0.0,0.0,0.0,0.0,0.0,0.0,0.0,0.0,0.0,0.0,0.0,0.0,0.0,0.0,0.0,0.0,0.0,0.0,0.0,0.0,0.0,0.0,0.0,0.0,0.0,0.0,0.0,0.0,0.0,0.0,0.0,0.0,0.0,0.0,0.0,0.0,0.0,0.0,0.0,0.0,0.0,0.0,0.0,0.0,0.0,0.0,0.0,0.0,0.0,0.0,0.0,0.0,0.0,0.0,0.0,0.0,0.0,0.0,0.0,0.0,0.0,0.0,0.0,0.0,0.0,0.0,0.0,0.0,0.0,0.0,0.0,0.0,0.0,0.0,0.0,0.0,0.0,0.0,0.0,0.0,0.0,0.0,0.0,0.0,0.0,0.0,0.0,0.0,0.0,0.0,0.0,0.0,0.0,0.0,0.0,0.0,0.0,0.0,0.0,0.0,0.0,0.0,0.0,0.0,0.0,0.0,0.0,0.0,0.0,0.0,0.0,0.0,0.0,0.0,0.0,0.0,0.0,0.0,0.0,0.0,0.0,0.0,0.0,0.0,0.0,0.0,0.0,0.0,0.0,0.0,0.0,0.0,0.0,0.0,0.0,0.0,0.0,0.0,0.0,0.0,0.0,0.0,0.0,0.0,0.0,0.0,0.0,0.0,0.0,0.0,0.0,0.0,0.0,0.0,0.0,0.0,0.0,0.0,0.0,0.0,0.0,0.0,0.0,0.0,0.0,0.0,0.0,0.0,0.0,0.0,0.0,0.0,0.0,0.0,0.0,0.0,0.0,0.0,0.0,0.0,0.0,0.0,0.0,0.0,0.0,0.0,0.0,0.0,0.0,0.0,0.0,0.0,0.0,0.0,0.0,0.0,0.0,-0.3548,0.0,0.0,0.0,0.0,0.0,0.0,0.0,0.0,0.0,0.0,0.0,0.0,0.0,0.0,0.0,0.0,0.0,0.0,0.0,0.0,0.0,0.0,0.0,0.0,0.0,0.0,0.0,0.0,0.0,0.0,0.0,0.0,0.0,0.0,0.0,0.0,0.0,0.0,0.0,0.0,0.0,0.0,0.0,0.0,0.0,0.0,0.0,0.0,0.0,0.0,0.0,0.0,0.0,0.0,0.0,0.0,0.0,0.0,0.0,0.0,0.0,0.0,0.0,0.0,0.0,0.0,0.0,0.0,0.0,0.0,0.0,0.0,0.0,0.0,0.0,0.0,0.0,0.0,0.0,0.0,0.0,0.0,0.0,0.0,0.0,0.0,0.0,0.0,0.0,0.0,0.0,0.0,0.0,0.0,0.0,0.0,0.0,0.0,0.0,0.0,0.0,0.0,0.0,0.0,0.0,0.0,0.0,0.0,0.0,0.0,-0.0179,-0.0687,-0.1987,-0.3043,-0.3805,0.0,0.0,0.0,0.0,0.0,0.0,0.0,0.0,0.0,0.0,0.0,0.0,0.0,0.0,0.0,0.0,0.0,0.0,0.0,0.0,0.0,0.0,0.0,0.0,0.0,0.0,0.0,0.0,0.0,0.0,0.0,0.0,0.0,0.0,0.0,0.0,0.0,0.0,0.0,0.0,0.0,0.0,0.0,0.0,0.0,0.0,0.0,0.0,0.0,0.0,0.0,0.0,0.0,0.0,0.0,0.0,0.0,0.0,0.0,0.0,0.0,0.0,0.0,0.0,0.0,0.0,0.0,0.0,0.0,0.0,0.0,0.0,0.0,0.0,0.0,0.0,0.0,0.0,0.0,0.0,0.0,0.0,0.0,0.0,0.0,0.0,0.0,0.0,0.0,0.0,0.0,0.0,0.0,0.0,0.0,0.0,0.0,0.0,0.0,0.0,0.0,0.0,0.0,0.0,0.0,0.0,0.0,0.0,0.0,0.0,0.0,0.0,-0.2109,-0.3283,-0.4222,0.0,0.0,0.0,0.0,0.0,0.0,0.0,0.0,0.0,0.0,0.0,0.0,0.0,0.0,0.0,0.0,0.0,0.0,0.0,0.0,0.0,0.0,0.0,0.0,0.0,0.0,0.0,0.0,0.0,0.0,0.0,0.0,0.0,0.0,0.0,0.0,0.0,0.0,0.0,0.0,0.0,0.0,0.0,0.0,0.0,0.0,0.0,0.0,0.0,0.0,0.0,0.0,0.0,0.0,0.0,0.0,0.0,0.0,0.0,0.0,0.0,0.0,0.0,0.0,0.0,0.0,0.0,0.0,0.0,0.0,0.0,0.0,0.0,0.0,0.0,0.0,0.0,0.0,0.0,0.0,0.0,0.0,0.0,0.0,0.0,0.0,0.0,0.0,0.0,0.0,0.0,0.0,0.0,0.0,0.0,0.0,0.0,0.0,0.0,0.0,0.0,0.0,0.0,0.0,0.0,0.0,0.0,0.0,0.0,0.0,0.0408,-0.0579,-0.1712,0.0,-0.488,0.0,0.0,0.0,0.0,0.0,0.0,0.0,0.0,0.0,0.0,0.0,0.0,0.0,0.0,0.0,0.0,0.0,0.0,0.0,0.0,0.0,0.0,0.0,0.0,0.0,0.0,0.0,0.0,0.0,0.0,0.0,0.0,0.0,0.0,0.0,0.0,0.0,0.0,0.0,0.0,0.0,0.0,0.0,0.0,0.0,0.0,0.0,0.0,0.0,0.0,0.0,0.0,0.0,0.0,0.0,0.0,0.0,0.0,0.0,0.0,0.0,0.0,0.0,0.0,0.0,0.0,0.0,0.0,0.0,0.0,0.0,0.0,0.0,0.0,0.0,0.0,0.0,0.0,0.0,0.0,0.0,0.0,0.0,0.0,0.0,0.0,0.0,0.0,0.0,0.0,0.0,0.0,0.0,0.0,0.0,0.0,0.0,0.0,0.0,0.0,0.0,0.0,0.0,0.0,0.0,0.0,0.0,0.0,0.0,0.0,0.041,-0.0861,-0.2815,-0.4373,0.0,0.0,0.0,0.0,0.0,0.0,0.0,0.0,0.0,0.0,0.0,0.0,0.0,0.0,0.0,0.0,0.0,0.0,0.0,0.0,0.0,0.0,0.0,0.0,0.0,0.0,0.0,0.0,0.0,0.0,0.0,0.0,0.0,0.0,0.0,0.0,0.0,0.0,0.0,0.0,0.0,0.0,0.0,0.0,0.0,0.0,0.0,0.0,0.0,0.0,0.0,0.0,0.0,0.0,0.0,0.0,0.0,0.0,0.0,0.0,0.0,0.0,0.0,0.0,0.0,0.0,0.0,0.0,0.0,0.0,0.0,0.0,0.0,0.0,0.0,0.0,0.0,0.0,0.0,0.0,0.0,0.0,0.0,0.0,0.0,0.0,0.0,0.0,0.0,0.0,0.0,0.0,0.0,0.0,0.0,0.0,0.0,0.0,0.0,0.0,0.0,0.0,0.0,0.0,0.0,0.0,0.0,0.0,0.0,0.0,0.1821,0.0191,-0.1709,-0.3908,-0.539,-0.6034,0.0,0.0,0.0,0.0,0.0,0.0,0.0,0.0,0.0,0.0,0.0,0.0,0.0,0.0,0.0,0.0,0.0,0.0,0.0,0.0,0.0,0.0,0.0,0.0,0.0,0.0,0.0,0.0,0.0,0.0,0.0,0.0,0.0,0.0,0.0,0.0,0.0,0.0,0.0,0.0,0.0,0.0,0.0,0.0,0.0,0.0,0.0,0.0,0.0,0.0,0.0,0.0,0.0,0.0,0.0,0.0,0.0,0.0,0.0,0.0,0.0,0.0,0.0,0.0,0.0,0.0,0.0,0.0,0.0,0.0,0.0,0.0,0.0,0.0,0.0,0.0,0.0,0.0,0.0,0.0,0.0,0.0,0.0,0.0,0.0,0.0,0.0,0.0,0.0,0.0,0.0,0.0,0.0,0.0,0.0,0.0,0.0,0.0,0.0,0.0,0.0,0.0,0.0,0.0,0.0,0.0,0.0,0.0,0.3569,0.2093,-0.0204,-0.329,-0.4639,-0.572,0.0,0.0,0.0,0.0,0.0,0.0,0.0,0.0,0.0,0.0,0.0,0.0,0.0,0.0,0.0,0.0,0.0,0.0,0.0,0.0,0.0,0.0,0.0,0.0,0.0,0.0,0.0,0.0,0.0,0.0,0.0,0.0,0.0,0.0,0.0,0.0,0.0,0.0,0.0,0.0,0.0,0.0,0.0,0.0,0.0,0.0,0.0,0.0,0.0,0.0,0.0,0.0,0.0,0.0,0.0,0.0,0.0,0.0,0.0,0.0,0.0,0.0,0.0,0.0,0.0,0.0,0.0,0.0,0.0,0.0,0.0,0.0,0.0,0.0,0.0,0.0,0.0,0.0,0.0,0.0,0.0,0.0,0.0,0.0,0.0,0.0,0.0,0.0,0.0,0.0,0.0,0.0,0.0,0.0,0.0,0.0,0.0,0.0,0.0,0.0,0.0,0.0,0.0,0.0,0.0,0.0,0.0,0.0,0.0,0.3221,0.1084,-0.1401,-0.4095,-0.5046,-0.6069,0.0,0.0,0.0,0.0,0.0,0.0,0.0,0.0,0.0,0.0,0.0,0.0,0.0,0.0,0.0,0.0,0.0,0.0,0.0,0.0,0.0,0.0,0.0,0.0,0.0,0.0,0.0,0.0,0.0,0.0,0.0,0.0,0.0,0.0,0.0,0.0,0.0,0.0,0.0,0.0,0.0,0.0,0.0,0.0,0.0,0.0,0.0,0.0,0.0,0.0,0.0,0.0,0.0,0.0,0.0,0.0,0.0,0.0,0.0,0.0,0.0,0.0,0.0,0.0,0.0,0.0,0.0,0.0,0.0,0.0,0.0,0.0,0.0,0.0,0.0,0.0,0.0,0.0,0.0,0.0,0.0,0.0,0.0,0.0,0.0,0.0,0.0,0.0,0.0,0.0,0.0,0.0,0.0,0.0,0.0,0.0,0.0,0.0,0.0,0.0,0.0,0.0,0.0,0.0,0.0,0.0,0.0,0.0,0.0,0.2161,0.0,-0.2192,-0.4747,-0.5398,-0.6311,0.0,0.0,0.0,0.0,0.0,0.0,0.0,0.0,0.0,0.0,0.0,0.0,0.0,0.0,0.0,0.0,0.0,0.0,0.0,0.0,0.0,0.0,0.0,0.0,0.0,0.0,0.0,0.0,0.0,0.0,0.0,0.0,0.0,0.0,0.0,0.0,0.0,0.0,0.0,0.0,0.0,0.0,0.0,0.0,0.0,0.0,0.0,0.0,0.0,0.0,0.0,0.0,0.0,0.0,0.0,0.0,0.0,0.0,0.0,0.0,0.0,0.0,0.0,0.0,0.0,0.0,0.0,0.0,0.0,0.0,0.0,0.0,0.0,0.0,0.0,0.0,0.0,0.0,0.0,0.0,0.0,0.0,0.0,0.0,0.0,0.0,0.0,0.0,0.0,0.0,0.0,0.0,0.0,0.0,0.0,0.0,0.0,0.0,0.0,0.0,0.0,0.0,0.0,0.0,0.0,0.0,0.0,0.0,0.262,0.0429,-0.0484,-0.2398,-0.528,-0.5689,-0.6522,0.0,0.0,0.0,0.0,0.0,0.0,0.0,0.0,0.0,0.0,0.0,0.0,0.0,0.0,0.0,0.0,0.0,0.0,0.0,0.0,0.0,0.0,0.0,0.0,0.0,0.0,0.0,0.0,0.0,0.0,0.0,0.0,0.0,0.0,0.0,0.0,0.0,0.0,0.0,0.0,0.0,0.0,0.0,0.0,0.0,0.0,0.0,0.0,0.0,0.0,0.0,0.0,0.0,0.0,0.0,0.0,0.0,0.0,0.0,0.0,0.0,0.0,0.0,0.0,0.0,0.0,0.0,0.0,0.0,0.0,0.0,0.0,0.0,0.0,0.0,0.0,0.0,0.0,0.0,0.0,0.0,0.0,0.0,0.0,0.0,0.0,0.0,0.0,0.0,0.0,0.0,0.0,0.0,0.0,0.0,0.0,0.0,0.0,0.0,0.0,0.0,0.0,0.0,0.0,0.0,0.0,0.0,0.0,0.0,0.0,-0.1142,-0.3358,-0.6578,-0.6585,-0.7337,0.0,0.0,0.0,0.0,0.0,0.0,0.0,0.0,0.0,0.0,0.0,0.0,0.0,0.0,0.0,0.0,0.0,0.0,0.0,0.0,0.0,0.0,0.0,0.0,0.0,0.0,0.0,0.0,0.0,0.0,0.0,0.0,0.0,0.0,0.0,0.0,0.0,0.0,0.0,0.0,0.0,0.0,0.0,0.0,0.0,0.0,0.0,0.0,0.0,0.0,0.0,0.0,0.0,0.0,0.0,0.0,0.0,0.0,0.0,0.0,0.0,0.0,0.0,0.0,0.0,0.0,0.0,0.0,0.0,0.0,0.0,0.0,0.0,0.0,0.0,0.0,0.0,0.0,0.0,0.0,0.0,0.0,0.0,0.0,0.0,0.0,0.0,0.0,0.0,0.0,0.0,0.0,0.0,0.0,0.0,0.0,0.0,0.0,0.0,0.0,0.0,0.0,0.0,0.0,0.0,0.0,0.0,0.0,0.0,-0.0498,-0.1797,-0.4027,-0.7305,-0.699,-0.7622,-0.9459,0.0,0.0,0.0,0.0,0.0,0.0,0.0,0.0,0.0,0.0,0.0,0.0,0.0,0.0,0.0,0.0,0.0,0.0,0.0,0.0,0.0,0.0,0.0,0.0,0.0,0.0,0.0,0.0,0.0,0.0,0.0,0.0,0.0,0.0,0.0,0.0,0.0,0.0,0.0,0.0,0.0,0.0,0.0,0.0,0.0,0.0,0.0,0.0,0.0,0.0,0.0,0.0,0.0,0.0,0.0,0.0,0.0,0.0,0.0,0.0,0.0,0.0,0.0,0.0,0.0,0.0,0.0,0.0,0.0,0.0,0.0,0.0,0.0,0.0,0.0,0.0,0.0,0.0,0.0,0.0,0.0,0.0,0.0,0.0,0.0,0.0,0.0,0.0,0.0,0.0,0.0,0.0,0.0,0.0,0.0,0.0,0.0,0.0,0.0,0.0,0.0,0.0,0.0,0.0,0.0,0.0,0.0,0.0,-0.1127,-0.2489,-0.4576,-0.7354,-0.7034,-0.7573,0.0,0.0,0.0,0.0,0.0,0.0,0.0,0.0,0.0,0.0,0.0,0.0,0.0,0.0,0.0,0.0,0.0,0.0,0.0,0.0,0.0,0.0,0.0,0.0,0.0,0.0,0.0,0.0,0.0,0.0,0.0,0.0,0.0,0.0,0.0,0.0,0.0,0.0,0.0,0.0,0.0,0.0,0.0,0.0,0.0,0.0,0.0,0.0,0.0,0.0,0.0,0.0,0.0,0.0,0.0,0.0,0.0,0.0,0.0,0.0,0.0,0.0,0.0,0.0,0.0,0.0,0.0,0.0,0.0,0.0,0.0,0.0,0.0,0.0,0.0,0.0,0.0,0.0,0.0,0.0,0.0,0.0,0.0,0.0,0.0,0.0,0.0,0.0,0.0,0.0,0.0,0.0,0.0,0.0,0.0,0.0,0.0,0.0,0.0,0.0,0.0,0.0,0.0,0.0,0.0,0.0,0.0,0.0,0.0,-0.1629,-0.3915,-0.6143,-0.8179,-0.7965,-0.8537,0.0,0.0,0.0,0.0,0.0,0.0,0.0,0.0,0.0,0.0,0.0,0.0,0.0,0.0,0.0,0.0,0.0,0.0,0.0,0.0,0.0,0.0,0.0,0.0,0.0,0.0,0.0,0.0,0.0,0.0,0.0,0.0,0.0,0.0,0.0,0.0,0.0,0.0,0.0,0.0,0.0,0.0,0.0,0.0,0.0,0.0,0.0,0.0,0.0,0.0,0.0,0.0,0.0,0.0,0.0,0.0,0.0,0.0,0.0,0.0,0.0,0.0,0.0,0.0,0.0,0.0,0.0,0.0,0.0,0.0,0.0,0.0,0.0,0.0,0.0,0.0,0.0,0.0,0.0,0.0,0.0,0.0,0.0,0.0,0.0,0.0,0.0,0.0,0.0,0.0,0.0,0.0,0.0,0.0,0.0,0.0,0.0,0.0,0.0,0.0,0.0,0.0,0.0,0.0,0.0,0.0,0.0,0.0,-0.0395,-0.1774,-0.4614,-0.6816,-0.8335,-0.8455,-0.9034,0.0,0.0,0.0,0.0,0.0,0.0,0.0,0.0,0.0,0.0,0.0,0.0,0.0,0.0,0.0,0.0,0.0,0.0,0.0,0.0,0.0,0.0,0.0,0.0,0.0,0.0,0.0,0.0,0.0,0.0,0.0,0.0,0.0,0.0,0.0,0.0,0.0,0.0,0.0,0.0,0.0,0.0,0.0,0.0,0.0,0.0,0.0,0.0,0.0,0.0,0.0,0.0,0.0,0.0,0.0,0.0,0.0,0.0,0.0,0.0,0.0,0.0,0.0,0.0,0.0,0.0,0.0,0.0,0.0,0.0,0.0,0.0,0.0,0.0,0.0,0.0,0.0,0.0,0.0,0.0,0.0,0.0,0.0,0.0,0.0,0.0,0.0,0.0,0.0,0.0,0.0,0.0,0.0,0.0,0.0,0.0,0.0,0.0,0.0,0.0,0.0,0.0,0.0,0.0,0.0,0.0,0.0,0.0,-0.0179,-0.1753,-0.4822,-0.6901,-0.7941,-0.8672,-0.9239,0.0,0.0,0.0,0.0,0.0,0.0,0.0,0.0,0.0,0.0,0.0,0.0,0.0,0.0,0.0,0.0,0.0,0.0,0.0,0.0,0.0,0.0,0.0,0.0,0.0,0.0,0.0,0.0,0.0,0.0,0.0,0.0,0.0,0.0,0.0,0.0,0.0,0.0,0.0,0.0,0.0,0.0,0.0,0.0,0.0,0.0,0.0,0.0,0.0,0.0,0.0,0.0,0.0,0.0,0.0,0.0,0.0,0.0,0.0,0.0,0.0,0.0,0.0,0.0,0.0,0.0,0.0,0.0,0.0,0.0,0.0,0.0,0.0,0.0,0.0,0.0,0.0,0.0,0.0,0.0,0.0,0.0,0.0,0.0,0.0,0.0,0.0,0.0,0.0,0.0,0.0,0.0,0.0,0.0,0.0,0.0,0.0,0.0,0.0,0.0,0.0,0.0,0.0,0.0,0.0,0.0,0.0,0.0,-0.0355,-0.1375,-0.4793,-0.697,-0.7602,-0.8776,-0.9463,0.0,0.0,0.0,0.0,0.0,0.0,0.0,0.0,0.0,0.0,0.0,0.0,0.0,0.0,0.0,0.0,0.0,0.0,0.0,0.0,0.0,0.0,0.0,0.0,0.0,0.0,0.0,0.0,0.0,0.0,0.0,0.0,0.0,0.0,0.0,0.0,0.0,0.0,0.0,0.0,0.0,0.0,0.0,0.0,0.0,0.0,0.0,0.0,-0.3596,0.0,0.0,0.0,0.0,0.0,0.0,0.0,0.0,0.0,0.0,0.0,0.0,0.0,0.0,0.0,0.0,0.0,0.0,0.0,0.0,0.0,0.0,0.0,0.0,0.0,0.0,0.0,0.0,0.0,0.0,0.0,0.0,0.0,0.0,0.0,0.0,0.0,0.0,0.0,0.0,0.0,0.0,0.0,0.0,0.0,0.0,0.0,0.0,0.0,0.0,0.0,0.0,0.0,0.0,0.0,0.0,0.0,0.0,0.0,-0.0442,-0.1476,-0.4643,-0.6714,-0.7553,-0.8867,-0.9544,0.0,0.0,0.0,0.0,0.0,0.0,0.0,0.0,0.0,0.0,0.0,0.0,0.0,0.0,0.0,0.0,0.0,0.0,0.0,0.0,0.0,0.0,0.0,0.0,0.0,0.0,0.0,0.0,0.0,0.0,0.0,0.0,0.0,0.0,0.0,0.0,0.0,0.0,0.0,0.0,0.0,0.0,0.0,0.0,0.0,0.0,0.0,0.0,0.0,0.0,0.0,0.0,0.0,0.0,0.0,0.0,0.0,0.0,0.0,0.0,0.0,0.0,0.0,0.0,0.0,0.0,0.0,0.0,0.0,0.0,0.0,0.0,0.0,0.0,0.0,0.0,0.0,0.0,0.0,0.0,0.0,0.0,0.0,0.0,0.0,0.0,0.0,0.0,0.0,0.0,0.0,0.0,0.0,0.0,0.0,0.0,0.0,0.0,0.0,0.0,0.0,0.0,0.0,0.0,0.0,0.0,0.0,0.1352,-0.0485,-0.1614,-0.4391,-0.6422,-0.7493,-0.8865,-0.9416,-0.9183,0.0,0.0,0.0,0.0,0.0,0.0,0.0,0.0,0.0,0.0,0.0,0.0,0.0,0.0,0.0,0.0,0.0,0.0,0.0,0.0,0.0,0.0,0.0,0.0,0.0,0.0,0.0,0.0,0.0,0.0,0.0,0.0,0.0,0.0,0.0,0.0,0.0,0.0,0.6263,0.4475,0.0,0.0,0.0,0.0,0.0,0.0,0.0,0.0,-0.7363,0.0,0.0,0.0,0.0,0.0,0.0,0.0,0.0,0.0,0.0,0.0,0.0,0.0,0.0,0.0,0.0,0.0,0.0,0.0,0.0,0.0,0.0,0.0,0.0,0.0,0.0,0.0,0.0,0.0,0.0,0.0,0.0,0.0,0.0,0.0,0.0,0.0,0.0,0.0,0.0,0.0,0.0,0.0,0.0,0.0,0.0,0.0,0.0,0.0,0.0,0.0,0.0,0.0,0.0,0.0,0.0,0.4207,0.1636,-0.0087,-0.0968,-0.4192,-0.63,-0.7204,-0.827,-0.8935,-0.9123,0.0,0.0,0.0,0.0,0.0,0.0,0.0,0.0,0.0,0.0,0.0,0.0,0.0,0.0,0.0,0.0,0.0,0.0,0.0,0.0,0.0,0.0,0.0,0.0,0.0,0.0,0.0,0.0,0.0,0.0,0.0,0.0,0.0,0.0,0.0,0.0,0.0,0.0,0.0,0.4499,0.2908,0.0,0.0,0.0,0.0,0.0,0.0,0.0,0.0,-0.9402,0.0,0.0,0.0,0.0,0.0,0.0,0.0,0.0,0.0,0.0,0.0,0.0,0.0,0.0,0.0,0.0,0.0,0.0,0.0,0.0,0.0,0.0,0.0,0.0,0.0,0.0,0.0,0.0,0.0,0.0,0.0,0.0,0.0,0.0,0.0,0.0,0.0,0.0,0.0,0.0,0.0,0.0,0.0,0.0,0.0,0.0,0.0,0.0,0.0,0.0,0.0,0.0,0.0,0.0,0.0,0.4194,0.166,-0.0045,-0.0749,-0.3957,-0.6077,-0.6926,-0.7849,-0.8603,0.0,0.0,0.0,0.0,0.0,0.0,0.0,0.0,0.0,0.0,0.0,0.0,0.0,0.0,0.0,0.0,0.0,0.0,0.0,0.0,0.0,0.0,0.0,0.0,0.0,0.0,0.0,0.0,0.0,0.0,0.0,0.0,0.0,0.0,0.0,0.0,0.0,0.0,0.0,0.0,0.3926,0.2222,-0.0184,0.0,0.0,0.0,0.0,0.0,0.0,-0.8787,-0.9859,0.0,0.0,0.0,0.0,0.0,0.0,0.0,0.0,0.0,0.0,0.0,0.0,0.0,0.0,0.0,0.0,0.0,0.0,0.0,0.0,0.0,0.0,0.0,0.0,0.0,0.0,0.0,0.0,0.0,0.0,0.0,0.0,0.0,0.0,0.0,0.0,0.0,0.0,0.0,0.0,0.0,0.0,0.0,0.0,0.0,0.0,0.0,0.0,0.0,0.0,0.0,0.0,0.0,0.0,0.0,0.4176,0.1723,0.0091,-0.0665,-0.3649,-0.5715,-0.6633,-0.7461,-0.8231,0.0,0.0,0.0,0.0,0.0,0.0,0.0,0.0,0.0,0.0,0.0,0.0,0.0,0.0,0.0,0.0,0.0,0.0,0.0,0.0,0.0,0.0,0.0,0.0,0.0,0.0,0.0,0.0,0.0,0.0,0.0,0.0,0.0,0.0,0.0,0.0,0.0,0.0,0.0,0.0,0.0,0.1535,-0.085,-0.1866,0.0,0.0,0.0,0.0,-0.8004,-0.9207,0.0,0.0,0.0,0.0,0.0,0.0,0.0,0.0,0.0,0.0,0.0,0.0,0.0,0.0,0.0,0.0,0.0,0.0,0.0,0.0,0.0,0.0,0.0,0.0,0.0,0.0,0.0,0.0,0.0,0.0,0.0,0.0,0.0,0.0,0.0,0.0,0.0,0.0,0.0,0.0,0.0,0.0,0.0,0.0,0.0,0.0,0.0,0.0,0.0,0.0,0.0,0.0,0.0,0.0,0.0,0.0,0.401,0.2164,0.0582,-0.0663,-0.304,-0.496,-0.6263,-0.7032,-0.7662,0.0,0.0,0.0,0.0,0.0,0.0,0.0,0.0,0.0,0.0,0.0,0.0,0.0,0.0,0.0,0.0,0.0,0.0,0.0,0.0,0.0,0.0,0.0,0.0,0.0,0.0,0.0,0.0,0.0,0.0,0.0,0.0,0.0,0.0,0.0,0.0,0.0,0.0,0.0,0.0,0.0,0.1489,-0.0808,-0.2048,-0.3397,0.0,0.0,-0.7184,-0.8567,-0.9843,0.0,0.0,0.0,0.0,0.0,0.0,0.0,0.0,0.0,0.0,0.0,0.0,0.0,0.0,0.0,0.0,0.0,0.0,0.0,0.0,0.0,0.0,0.0,0.0,0.0,0.0,0.0,0.0,0.0,0.0,0.0,0.0,0.0,0.0,0.0,0.0,0.0,0.0,0.0,0.0,0.0,0.0,0.0,0.0,0.0,0.0,0.0,0.0,0.0,0.0,0.0,0.0,0.0,0.0,0.0,0.4607,0.4058,0.2216,0.0854,0.0047,-0.2341,-0.4207,-0.5473,-0.5949,-0.6527,0.0,0.0,0.0,0.0,0.0,0.0,0.0,0.0,0.0,0.0,0.0,0.0,0.0,0.0,0.0,0.0,0.0,0.0,0.0,0.0,0.0,0.0,0.0,0.0,0.0,0.0,0.0,0.0,0.0,0.0,0.0,0.0,0.0,0.0,0.0,0.0,0.0,0.0,0.0,0.0,0.0,0.0,-0.1611,-0.2945,0.0,0.0,0.0,-0.7096,-0.7973,0.0,0.0,0.0,0.0,0.0,0.0,0.0,0.0,0.0,0.0,0.0,0.0,0.0,0.0,0.0,0.0,0.0,0.0,0.0,0.0,0.0,0.0,0.0,0.0,0.0,0.0,0.0,0.0,0.0,0.0,0.0,0.0,0.0,0.0,0.0,0.0,0.0,0.0,0.0,0.0,0.0,0.0,0.0,0.0,0.0,0.0,0.0,0.0,0.0,0.0,0.0,0.0,0.0,0.0,0.0,0.0,0.0,0.4073,0.2342,0.1169,0.0508,-0.1677,-0.3379,-0.4473,-0.4759,0.0,0.0,0.0,0.0,0.0,0.0,0.0,0.0,0.0,0.0,0.0,0.0,0.0,0.0,0.0,0.0,0.0,0.0,0.0,0.0,0.0,0.0,0.0,0.0,0.0,0.0,0.0,0.5141,0.0,0.0,0.0,0.0,0.0,0.0,0.0,0.0,0.0,0.0,0.0,0.0,0.0,0.0,-0.0729,-0.2364,-0.3584,-0.4795,0.0,0.0,-0.6926,-0.7624,-0.8642,-0.9359,0.0,0.0,0.0,0.0,0.0,0.0,0.0,0.0,0.0,0.0,0.0,0.0,0.0,0.0,0.0,0.0,0.0,0.0,0.0,0.0,0.0,0.0,0.0,0.0,0.0,0.0,0.0,0.0,0.0,0.0,0.0,0.0,0.0,0.0,0.0,0.0,0.0,0.0,0.0,0.0,0.0,0.0,0.0,0.0,0.0,0.0,0.0,0.0,0.0,0.0,0.0,0.0,0.0,0.0,0.0,0.3837,0.2769,0.1596,0.0369,-0.1135,-0.2268,-0.3098,-0.3662,-0.4075,0.0,0.0,0.0,0.0,0.0,0.0,0.0,0.0,0.0,0.0,0.0,0.0,0.0,0.0,0.0,0.0,0.0,0.0,0.0,0.0,0.0,0.0,0.0,0.0,0.0,0.0,0.0,0.0,0.0,0.0,0.0,0.0,0.0,0.0,0.0,0.0,0.0,0.0,0.0,0.0,0.0,-0.0881,-0.2558,-0.3668,-0.4718,0.0,0.0,-0.6821,-0.8128,-0.8396,-0.8538,-0.881,0.0,0.0,0.0,0.0,0.0,0.0,0.0,0.0,0.0,0.0,0.0,0.0,0.0,0.0,0.0,0.0,0.0,0.0,0.0,0.0,0.0,0.0,0.0,0.0,0.0,0.0,0.0,0.0,0.0,0.0,0.0,0.0,0.0,0.0,0.0,0.0,0.0,0.0,0.0,0.0,0.0,0.0,0.0,0.0,0.0,0.0,0.0,0.0,0.0,0.0,0.0,0.0,0.0,0.4809,0.4027,0.2978,0.2016,0.1222,-0.0044,-0.111,-0.1993,-0.231,-0.2668,0.0,0.0,0.0,0.0,0.0,0.0,0.0,0.0,0.0,0.0,0.0,0.0,0.0,0.0,0.0,0.0,0.0,0.0,0.0,0.0,0.0,0.0,0.0,0.0,0.0,0.0,0.0,0.0,0.4635,0.5011,0.5813,0.0,0.0,0.0,0.0,0.0,0.0,0.0,0.0,0.0,0.0,-0.1348,-0.2843,-0.4014,0.0,0.0,-0.5948,-0.6257,-0.6819,-0.7049,-0.7222,-0.729,-0.7082,0.0,0.0,0.0,0.0,0.0,0.0,0.0,0.0,0.0,0.0,0.0,0.0,0.0,0.0,0.0,0.0,0.0,0.0,0.0,0.0,0.0,0.0,0.0,0.0,0.0,0.0,0.0,0.0,0.0,0.0,0.0,0.0,0.0,0.0,0.0,0.0,0.0,0.0,0.0,0.0,0.0,0.0,0.0,0.0,0.0,0.0,0.0,0.0,0.0,0.0,0.0,0.0,0.4947,0.4107,0.3209,0.2419,0.1758,0.0781,-0.0043,-0.0702,-0.0953,-0.1225,0.0,0.0,0.0,0.0,0.0,0.0,0.0,0.0,0.0,0.0,0.0,0.0,0.0,0.0,0.0,0.0,0.0,0.0,0.0,0.0,0.0,0.0,0.0,0.0,0.0,0.0,0.0,0.0,0.4836,0.5337,0.6391,0.0,0.0,0.0,0.0,0.0,0.0,0.0,0.0,0.0,0.0,-0.1716,-0.2964,-0.4048,-0.4859,-0.5143,-0.5336,-0.5511,-0.5682,-0.5736,-0.5834,-0.6083,0.0,0.0,0.0,0.0,0.0,0.0,0.0,0.0,0.0,0.0,0.0,0.0,0.0,0.0,0.0,0.0,0.0,0.0,0.0,0.0,0.0,0.0,0.0,0.0,0.0,0.0,0.0,0.0,0.0,0.0,0.0,0.0,0.0,0.0,0.0,0.0,0.0,0.0,0.0,0.0,0.0,0.0,0.0,0.0,0.0,0.0,0.0,0.0,0.0,0.0,0.0,0.0,0.0,0.5295,0.3947,0.3605,0.2832,0.1683,0.1135,0.0883,0.0842,0.0421,0.0208,0.0244,0.0,0.0,0.0,0.0,0.0,0.0,0.0,0.0,0.0,0.0,0.0,0.0,0.0,0.0,0.0,0.0,0.0,0.0,0.0,0.0,0.0,0.0,0.0,0.0,0.0,0.0,0.4855,0.5092,0.5544,0.0,0.0,0.0,0.0,0.0,0.0,0.0,0.0,0.0,0.0,-0.0888,-0.1985,-0.2868,-0.3539,-0.399,-0.4307,-0.434,-0.4528,-0.5013,-0.4695,-0.4574,0.0,0.0,0.0,0.0,0.0,0.0,0.0,0.0,0.0,0.0,0.0,0.0,0.0,0.0,0.0,0.0,0.0,0.0,0.0,0.0,0.0,0.0,0.0,0.0,0.0,0.0,0.0,0.7927,0.7732,0.0,0.0,0.0,0.0,0.0,0.0,0.0,0.0,0.0,0.0,0.0,0.9411,0.9301,0.0,0.0,0.0,0.0,0.0,0.0,0.0,0.0,0.0,0.0,0.0,0.0,0.5607,0.4768,0.4452,0.3833,0.2977,0.2317,0.186,0.1596,0.1135,0.0956,0.0978,0.0,0.0,0.0,0.0,0.0,0.0,0.0,0.0,0.0,0.0,0.0,0.0,0.0,0.0,0.0,0.0,0.0,0.0,0.0,0.0,0.0,0.0,0.0,0.0,0.0,0.5449,0.0,0.0,0.0,0.0,0.0,0.0,0.0,0.0,0.0,0.0,0.0,0.2596,0.0558,0.0179,-0.0554,-0.2263,-0.2741,-0.3133,0.0,0.0,0.0,0.0,0.0,0.0,0.0,0.0,0.0,0.0,0.0,0.0,0.0,0.0,-0.4628,-0.4412,-0.4291,-0.4235,-0.4304,0.0,0.0,0.0,0.0,0.0,0.0,0.0,0.0,0.0,0.0,0.0,0.0,0.0,0.0,0.0,0.0,0.947,0.0,0.0,0.0,0.0,0.0,0.0,0.0,0.0,1.1129,1.097,1.0475,1.0482,1.0286,0.0,0.9251,0.8594,0.0,0.0,0.0,0.0,0.0,0.0,0.0,0.0,0.616,0.5475,0.5289,0.4841,0.4089,0.3551,0.3105,0.2786,0.2378,0.2159,0.2169,0.2262,0.2287,0.0,0.0,0.0,0.0,0.0,0.0,0.0,0.0,0.0,0.0,0.0,0.0,0.0,0.0,0.0,0.0,0.0,0.0,0.0,0.0,0.0,0.0,0.0,0.5896,0.0,0.0,0.0,0.0,0.0,0.0,0.0,0.0,0.0,0.4014,0.3544,0.2647,0.0782,0.054,-0.0046,-0.1556,0.0,0.0,0.0,0.0,0.0,0.0,0.0,-0.2699,-0.3055,-0.314,-0.3388,-0.3931,-0.4495,-0.4769,-0.458,0.0,0.0,-0.4463,-0.4383,-0.4334,-0.4442,-0.443,-0.4409,-0.4518,-0.462,-0.493,0.0,0.0,0.0,0.0,0.0,0.0,0.0,0.0,1.1889,1.1871,0.0,1.1249,0.0,0.0,0.0,0.0,0.0,0.0,0.0,0.0,1.2396,1.2125,1.1509,1.1297,1.1098,1.0862,1.0507,1.0185,0.9793,0.8207,0.0,0.0,0.0,0.0,0.0,0.0,0.6969,0.6037,0.6131,0.5857,0.5087,0.4885,0.4652,0.4426,0.4036,0.3841,0.3832,0.3828,0.3904,0.4004,0.4033,0.0,0.0,0.0,0.0,0.0,0.0,0.0,0.0,0.0,0.0,0.0,0.0,0.0,0.0,0.0,0.0,0.0,0.0,0.0,0.0,0.6834,0.0,0.0,0.0,0.0,0.0,0.0,0.0,0.0,0.0,0.0,0.4194,0.3168,0.2128,0.1174,0.0,0.0,0.0,0.0,-0.202,-0.1806,-0.2014,-0.2211,-0.2217,-0.2221,-0.2433,-0.2918,0.0,0.0,-0.3785,-0.4132,-0.4257,-0.3981,-0.411,-0.4334,-0.4484,-0.4428,-0.4342,-0.4408,-0.4342,-0.4235,-0.4264,-0.4601,-0.5127,1.5264,0.0,0.0,0.0,0.0,1.4813,1.4865,1.4575,1.42,1.3807,1.3413,1.2736,0.0,0.0,0.0,0.0,0.0,0.0,1.3294,1.3185,1.3374,1.336,1.317,1.3011,1.2806,1.2492,1.1795,1.1077,1.0392,0.9553,0.8878,0.8275,0.0,0.0,0.0,0.0,0.7288,0.7057,0.7107,0.6899,0.6356,0.6121,0.5767,0.5265,0.5148,0.4993,0.488,0.488,0.4828,0.4719,0.5095,0.0,0.0,0.0,0.0,0.0,0.0,0.0,0.0,0.0,0.0,0.0,0.0,0.0,0.0,0.0,0.0,0.0,0.0,0.0,0.7061,0.7022,0.7099,0.0,0.0,0.0,0.0,0.0,0.0,0.0,0.0,0.0,0.4242,0.3931,0.3284,0.0,0.0,0.1684,0.0448,-0.0133,-0.0673,-0.1305,0.0,0.0,0.0,-0.1871,-0.1784,-0.1994,-0.2384,-0.2808,-0.3247,-0.3586,-0.3857,-0.3883,-0.3926,-0.3917,-0.375,-0.4163,-0.4522,-0.4629,-0.4669,-0.4653,-0.4765,-0.5014,-0.5484,1.7834,1.6867,1.6319,1.6104,1.6274,1.669,1.6693,1.6325,1.6007,1.5604,1.5165,1.4522,1.4312,1.4421,1.4324,0.0,0.0,0.0,1.3915,1.3942,1.3869,1.3792,1.3691,1.3594,1.3477,1.3244,1.2437,1.1807,1.139,1.0556,1.003,0.9687,0.0,0.0,0.8374,0.8379,0.8234,0.8021,0.8053,0.7936,0.7629,0.7314,0.6923,0.65,0.65,0.6461,0.6384,0.6307,0.6303,0.6322,0.6419,0.6442,0.0,0.0,0.0,0.0,0.0,0.0,0.0,0.0,0.0,0.0,0.0,0.951,0.0,0.0,0.0,0.0,0.8251,0.8021,0.7518,0.7676,0.0,0.0,0.0,0.0,0.0,0.0,0.0,0.6971,0.579,0.4868,0.4659,0.4578,0.403,0.2512,0.2571,0.2385,0.1432,0.0,0.0223,-0.0231,-0.0656,-0.0944,-0.1042,-0.1189,-0.1293,-0.1308,-0.1664,-0.1965,-0.2189,-0.2496,-0.2747,-0.2911,-0.3006,-0.3048,-0.3011,-0.3551,-0.4043,-0.416,-0.4247,-0.4353,-0.4486,-0.4729,-0.5158,1.9835,1.9827,1.8018,1.7544,1.7951,1.7886,1.7782,1.7671,1.7439,1.7234,1.707,1.6411,1.6112,1.6046,1.5581,0.0,0.0,1.4948,1.4678,1.4611,1.4047,1.3726,1.3553,1.3486,1.3478,1.3439,1.2643,1.243,1.2561,1.1293,1.0873,1.1269,1.0408,0.9713,0.9327,0.9694,0.9522,0.8841,0.8988,0.9026,0.8851,0.8466,0.8161,0.8012,0.8012,0.8084,0.8237,0.8122,0.8172,0.8497,0.8035,0.7808,0.7951,0.0,0.0,0.0,0.0,0.0,0.0,0.0,0.0,0.0,0.0,0.0,0.0,0.0,0.0,0.0,0.8515,0.0,0.8403,0.8551,0.0,0.0,0.0,0.8394,0.7638,0.7034,0.6532,0.6321,0.0,0.0,0.0,0.0,0.44,0.2812,0.2456,0.2325,0.2242,0.1431,0.0895,0.1037,0.0503,0.0184,0.0273,-0.0232,-0.0665,-0.0713,-0.0999,-0.1049,-0.0906,-0.1097,-0.1334,-0.1622,-0.1732,-0.203,-0.2448,-0.2819,-0.3051,-0.3083,-0.3352,-0.3634,-0.3785,-0.4068,-0.4432,2.0838,2.0867,2.0362,1.9965,1.9674,1.9745,1.9628,1.9286,1.8592,1.828,1.8147,1.7415,1.6968,1.6745,1.6652,1.6281,1.5725,1.5569,1.5328,1.4967,1.4839,1.473,1.4698,1.4444,1.4203,1.3902,1.3444,1.2925,1.2389,1.2064,1.1649,1.126,1.1262,1.0824,0.9985,0.9869,0.9822,0.9779,0.984,0.9913,1.0056,0.9836,0.9685,0.9647,0.9798,0.9722,0.9496,0.9744,0.9836,0.9781,0.9771,0.976,0.9647,0.9869,0.0,0.0,0.0,0.0,0.0,0.0,0.0,0.0,0.0,1.0482,0.9587,0.0,1.0266,0.0,0.8507,0.8351,0.8389,0.8437,0.0,0.0,0.8599,0.8399,0.8212,0.7407,0.6928,0.6961,0.6099,0.5436,0.5395,0.4951,0.4351,0.3665,0.364,0.3478,0.2815,0.2339,0.1815,0.1413,0.1058,0.0784,0.0826,0.0692,0.0512,0.0373,0.0189,0.0095,-0.0048,-0.0429,-0.0857,-0.1283,-0.1618,-0.1869,-0.2026,-0.2209,-0.2288,-0.2216,-0.2841,-0.3452,-0.3518,-0.3813,-0.4269,2.1425,2.1617,2.1617,2.1341,2.0843,2.0584,2.0162,1.9535,1.9061,1.8813,1.8646,1.8193,1.7919,1.7773,1.7488,1.7119,1.6674,1.6205,1.5814,1.5481,1.5252,1.5108,1.5054,1.4876,1.4675,1.4491,1.4035,1.3576,1.3147,1.2873,1.2562,1.2122,1.2242,1.1959,1.135,1.0817,1.0556,1.0597,1.0688,1.0846,1.1025,1.0925,1.0925,1.0993,1.096,1.09,1.0747,1.0701,1.0773,1.092,1.0675,1.0635,1.0855,1.0746,1.0568,0.0,0.0,0.0,0.0,0.0,0.0,0.0,0.0,0.0,0.0,0.0,1.0246,0.0,0.0,0.0,0.9036,0.9084,0.9089,0.9132,0.8861,0.8546,0.8169,0.7492,0.7051,0.6961,0.6422,0.599,0.5873,0.5641,0.5246,0.4733,0.4706,0.4402,0.3483,0.3083,0.2798,0.2407,0.2051,0.1777,0.1685,0.1776,0.1777,0.1553,0.1474,0.1342,0.11,0.0824,0.0502,-0.0045,-0.0398,-0.07,-0.1016,-0.1371,-0.1549,-0.157,-0.2048,-0.2638,-0.2972,-0.3238,-0.3559,2.1807,2.2138,2.2138,2.1956,2.1532,2.0858,2.0086,1.9353,1.9267,1.9151,1.8942,1.889,1.8818,1.8736,1.8151,1.7829,1.7686,1.6858,1.6346,1.6116,1.5654,1.5352,1.5167,1.5117,1.5117,1.5117,1.4579,1.4323,1.4273,1.3782,1.3455,1.3382,1.3184,1.3064,1.2899,1.2146,1.1633,1.1309,1.1539,1.1709,1.1849,1.1812,1.1892,1.2062,1.1823,1.1762,1.1861,1.1433,1.1421,1.1929,1.132,1.1239,1.188,1.1256,1.1008,0.0,1.135,0.0,0.0,0.0,0.0,0.0,0.0,0.0,0.0,0.992,1.0006,0.9916,0.9766,0.9728,0.9836,0.9863,0.9733,0.9359,0.916,0.8737,0.805,0.7638,0.7257,0.6907,0.6866,0.6752,0.6596,0.664,0.6388,0.5885,0.5694,0.535,0.4398,0.3959,0.3715,0.3666,0.3347,0.2943,0.2765,0.2856,0.29,0.2681,0.2594,0.2528,0.2262,0.2168,0.1981,0.1482,0.1094,0.0713,0.0084,-0.0495,-0.0854,-0.0903,-0.1253,-0.1725,-0.2307,-0.2492,-0.2634,2.2262,2.2327,2.2365,2.1887,2.1122,2.098,2.0593,2.0057,1.9702,1.958,1.9639,1.9233,1.8934,1.8683,1.8412,1.8024,1.7585,1.7806,1.7529,1.6907,1.6784,1.648,1.6046,1.5845,1.5729,1.57,1.5352,1.503,1.4765,1.4647,1.4343,1.3791,1.3753,1.3676,0.0,0.0,0.0,0.0,1.2304,1.2492,1.2515,1.2447,1.244,1.2508,1.2594,0.0,1.2456,1.2635,1.2792,1.2919,1.2773,0.0,0.0,0.0,0.0,0.0,0.0,0.0,0.0,0.0,0.0,0.0,1.2026,1.1525,1.0913,1.0479,1.0178,1.0078,1.0033,0.9887,0.96,0.9627,0.962,0.9544,0.9231,0.8922,0.877,0.8546,0.836,0.8284,0.7889,0.7563,0.7482,0.7134,0.6802,0.6649,0.6534,0.6418,0.614,0.517,0.4398,0.4075,0.397,0.3926,0.3838,0.3711,0.3538,0.3364,0.332,0.3248,0.306,0.2749,0.2411,0.2056,0.1738,0.1274,0.0543,0.0203,-0.008,-0.0457,-0.0697,-0.1048,-0.1636,-0.1909,-0.214,2.2478,0.0,2.2391,2.1984,0.0,2.1261,2.0925,2.0467,1.9975,1.9998,2.0366,2.0038,1.9891,1.9831,1.9362,1.8824,1.8345,1.8367,1.7958,1.7158,1.7148,1.6934,1.656,1.64,1.6343,1.6343,1.6171,1.5912,1.5594,1.5536,1.5245,1.4792,1.4687,1.4601,1.4552,1.4379,1.3893,1.3084,1.3202,1.3324,1.3483,1.3362,1.3508,1.3862,0.0,0.0,0.0,0.0,0.0,0.0,0.0,0.0,0.0,0.0,0.0,1.3407,1.3233,1.3108,1.2993,1.2979,1.2974,1.2964,1.2675,1.2192,1.1464,1.0967,1.0607,1.0419,1.0343,1.026,1.01,0.9937,0.9936,1.0126,0.9836,0.9573,0.9404,0.9246,0.8995,0.8702,0.8519,0.8286,0.7959,0.7766,0.7475,0.7191,0.7064,0.6938,0.6712,0.6093,0.5467,0.5079,0.49,0.4815,0.4605,0.4395,0.4185,0.3972,0.3885,0.3766,0.344,0.3222,0.2967,0.2689,0.2354,0.1971,0.1548,0.1047,0.0573,0.0234,-0.0078,-0.0462,-0.0912,-0.1273,-0.168,2.2649,2.2689,2.2466,2.2152,2.1728,2.1475,2.1161,2.0765,0.0,0.0,0.0,2.0887,2.0905,2.1069,2.0375,1.981,1.9328,1.9059,1.8412,1.7545,1.7534,1.7378,1.7088,1.7004,1.6959,1.6948,1.6948,1.6779,1.6524,1.6418,1.6247,1.6009,1.5787,1.5642,1.5526,1.5303,1.4904,1.4391,1.4098,1.4113,1.4371,1.4262,1.4545,1.5154,1.4397,1.432,1.4914,1.4243,1.4032,1.4468,1.4184,1.4107,1.4356,1.3987,1.3812,1.3911,1.395,1.3821,1.3571,1.3739,1.3739,1.3517,1.3194,1.2633,1.1748,1.1445,1.1122,1.0846,1.0767,1.0776,1.081,1.0486,1.0412,1.0801,1.0456,1.0112,0.9871,0.9748,0.9443,0.8923,0.8965,0.8892,0.8366,0.8356,0.8231,0.7788,0.7635,0.742,0.7154,0.6802,0.641,0.6118,0.5906,0.5653,0.5218,0.4964,0.4722,0.4437,0.4317,0.4127,0.377,0.3586,0.3482,0.3265,0.3045,0.2789,0.2477,0.1891,0.1312,0.102,0.0583,0.0109,-0.011,-0.06,-0.1108,2.3164,2.2786,2.2755,2.2245,2.1442,2.142,2.1292,2.1149,2.1178,2.1388,2.1729,2.1315,2.1156,2.1187,2.088,2.0414,1.9842,2.0339,1.9942,0.0,1.8843,1.8596,1.8162,1.7767,1.7573,1.7573,1.744,1.7396,1.7357,1.7418,1.739,1.714,1.6916,1.656,1.62,1.6142,1.6,1.579,1.4988,1.4577,1.4656,1.4756,1.4844,1.4921,1.4817,1.4782,1.4907,1.4784,1.4768,1.4823,1.4768,1.476,1.4799,1.4743,1.4617,1.4449,1.4499,1.433,1.3821,1.389,1.3847,1.3518,1.3456,1.3027,1.2119,1.1993,1.1767,1.1341,1.1478,1.1519,1.1323,1.1064,1.0915,1.0918,1.0505,1.0137,1.0003,1.0014,0.9868,0.9515,0.9414,0.933,0.9114,0.8934,0.8749,0.8674,0.8438,0.8376,0.814,0.7516,0.6991,0.6823,0.6655,0.6321,0.5789,0.5523,0.5182,0.4729,0.4538,0.4401,0.4231,0.4029,0.3874,0.3726,0.3638,0.3404,0.2928,0.2595,0.2212,0.1808,0.1267,0.0833,0.0615,0.0144,-0.0395,2.3602,2.3102,2.2807,2.2503,2.2217,2.2053,2.1996,2.1944,2.2025,2.1981,2.1813,2.1613,2.1635,2.1766,2.1504,2.1253,2.0983,2.0976,2.0514,1.9753,1.9425,1.9066,1.8718,1.8491,1.8329,1.8193,1.8127,1.8007,1.7843,1.7886,1.7804,1.7584,1.7435,1.7262,1.7067,1.687,1.6768,1.6684,1.57,1.5263,1.5384,1.5313,1.5387,1.5706,1.5406,1.5396,1.5706,1.5406,1.5243,1.5343,1.5423,1.5447,1.5284,1.5284,1.5216,1.5099,1.5148,1.505,1.4677,1.4647,1.4499,1.4172,1.4201,1.3922,1.31,1.2757,1.2407,1.2041,1.2064,1.1999,1.1851,1.156,1.1438,1.1601,1.1273,1.0906,1.0594,1.062,1.0411,0.977,0.962,0.9553,0.9215,0.9058,0.8958,0.8963,0.8881,0.884,0.8753,0.8349,0.7904,0.7609,0.7382,0.6912,0.6227,0.589,0.5566,0.5049,0.4913,0.4784,0.4659,0.447,0.4285,0.4102,0.3956,0.3779,0.3455,0.3096,0.2725,0.2371,0.1709,0.1222,0.094,0.0553,-0.0104,2.4166,2.356,2.328,2.3058,2.2879,2.253,2.242,2.2574,2.2671,2.2454,2.2055,2.2018,2.2226,2.2543,2.2197,2.2005,2.1956,2.1555,2.1073,2.0516,1.9957,1.9592,1.9383,1.9271,1.9028,1.8815,1.8789,1.8655,1.8402,1.8363,1.8267,1.8023,1.7995,1.7929,1.7831,1.7567,1.744,1.7357,1.6531,1.6132,1.6188,1.5928,1.6044,1.6471,1.6105,1.6055,1.6522,1.6095,1.5898,1.5988,1.6108,1.6108,1.5933,1.5882,1.5882,1.5853,1.5825,1.5738,1.5555,1.5429,1.5255,1.5001,1.5001,1.4765,1.4201,1.364,1.3164,1.2789,1.2629,1.2515,1.2426,1.2104,1.1956,1.2156,1.1959,1.1607,1.1204,1.1215,1.0963,1.0097,1.0069,0.995,0.959,0.9434,0.942,0.9359,0.9313,0.9224,0.9092,0.9073,0.8788,0.8434,0.8075,0.7581,0.6789,0.6486,0.6129,0.5544,0.5339,0.5153,0.4977,0.4809,0.4635,0.4398,0.4246,0.4062,0.3907,0.3587,0.3175,0.2905,0.23,0.1652,0.1216,0.0777,0.0135,2.4951,2.427,2.4612,2.4135,2.2995,2.2321,2.2238,2.2525,2.2866,2.2925,2.2748,2.2697,2.2965,2.3348,2.2917,2.2544,2.2383,2.2416,2.2005,2.1231,2.0786,2.0562,2.045,1.9997,1.9592,1.9384,1.9448,1.9344,1.9095,1.916,1.9119,1.8907,1.8881,1.8667,1.8306,1.8224,1.8116,1.803,1.7684,1.725,1.6747,1.6701,1.6768,1.6931,1.6882,1.6945,1.7081,1.6956,1.685,1.6867,1.6757,1.6765,1.6814,1.674,1.6637,1.6513,1.6513,1.6371,1.6046,1.5902,1.5816,1.5787,1.5526,1.5332,1.5206,1.4706,1.4073,1.3593,1.3299,1.3202,1.3166,1.2731,1.2461,1.2492,1.214,1.1783,1.1727,1.1469,1.1234,1.1167,1.0943,1.0859,1.0706,1.0604,1.0478,1.018,1.0034,0.995,0.9854,0.9665,0.9512,0.9292,0.8897,0.8299,0.772,0.7464,0.6967,0.6232,0.577,0.5561,0.5342,0.5164,0.4968,0.4798,0.465,0.4535,0.4224,0.3897,0.3797,0.3493,0.3023,0.2519,0.1579,0.1042,0.0505,2.5573,2.4626,2.5162,2.4917,2.4105,2.3749,2.3667,2.3755,2.3564,2.3621,2.3806,2.3507,2.3225,2.2996,2.2859,2.291,2.3141,2.2856,2.2527,2.2159,2.1654,2.1134,2.0643,2.0412,2.0131,1.9888,1.9926,1.9811,1.9578,1.946,1.9342,1.9263,1.9237,1.9131,1.8948,1.8801,1.8694,1.8614,1.8383,1.81,1.7854,1.7379,1.7099,1.7106,1.7134,1.7162,1.719,1.7162,1.7134,1.7134,1.7162,1.7256,1.7301,1.7312,1.7312,1.7256,1.7088,1.692,1.6645,1.6513,1.6343,1.6132,1.62,1.6085,1.5729,1.5613,1.5381,1.4923,1.4201,1.367,1.361,1.3398,1.3216,1.3086,1.2834,1.2597,1.2413,1.2174,1.1934,1.1646,1.1522,1.1421,1.1313,1.125,1.1125,1.0944,1.0787,1.0755,1.0598,1.0415,1.0288,1.0187,0.9782,0.9025,0.8215,0.7971,0.7583,0.6995,0.6638,0.6441,0.6079,0.5815,0.5587,0.5256,0.5193,0.506,0.4764,0.4528,0.4398,0.4095,0.3625,0.3019,0.2115,0.168,0.1244,2.6355,2.5531,2.5579,2.5509,2.5312,2.4994,2.4835,2.4741,2.4313,2.4302,2.4551,2.4166,2.3617,2.3016,2.2884,2.3123,2.3564,2.3057,2.2804,2.2724,2.2217,2.1608,2.1047,2.0899,2.0747,2.0511,2.0472,2.0321,2.0029,1.9837,1.972,1.9694,1.9668,1.9655,1.9551,1.9368,1.9251,1.9186,1.8975,1.8881,1.8774,1.8209,1.781,1.7661,1.7678,1.7717,1.7678,1.7661,1.7606,1.7579,1.7689,1.7689,1.7661,1.7728,1.7755,1.7684,1.7518,1.7351,1.7207,1.7106,1.6948,1.6751,1.6892,1.6835,1.6446,1.6361,1.6285,1.6028,1.5108,1.4478,1.421,1.4061,1.3911,1.3722,1.3571,1.339,1.3169,1.2942,1.2658,1.232,1.232,1.2189,1.205,1.1989,1.1872,1.1763,1.1685,1.1584,1.1421,1.124,1.1052,1.1052,1.0636,0.9843,0.8765,0.8488,0.8179,0.7729,0.7428,0.7232,0.6975,0.6609,0.6276,0.5951,0.5818,0.5524,0.516,0.4997,0.4864,0.4561,0.409,0.3456,0.272,0.2353,0.1983,2.7334,2.6953,2.6028,2.5967,2.6382,2.5525,2.508,2.5044,2.4953,2.4817,2.4647,2.4709,2.4415,2.3782,2.3178,2.3151,2.3564,2.3098,2.2858,2.2791,2.2374,2.2077,2.2022,2.1719,2.1399,2.1131,2.1131,2.0945,2.0585,2.0535,2.0485,2.0346,2.0346,2.0233,2.0029,1.9978,1.9901,1.9759,1.963,1.9552,1.9539,1.9394,1.9078,1.8759,1.8839,1.8854,1.8854,1.8771,1.8652,1.8533,1.8371,1.8209,1.81,1.7991,1.7881,1.7739,1.7711,1.77,1.7711,1.7645,1.7617,1.7601,1.7479,1.744,1.7301,1.6909,1.6655,1.657,1.6104,1.5604,1.5206,1.4824,1.444,1.424,1.4061,1.398,1.392,1.3601,1.348,1.339,1.3329,1.323,1.3169,1.3064,1.2858,1.2705,1.2552,1.2421,1.2328,1.205,1.1833,1.1677,1.1327,1.0667,0.9901,0.9379,0.8857,0.8468,0.8236,0.7889,0.7531,0.7232,0.6937,0.6708,0.6609,0.628,0.5657,0.5259,0.5093,0.4824,0.4461,0.3859,0.3458,0.2956,0.2554,2.79,2.7828,2.6998,2.699,2.7406,2.6756,2.6258,2.5931,2.5588,2.5199,2.4916,2.4892,2.4798,2.4582,2.3932,2.3514,2.3393,2.3217,2.3201,2.3227,2.3113,2.2836,2.2492,2.2372,2.2031,2.1643,2.1578,2.141,2.1104,2.0957,2.082,2.0795,2.0784,2.0721,2.066,2.0635,2.0522,2.0346,2.0334,2.0258,2.0016,2.0118,2.0016,1.9694,1.9394,1.9251,1.9263,1.921,1.9158,1.9093,1.904,1.8987,1.8907,1.8801,1.8629,1.8437,1.8491,1.8506,1.8425,1.8278,1.817,1.8073,1.7881,1.7722,1.7606,1.7423,1.7312,1.7228,1.6965,1.6645,1.6418,1.5835,1.5284,1.501,1.4854,1.4647,1.4359,1.41,1.392,1.386,1.383,1.3791,1.3821,1.37,1.3588,1.3467,1.3376,1.3246,1.3056,1.2842,1.2728,1.2544,1.2236,1.1825,1.1514,1.0541,0.9849,0.9556,0.9268,0.8888,0.8528,0.8172,0.7874,0.7526,0.7433,0.7068,0.6441,0.5885,0.5653,0.5259,0.4894,0.4625,0.4328,0.3756,0.3288,2.8088,2.8179,2.756,2.7616,2.8084,2.7723,2.7189,2.6614,2.6212,2.5664,2.5085,2.5005,2.5005,2.4951,2.4599,2.4137,2.3525,2.3263,2.32,2.3287,2.3169,2.2915,2.2665,2.2658,2.2472,2.2109,2.2006,2.1878,2.165,2.1468,2.1358,2.1348,2.1334,2.1286,2.1213,2.1251,2.114,2.0981,2.1068,2.0919,2.0673,2.0759,2.0709,2.0447,2.0105,1.9823,1.9681,1.9655,1.9617,1.9603,1.9591,1.9551,1.9473,1.933,1.9198,1.9025,1.9078,1.8996,1.8734,1.8579,1.8391,1.8145,1.8022,1.7917,1.7832,1.7872,1.792,1.7865,1.7661,1.7468,1.7318,1.6888,1.6322,1.5835,1.5594,1.5371,1.4991,1.4854,1.4745,1.4686,1.4617,1.4558,1.4499,1.4499,1.4419,1.4261,1.4219,1.4061,1.3872,1.3782,1.3662,1.342,1.3186,1.2873,1.2536,1.1787,1.0982,1.0629,1.0098,0.9748,0.9428,0.9102,0.8716,0.8371,0.8014,0.7684,0.719,0.6605,0.6181,0.5822,0.5591,0.5355,0.4957,0.4522,0.399,2.7931,2.8212,2.7655,2.7749,2.8247,2.8279,2.7723,2.6942,2.6796,2.6147,2.5265,2.506,2.5075,2.5048,2.5106,2.4833,2.4284,2.335,2.2942,2.303,2.255,2.2414,2.2564,2.2699,2.2721,2.2601,2.2477,2.2347,2.2208,2.2147,2.21,2.2006,2.1959,2.1841,2.1626,2.1746,2.1722,2.164,2.1674,2.164,2.1447,2.1361,2.1277,2.1033,2.0947,2.0711,2.0258,2.0233,2.0156,2.0029,2.0016,1.9888,1.972,1.9591,1.9434,1.946,1.9447,1.915,1.8707,1.8682,1.8498,1.8166,1.8076,1.8247,1.8251,1.8363,1.8422,1.8356,1.8232,1.8057,1.7925,1.7815,1.7363,1.6528,1.6273,1.6151,1.5931,1.5874,1.5874,1.5758,1.5604,1.5584,1.5555,1.5362,1.5235,1.5118,1.501,1.4854,1.4756,1.4677,1.4519,1.4282,1.4022,1.3752,1.339,1.2995,1.229,1.1608,1.0982,1.0478,1.0225,0.9932,0.9518,0.9139,0.8598,0.8231,0.7777,0.7223,0.6872,0.6511,0.6313,0.605,0.5554,0.5087,0.4586,2.8012,2.8414,2.7841,2.7949,2.8495,2.8605,2.8207,2.7564,2.7273,2.6687,2.5973,2.552,2.5341,2.5355,2.5411,2.5494,2.5568,2.4663,2.4024,2.3719,2.3681,2.3559,2.3391,2.3389,2.3302,2.3111,2.3053,2.2904,2.2723,2.2686,2.2586,2.244,2.2402,2.237,2.2278,2.2324,2.2254,2.2053,2.2137,2.2044,2.1722,2.1769,2.1722,2.1568,2.1375,2.1277,2.1288,2.0945,2.0736,2.0699,2.0686,2.0598,2.0434,2.0384,2.0346,2.0271,2.0308,2.0332,2.0114,1.9875,1.9636,1.9409,1.9231,1.91,1.8995,1.9036,1.9025,1.8866,1.8759,1.864,1.8452,1.8387,1.7979,1.7039,1.6927,1.6786,1.6475,1.6293,1.6161,1.6046,1.5989,1.595,1.5921,1.5845,1.5787,1.5748,1.5642,1.5575,1.542,1.5342,1.5118,1.4903,1.4736,1.4588,1.4282,1.3974,1.3515,1.2734,1.1996,1.1351,1.1069,1.0699,1.0288,0.9811,0.93,0.8818,0.8328,0.7944,0.7619,0.733,0.7129,0.6704,0.6152,0.5683,0.5246,2.8121,2.8698,2.8061,2.8157,2.8766,2.8876,2.8428,2.7704,2.7396,2.6848,2.6102,2.5674,2.5508,2.5536,2.5647,2.5907,2.6174,2.5897,2.546,2.4859,2.4686,2.4462,2.413,2.4149,2.3902,2.3555,2.3451,2.3326,2.3157,2.3216,2.3127,2.2963,2.2963,2.2873,2.276,2.2806,2.2715,2.2491,2.2583,2.25,2.2208,2.2184,2.2137,2.1959,2.1793,2.1769,2.1926,2.1602,2.1361,2.1229,2.1131,2.0995,2.0896,2.0871,2.0833,2.0784,2.0795,2.0779,2.0594,2.0342,2.0167,1.9903,1.9747,1.9623,1.9585,1.9635,1.9591,1.9422,1.9357,1.9277,1.904,1.8975,1.8629,1.7979,1.7744,1.7496,1.7151,1.6927,1.6842,1.6768,1.674,1.6684,1.6645,1.657,1.6503,1.6492,1.6436,1.6322,1.6169,1.6065,1.5892,1.57,1.5555,1.5371,1.5167,1.4923,1.4708,1.3936,1.3092,1.2428,1.1973,1.1483,1.1014,1.0485,0.9977,0.9594,0.9139,0.8818,0.8528,0.8236,0.7912,0.7456,0.6966,0.6539,0.6071,2.8251,2.8916,2.8253,2.8336,2.8957,2.9058,2.8522,2.7541,2.7377,2.6754,2.5855,2.5605,2.5564,2.5619,2.5907,2.6138,2.6258,2.6745,2.6684,2.612,2.5678,2.5189,2.4603,2.4687,2.4415,2.3894,2.3717,2.3638,2.3595,2.3717,2.3711,2.3531,2.3523,2.3377,2.3091,2.3209,2.3135,2.2894,2.2992,2.291,2.2661,2.2638,2.254,2.231,2.224,2.2254,2.231,2.224,2.203,2.1688,2.1458,2.1337,2.1155,2.1095,2.1166,2.118,2.1095,2.0914,2.0512,2.0478,2.0241,1.9837,1.9919,1.9852,1.9963,2.014,2.0169,2.0003,1.9991,1.9888,1.9682,1.9578,1.937,1.9054,1.856,1.8193,1.7975,1.7783,1.7673,1.7673,1.7711,1.7739,1.7645,1.7534,1.7451,1.7385,1.7262,1.7112,1.6983,1.6842,1.6768,1.657,1.6332,1.6122,1.5911,1.5719,1.5478,1.504,1.4234,1.3575,1.2856,1.2282,1.1639,1.1115,1.0706,1.0333,0.9983,0.9626,0.9274,0.8926,0.8565,0.8236,0.7814,0.7354,0.6896,2.8205,2.8408,2.8195,2.8253,2.8536,2.9049,2.8875,2.8138,2.7781,2.721,2.6455,2.5994,2.5799,2.5825,2.6109,2.6457,2.68,2.7074,2.7091,2.6892,2.7163,2.6268,2.5183,2.5079,2.483,2.4263,2.413,2.4057,2.3979,2.4015,2.3967,2.3876,2.3897,2.3739,2.348,2.3486,2.3392,2.3201,2.3223,2.3209,2.312,2.3098,2.3083,2.2994,2.2709,2.2746,2.2949,2.2941,2.2655,2.224,2.218,2.2142,2.2049,2.2049,2.1992,2.1959,2.1983,2.1917,2.1647,2.1366,2.1142,2.1003,2.0764,2.0684,2.0697,2.0729,2.0673,2.051,2.0434,2.0334,2.0118,2.0016,1.9914,1.9695,1.9081,1.8533,1.8383,1.8317,1.8329,1.8259,1.8205,1.8193,1.8139,1.8057,1.7909,1.7843,1.7788,1.7705,1.7623,1.7468,1.7357,1.7245,1.7078,1.6899,1.6691,1.6464,1.6247,1.5989,1.5362,1.4728,1.3897,1.3092,1.2397,1.1701,1.1452,1.1139,1.0737,1.0358,0.9983,0.967,0.937,0.9069,0.8598,0.8144,0.7679,2.8681,2.8761,2.873,2.873,2.8847,2.9275,2.9128,2.8554,2.828,2.7636,2.6891,2.6455,2.6132,2.5962,2.6336,2.6692,2.7045,2.7433,2.7614,2.771,2.806,2.7464,2.6381,2.6022,2.553,2.4895,2.4565,2.4385,2.4343,2.4364,2.4338,2.4234,2.4234,2.4078,2.3824,2.3867,2.3739,2.3516,2.3458,2.3458,2.3319,2.3282,2.3282,2.3275,2.3061,2.3083,2.326,2.3304,2.3038,2.2586,2.2503,2.2558,2.2498,2.2498,2.2466,2.2449,2.2449,2.2402,2.231,2.2086,2.1969,2.1912,2.1688,2.1568,2.1458,2.1423,2.1313,2.1093,2.1031,2.0896,2.0648,2.0472,2.0346,2.0182,1.9669,1.916,1.8934,1.8869,1.8801,1.8679,1.8583,1.8491,1.8503,1.8464,1.8452,1.8398,1.8398,1.8344,1.8263,1.8073,1.7936,1.7881,1.7881,1.7733,1.7639,1.7501,1.7151,1.687,1.6275,1.568,1.4963,1.4046,1.3312,1.2642,1.2282,1.1919,1.1514,1.1146,1.0832,1.0516,1.0225,0.9811,0.93,0.8894,0.8431,2.9279,2.9518,2.9449,2.9449,2.9445,2.956,2.9313,2.885,2.8783,2.8121,2.7173,2.6975,2.6621,2.6029,2.6721,2.6979,2.7097,2.7825,2.8195,2.8391,2.8566,2.8241,2.765,2.6974,2.6402,2.5747,2.5046,2.4906,2.4968,2.5003,2.4826,2.4802,2.4776,2.4493,2.4255,2.4261,2.4063,2.3803,2.3803,2.3696,2.3516,2.3451,2.3451,2.3348,2.3363,2.3304,2.3407,2.3458,2.3304,2.2586,2.2731,2.2844,2.2717,2.2657,2.2649,2.2686,2.2709,2.2686,2.2581,2.2558,2.2503,2.2426,2.2379,2.2324,2.2053,2.1983,2.1874,2.1626,2.1664,2.1496,2.124,2.0921,2.0784,2.0709,2.0472,2.0144,1.9811,1.9488,1.9239,1.9095,1.8871,1.8717,1.8804,1.8886,1.9008,1.9069,1.9054,1.8975,1.8881,1.8721,1.864,1.8614,1.8614,1.864,1.8587,1.8521,1.8154,1.7772,1.7078,1.6464,1.593,1.5138,1.4353,1.3734,1.3312,1.2803,1.2259,1.1919,1.1639,1.1303,1.0951,1.044,0.9932,0.9562,0.9139,2.926,2.8928,2.9361,2.9291,2.9029,2.9518,2.956,2.9272,2.9376,2.8742,2.783,2.779,2.7345,2.6537,2.7152,2.7509,2.7625,2.8137,2.8468,2.8708,2.8818,2.8803,2.8451,2.7842,2.7163,2.6476,2.579,2.5801,2.613,2.5811,2.5664,2.5633,2.5424,2.5284,2.4611,2.4528,2.441,2.4183,2.4177,2.4073,2.3861,2.3797,2.3732,2.3566,2.3545,2.3545,2.3566,2.3689,2.3689,2.3588,2.3588,2.3566,2.3465,2.3443,2.3392,2.3282,2.326,2.3216,2.3127,2.2957,2.2822,2.2799,2.2649,2.2466,2.242,2.2397,2.2296,2.2137,2.2067,2.1949,2.1698,2.1506,2.1348,2.1275,2.1191,2.1019,2.0797,2.0321,1.9927,1.9723,1.9447,1.9284,1.9608,1.9371,1.9497,1.9698,1.9695,1.9578,1.9486,1.9356,1.9317,1.9317,1.9317,1.9291,1.9146,1.9054,1.8774,1.8382,1.7752,1.723,1.671,1.6133,1.5292,1.474,1.4321,1.3743,1.3139,1.2773,1.2489,1.2066,1.167,1.1163,1.0692,1.0288,0.9849,2.9836,2.9489,2.9801,2.982,2.9683,3.0017,3.0004,2.985,3.0104,2.9477,2.8458,2.8473,2.7971,2.6971,2.7469,2.777,2.7959,2.8414,2.8716,2.8858,2.8943,2.9006,2.8958,2.8566,2.8002,2.7334,2.6675,2.6686,2.6708,2.6383,2.5915,2.5945,2.5765,2.5302,2.4934,2.4871,2.4791,2.4574,2.4528,2.4426,2.4177,2.4073,2.3988,2.3803,2.3739,2.3717,2.3782,2.3903,2.3982,2.4003,2.4088,2.4051,2.3925,2.3882,2.3833,2.3769,2.3747,2.3726,2.3603,2.3501,2.3355,2.3224,2.3076,2.2957,2.283,2.2785,2.2694,2.2586,2.2495,2.2402,2.21,2.1793,2.1722,2.1674,2.164,2.1554,2.141,2.0883,2.0434,2.027,2.0001,1.9926,1.9939,1.9919,2.0034,2.0244,2.0258,2.0169,2.0182,2.008,2.0003,1.9978,1.9978,1.9914,1.9708,1.9539,1.9277,1.8843,1.8281,1.7858,1.7474,1.6869,1.6228,1.5672,1.51,1.4638,1.4094,1.3704,1.3312,1.2834,1.2405,1.1942,1.1545,1.117,1.0667,3.0507,3.0372,3.0372,3.0477,3.0612,3.0657,3.0568,3.0417,3.0896,3.026,2.9135,2.9254,2.8773,2.7646,2.7946,2.8124,2.8222,2.8559,2.8873,2.8959,2.9029,2.9091,2.9059,2.8949,2.8728,2.8211,2.7579,2.7367,2.7288,2.6762,2.6556,2.6208,2.5803,2.5469,2.527,2.5201,2.5123,2.489,2.4871,2.4715,2.4446,2.4287,2.4204,2.403,2.3903,2.3903,2.4009,2.4109,2.4223,2.4229,2.4297,2.4234,2.4151,2.4046,2.4019,2.4003,2.3961,2.394,2.3919,2.3919,2.3839,2.3674,2.3638,2.3523,2.3304,2.3246,2.3157,2.3046,2.2934,2.2814,2.2532,2.2287,2.2077,2.2006,2.1959,2.1926,2.1793,2.1334,2.1042,2.0782,2.0558,2.0441,2.0511,2.0582,2.069,2.0758,2.0759,2.0734,2.0759,2.0734,2.0635,2.056,2.0535,2.0434,2.0232,1.9991,1.9734,1.9404,1.885,1.8438,1.8114,1.7601,1.6997,1.637,1.5837,1.54,1.5021,1.4658,1.4204,1.3683,1.3268,1.2917,1.2497,1.2042,1.1514,3.0643,3.0718,3.0718,3.0673,3.0687,3.1014,3.1117,3.1205,3.1522,3.1026,2.9927,3.0544,2.9624,2.8515,2.8897,2.9069,2.8771,2.8904,2.899,2.9075,2.9121,2.9137,2.916,2.916,2.9073,2.8958,2.8472,2.83,2.85,2.8303,2.7381,2.701,2.6771,2.629,2.5389,2.522,2.5278,2.5182,2.5162,2.5009,2.4775,2.4639,2.4497,2.4302,2.4114,2.4114,2.4234,2.425,2.4286,2.4452,2.4477,2.4513,2.4534,2.4389,2.4258,2.4067,2.4046,2.4067,2.4046,2.3988,2.4003,2.394,2.3925,2.3919,2.3833,2.3782,2.3631,2.348,2.3304,2.315,2.3016,2.2836,2.2799,2.2686,2.254,2.244,2.2287,2.2086,2.1827,2.1575,2.124,2.0908,2.1029,2.1126,2.1151,2.1232,2.1251,2.1264,2.1275,2.124,2.1166,2.1118,2.1068,2.0921,2.0734,2.0471,2.0206,1.9989,1.9509,1.8921,1.8586,1.827,1.7748,1.7238,1.6746,1.6319,1.5979,1.5565,1.5128,1.4638,1.4282,1.3923,1.3403,1.2917,1.2466,3.1307,3.1263,3.1263,3.1292,3.1305,3.1179,3.1239,3.1346,3.124,3.0735,3.0205,3.019,2.9648,2.875,2.8859,2.91,2.9131,2.9106,2.919,2.9259,2.9298,2.9298,2.9314,2.9298,2.9344,2.9316,2.9138,2.9067,2.9162,2.8285,2.7774,2.7227,2.675,2.5958,2.5477,2.5375,2.5394,2.5375,2.5336,2.5259,2.5048,2.4954,2.4739,2.4634,2.4467,2.4467,2.4634,2.4614,2.465,2.4849,2.5172,2.5293,2.53,2.5352,2.5174,2.4481,2.4286,2.4229,2.4172,2.4151,2.4151,2.4103,2.4103,2.4082,2.404,2.3961,2.3976,2.3818,2.3588,2.3436,2.3355,2.3282,2.3172,2.3127,2.3031,2.2941,2.2859,2.2791,2.2586,2.2356,2.1969,2.1699,2.1547,2.1602,2.1623,2.1679,2.1732,2.1769,2.1769,2.1746,2.1698,2.1551,2.1476,2.1298,2.1035,2.0668,2.0618,2.0466,1.9967,1.9387,1.911,1.8807,1.8586,1.8256,1.7789,1.7357,1.6729,1.6293,1.5921,1.5604,1.5216,1.4796,1.4293,1.3786,1.3394,3.1925,3.1796,3.1796,3.1777,3.1708,3.132,3.1094,3.1061,3.0807,3.0348,2.9824,2.9807,2.9471,2.8814,2.8779,2.8998,2.9282,2.9282,2.935,2.945,2.9473,2.9496,2.9496,2.9534,2.9541,2.9621,2.9582,2.963,2.9272,2.8447,2.7737,2.7203,2.6174,2.5529,2.548,2.5505,2.5505,2.5486,2.5451,2.5394,2.5298,2.513,2.5017,2.5048,2.4866,2.4835,2.5017,2.5235,2.5302,2.5588,2.5994,2.6388,2.634,2.672,2.6309,2.5134,2.4782,2.4637,2.4457,2.4421,2.4421,2.4436,2.4374,2.4353,2.4416,2.4441,2.4265,2.407,2.3903,2.376,2.3732,2.3603,2.3516,2.3451,2.3429,2.3385,2.3326,2.326,2.3209,2.2949,2.2678,2.2457,2.2258,2.2063,2.2072,2.2136,2.2217,2.2296,2.2296,2.2273,2.2203,2.1983,2.182,2.1648,2.1319,2.079,2.0821,2.0941,2.0253,1.9537,1.9453,1.9367,1.9208,1.9093,1.8926,1.8432,1.7738,1.7067,1.6775,1.6454,1.6102,1.5671,1.5119,1.4825,1.454,3.2066,3.2135,3.2135,3.1759,3.1217,3.1251,3.0846,3.0255,3.0911,3.054,2.9572,3.0458,3.0037,2.8986,2.8842,2.9059,2.9259,2.935,2.9396,2.9541,2.9563,2.9541,2.9518,2.9496,2.972,2.9858,2.9792,2.963,2.9422,2.8898,2.8173,2.7474,2.6901,2.6254,2.5789,2.5772,2.5597,2.5594,2.5594,2.5578,2.5543,2.5397,2.5359,2.532,2.5208,2.5217,2.5445,2.5814,2.6158,2.6434,2.705,2.7461,2.7526,2.7398,2.6896,2.6202,2.5701,2.5306,2.4862,2.482,2.4813,2.4854,2.4909,2.5111,2.5119,2.5095,2.4872,2.4291,2.4219,2.4172,2.4109,2.4103,2.4003,2.3882,2.3797,2.3711,2.3631,2.3717,2.3668,2.3566,2.3312,2.3113,2.2897,2.27,2.2555,2.2632,2.2686,2.2777,2.2799,2.2746,2.2686,2.2483,2.2329,2.2178,2.1971,2.1377,2.1308,2.1461,2.0654,1.9938,2.0207,2.0301,1.9993,1.9871,1.9788,1.9553,1.8886,1.8271,1.7765,1.7407,1.7146,1.6567,1.5892,1.5719,1.5603,3.2274,3.2284,3.1915,3.1566,3.1221,3.096,3.0611,3.0348,3.0611,3.0304,2.9637,3.0052,2.9794,2.9014,2.9059,2.9266,2.9464,2.9509,2.9576,2.9681,2.972,2.9704,2.977,2.9836,3.0033,3.006,3.0162,3.0189,2.9831,2.9221,2.85,2.8167,2.7563,2.715,2.6464,2.6364,2.6321,2.6194,2.5989,2.5784,2.5768,2.5715,2.5677,2.5677,2.5551,2.5745,2.6192,2.6487,2.6981,2.7421,2.8159,2.8278,2.8217,2.8341,2.8382,2.7198,2.7368,2.6638,2.5246,2.5417,2.5453,2.5346,2.5465,2.566,2.5598,2.5623,2.5436,2.4717,2.4549,2.4457,2.4426,2.4374,2.4291,2.4193,2.4109,2.4114,2.4051,2.4114,2.4114,2.4036,2.3915,2.3724,2.3508,2.3268,2.3083,2.3038,2.3068,2.3113,2.3127,2.3083,2.3061,2.3024,2.2877,2.2761,2.2549,2.22,2.212,2.2067,2.1248,2.0819,2.1296,2.1324,2.1009,2.088,2.0919,2.0559,1.9978,1.9333,1.8673,1.8417,1.8186,1.7527,1.6889,1.6658,1.6423,3.229,3.209,3.1624,3.1197,3.0859,3.0366,3.0033,2.9894,3.0115,2.9822,2.9388,2.9397,2.9367,2.9186,2.9259,2.9457,2.9681,2.9681,2.977,2.9874,2.9896,2.9896,2.9924,3.0076,3.021,3.0258,3.038,3.0464,3.0278,2.9765,2.9207,2.8842,2.7968,2.7587,2.7404,2.7042,2.6722,2.6452,2.6094,2.5915,2.5917,2.5952,2.597,2.5936,2.5965,2.6245,2.6998,2.7377,2.7775,2.8435,2.9217,2.9317,2.8993,2.9347,2.9235,2.8391,2.8394,2.7805,2.668,2.6354,2.6346,2.633,2.6354,2.6724,2.5914,2.611,2.626,2.5656,2.5188,2.5009,2.4797,2.4694,2.4462,2.4421,2.438,2.4441,2.4482,2.4421,2.4385,2.4343,2.4266,2.4287,2.4078,2.3846,2.3653,2.3501,2.348,2.348,2.348,2.3516,2.3501,2.3486,2.3167,2.3027,2.2863,2.2768,2.2822,2.2685,2.1854,2.1706,2.2168,2.2204,2.1937,2.1908,2.1941,2.1633,2.1099,2.032,1.9579,1.9214,1.885,1.8403,1.7941,1.7603,1.6955,3.2013,3.1443,3.1409,3.0674,2.9587,2.9479,2.915,2.8836,2.9413,2.9394,2.8971,2.9014,2.9155,2.9199,2.9405,2.9563,2.9681,2.9681,2.9786,2.9874,2.9896,2.9896,2.9968,3.0119,3.0316,3.0443,3.0609,3.0733,3.0753,3.0514,2.9819,2.9103,2.8617,2.7771,2.7492,2.7558,2.6906,2.6546,2.6148,2.6045,2.6081,2.6115,2.6185,2.6185,2.6217,2.6516,2.7249,2.7883,2.8531,2.9168,2.9978,3.0227,2.9885,3.0107,2.9748,2.9202,2.9169,2.8731,2.815,2.774,2.776,2.7988,2.8074,2.7879,2.6841,2.7653,2.7684,2.6872,2.6163,2.5742,2.544,2.5098,2.4692,2.4528,2.4508,2.4544,2.4584,2.4584,2.4584,2.4605,2.4589,2.4589,2.4549,2.4323,2.412,2.3952,2.3909,2.3909,2.3988,2.4024,2.4003,2.3861,2.3415,2.3167,2.301,2.3015,2.3077,2.3128,2.2703,2.2725,2.3032,2.2922,2.2753,2.2669,2.2603,2.2429,2.2175,2.1342,2.062,1.9991,1.9481,1.9006,1.8212,1.7517,1.6789,3.1997,3.1378,3.0966,3.0274,2.9387,2.9487,2.915,2.8804,2.9785,3.0042,2.9469,2.9249,2.9252,2.9434,2.9547,2.9697,2.9808,2.983,2.9874,2.9896,2.9896,2.9896,3.0006,3.0189,3.0426,3.0572,3.0797,3.1018,3.1117,3.0975,3.0831,3.0252,2.9665,2.9615,2.9284,2.8312,2.7469,2.6667,2.6399,2.6347,2.6311,2.6363,2.638,2.638,2.638,2.6728,2.7359,2.8183,2.8862,2.9576,3.0369,3.0453,3.0329,3.0443,3.0223,2.9726,2.9871,2.9908,2.9639,2.9187,2.886,2.8876,2.8984,2.8763,2.7859,2.8466,2.8375,2.7717,2.6993,2.6526,2.5975,2.5388,2.4871,2.469,2.463,2.4686,2.4706,2.4726,2.4746,2.4766,2.4826,2.4831,2.4806,2.4746,2.4584,2.4405,2.4385,2.4364,2.438,2.44,2.4338,2.4317,2.3892,2.38,2.3672,2.3534,2.3397,2.3437,2.3491,2.3583,2.3687,2.3702,2.3528,2.3421,2.3246,2.3031,2.2717,2.2258,2.156,2.07,2.005,1.9558,1.8615,1.7531,1.6775,3.1997,3.1378,3.0863,3.0171,2.9443,2.933,2.9047,2.8854,2.9755,3.02,2.988,2.9435,2.9389,2.9637,2.9748,2.9792,2.9874,2.9896,2.9896,2.9918,2.994,2.9962,3.0119,3.0338,3.0589,3.0716,3.1021,3.1295,3.1276,3.1291,3.1237,3.1162,3.1081,3.0799,3.0154,2.9306,2.7993,2.7012,2.664,2.664,2.6589,2.6606,2.6572,2.6572,2.6538,2.6871,2.7487,2.8241,2.8977,2.9677,3.0299,3.0576,3.0506,3.0473,3.054,3.0506,3.0557,3.0895,3.0684,3.0369,2.9749,2.9497,2.9799,2.948,2.9145,2.9281,2.9428,2.894,2.8065,2.7266,2.6772,2.615,2.5385,2.5148,2.4962,2.4946,2.4866,2.4866,2.4906,2.4942,2.4966,2.4985,2.5009,2.4966,2.4826,2.463,2.4508,2.4487,2.4508,2.4528,2.4528,2.4508,2.4435,2.443,2.4477,2.4214,2.3983,2.3999,2.404,2.4081,2.4156,2.4193,2.413,2.3925,2.3739,2.3603,2.3312,2.295,2.2132,2.1194,2.0411,1.951,1.864,1.7546,1.6974,3.2013,3.1439,3.1378,3.0612,2.9483,2.8865,2.8659,2.8684,2.9093,2.9396,2.9555,2.945,2.9563,2.972,2.9814,2.9874,2.9896,2.9918,2.9918,2.9902,3.0033,3.0098,3.0253,3.0485,3.0749,3.0915,3.1157,3.1351,3.1332,3.1445,3.1502,3.1559,3.1432,3.1103,3.0209,2.8884,2.7827,2.7112,2.691,2.691,2.6791,2.6808,2.6792,2.6758,2.6758,2.7029,2.7465,2.8373,2.908,2.9592,3.0521,3.0841,3.0834,3.0834,3.0848,3.0848,3.0865,3.0932,3.0878,3.0841,3.0486,3.0045,3.0326,3.0296,3.0048,3.0262,3.0533,2.9901,2.9402,2.8631,2.7931,2.7071,2.6218,2.5564,2.5342,2.5201,2.5123,2.4985,2.5005,2.5064,2.5045,2.5025,2.5107,2.5127,2.5025,2.4851,2.467,2.4614,2.4695,2.4775,2.4855,2.4855,2.4875,2.4871,2.4851,2.471,2.4567,2.4589,2.4609,2.467,2.463,2.4609,2.4528,2.438,2.4261,2.4105,2.3915,2.3687,2.2606,2.1456,2.0111,1.9117,1.8323,1.7718,1.722,3.2275,3.2056,3.1705,3.1021,3.0155,2.9623,2.9176,2.8873,2.9098,2.9344,2.9496,2.9586,2.972,2.983,2.9874,2.9918,2.9918,2.9968,2.9968,2.9946,3.0124,3.0189,3.0359,3.0609,3.0871,3.0992,3.1213,3.1426,3.1426,3.1559,3.1688,3.1744,3.1675,3.1314,3.0747,2.9903,2.9368,2.8247,2.7888,2.7701,2.7171,2.7069,2.7053,2.7021,2.7021,2.7127,2.7369,2.8371,2.9149,2.9531,3.0465,3.11,3.1112,3.1112,3.1092,3.1092,3.1112,3.1112,3.1092,3.1058,3.0928,3.0754,3.0677,3.0798,3.0607,3.0707,3.0797,3.0657,3.0129,2.9258,2.8309,2.7542,2.6719,2.5926,2.5621,2.5508,2.5397,2.5166,2.5088,2.5162,2.5162,2.5201,2.5262,2.5438,2.5378,2.5339,2.5188,2.5111,2.5166,2.5266,2.5343,2.5304,2.5301,2.5262,2.5224,2.5107,2.5091,2.5095,2.5169,2.5262,2.5204,2.5068,2.4974,2.4855,2.4755,2.4619,2.4323,2.3885,2.2842,2.1665,2.0639,1.9533,1.8727,1.8194,1.7697,3.2425,3.2449,3.2087,3.1606,3.0995,3.0223,2.9571,2.92,2.9243,2.9418,2.9608,2.9681,2.977,2.9896,2.9984,2.9989,3.0011,3.0141,3.0167,3.0141,3.0359,3.0464,3.0589,3.0794,3.1012,3.1131,3.1346,3.1538,3.1521,3.169,3.1783,3.1819,3.1838,3.1668,3.1254,3.0855,2.9954,2.8861,2.836,2.8081,2.7565,2.734,2.7322,2.7308,2.7293,2.728,2.7579,2.8304,2.9298,2.9689,3.0437,3.1353,3.1385,3.1346,3.1327,3.1327,3.1308,3.1308,3.1308,3.1308,3.1196,3.1137,3.1052,3.1012,3.1012,3.0995,3.1012,3.0841,3.0448,2.98,2.8984,2.8229,2.7632,2.6834,2.628,2.6185,2.5726,2.5502,2.5381,2.5435,2.5451,2.547,2.5508,2.5661,2.5775,2.5772,2.5754,2.5698,2.5624,2.5661,2.5735,2.568,2.5642,2.5605,2.5602,2.5565,2.5586,2.5629,2.5663,2.5698,2.557,2.54,2.5381,2.5307,2.5134,2.4922,2.4621,2.4028,2.335,2.2607,2.1798,2.0629,1.9346,1.8832,1.8505,3.248,3.259,3.2574,3.2282,3.172,3.0396,2.9738,2.9489,2.9366,2.9547,2.988,2.977,2.9836,2.9946,3.0119,3.0227,3.0231,3.0401,3.0443,3.0526,3.0651,3.0753,3.0912,3.1109,3.121,3.1349,3.1485,3.1578,3.1617,3.1727,3.1819,3.1875,3.1875,3.188,3.1707,3.129,3.0281,2.9374,2.892,2.8448,2.7768,2.7554,2.7524,2.7509,2.7478,2.7504,2.7911,2.8712,2.9403,3.0075,3.0919,3.1504,3.1726,3.1631,3.1578,3.1559,3.1538,3.1498,3.1479,3.1462,3.146,3.1366,3.1269,3.123,3.121,3.119,3.121,3.1171,3.0912,3.0451,2.9854,2.9389,2.8889,2.811,2.7302,2.6844,2.6235,2.5979,2.5879,2.5844,2.5844,2.5862,2.5917,2.6028,2.6154,2.6189,2.6171,2.6207,2.6118,2.597,2.6008,2.599,2.5954,2.5917,2.5917,2.5954,2.601,2.6031,2.5992,2.599,2.5864,2.5775,2.5756,2.5663,2.5476,2.5234,2.495,2.4622,2.42,2.3456,2.2645,2.1739,2.0465,2.0038,1.9792,3.2327,3.2175,3.208,3.1575,3.0701,2.9769,2.945,2.9554,2.9486,2.9637,2.9968,3.0033,3.0038,3.0141,3.0338,3.0401,3.0485,3.0568,3.0609,3.0749,3.0932,3.1052,3.1188,3.1305,3.1404,3.1464,3.154,3.1598,3.1617,3.1727,3.18,3.1819,3.1893,3.2002,3.2003,3.1882,3.0852,3.0028,2.9642,2.8835,2.8045,2.7694,2.7662,2.7627,2.763,2.7759,2.8446,2.9151,2.9848,3.0612,3.1303,3.1784,3.1781,3.1744,3.1744,3.169,3.1614,3.1517,3.1557,3.1519,3.1519,3.1557,3.1462,3.1423,3.1404,3.1404,3.1404,3.1327,3.1274,3.0845,3.0487,3.007,2.9608,2.8964,2.8216,2.7602,2.7008,2.6539,2.6421,2.6189,2.6188,2.6206,2.6277,2.6365,2.6469,2.6555,2.6606,2.6623,2.6589,2.6416,2.6329,2.6311,2.6277,2.6277,2.6312,2.6329,2.64,2.6435,2.6348,2.6294,2.6277,2.6207,2.6154,2.6028,2.583,2.557,2.5304,2.5019,2.4772,2.4096,2.3313,2.2496,2.1759,2.1317,2.1026,3.242,3.2525,3.219,3.1653,3.1028,3.0363,3.0249,3.0383,2.9804,2.9704,3.0076,3.0162,3.0231,3.0359,3.0547,3.0671,3.0654,3.0878,3.0958,3.1018,3.119,3.1286,3.1383,3.1462,3.1519,3.1559,3.1615,3.169,3.169,3.1746,3.1801,3.1856,3.193,3.2037,3.2109,3.2092,3.1618,3.0793,3.009,2.9334,2.8596,2.7894,2.7719,2.7786,2.7786,2.8193,2.8912,2.9575,3.0275,3.1025,3.1673,3.2073,3.2108,3.2108,3.2001,3.1983,3.1929,3.1874,3.1857,3.1837,3.18,3.1763,3.1763,3.18,3.1688,3.1632,3.1538,3.1443,3.1393,3.1274,3.0982,3.0638,3.0178,2.9701,2.9064,2.8447,2.7836,2.7227,2.6907,2.6588,2.6538,2.6538,2.6589,2.6691,2.6759,2.6792,2.6809,2.6859,2.6842,2.6759,2.6691,2.6674,2.664,2.664,2.6657,2.664,2.6657,2.6657,2.659,2.6572,2.6623,2.6537,2.6382,2.6277,2.6171,2.5919,2.568,2.5551,2.529,2.4646,2.4226,2.3783,2.3132,2.2511,2.2298,3.2669,3.3262,3.259,3.2208,3.2203,3.1621,3.1542,3.1731,3.0351,2.9911,3.0298,3.0264,3.0342,3.0568,3.0794,3.1029,3.109,3.1235,3.1351,3.1346,3.1423,3.1498,3.1538,3.1578,3.1615,3.1653,3.1709,3.1746,3.1781,3.1783,3.1838,3.1912,3.2037,3.2108,3.2196,3.2301,3.195,3.1406,3.065,2.9878,2.907,2.8351,2.7824,2.7964,2.8052,2.8263,2.9088,2.9823,3.0523,3.1346,3.1995,3.2471,3.2489,3.2456,3.2336,3.2284,3.2197,3.2179,3.2144,3.2126,3.2144,3.2144,3.2197,3.2144,3.2001,3.1838,3.1727,3.1688,3.1656,3.1603,3.1378,3.1291,3.0946,3.0497,2.9942,2.9393,2.8846,2.8115,2.7351,2.7046,2.6775,2.6792,2.6894,2.6994,2.7385,2.7213,2.7434,2.7502,2.7365,2.7332,2.7179,2.7146,2.6926,2.6876,2.6842,2.6842,2.6859,2.6842,2.6792,2.6725,2.6708,2.664,2.6589,2.6468,2.6347,2.6259,2.6082,2.5956,2.5791,2.54,2.5099,2.5073,2.454,2.3739,2.3397,3.2488,3.236,3.1813,3.1744,3.1967,3.1352,3.148,3.1889,3.1222,3.1024,3.1127,3.0761,3.0568,3.081,3.1012,3.1314,3.1712,3.1458,3.1742,3.1786,3.1796,3.1649,3.1688,3.1726,3.1727,3.1746,3.1781,3.18,3.18,3.1801,3.182,3.1912,3.2055,3.2144,3.2197,3.2319,3.2212,3.1896,3.1228,3.0561,2.9946,2.9281,2.8807,2.9018,2.9176,2.9367,2.9962,3.0309,3.1135,3.1996,3.2345,3.2555,3.2571,3.254,3.2506,3.2489,3.2403,3.2386,3.2387,3.237,3.2336,3.2301,3.2301,3.2284,3.2214,3.209,3.2001,3.1965,3.1929,3.1893,3.1858,3.1822,3.1717,3.1281,3.0843,3.0344,2.9811,2.8887,2.7912,2.7485,2.7143,2.7126,2.7212,2.745,2.7842,2.8286,2.8767,2.887,2.8526,2.8337,2.791,2.774,2.7195,2.7077,2.7161,2.7178,2.7247,2.7077,2.696,2.6893,2.6809,2.6742,2.6657,2.6589,2.6486,2.6416,2.6381,2.6364,2.6152,2.5883,2.5717,2.5589,2.5362,2.4661,2.4416,3.227,3.2635,3.2492,3.2606,3.278,3.2283,3.2427,3.293,3.2492,3.2226,3.2109,3.152,3.1145,3.1079,3.1168,3.1399,3.1828,3.1553,3.1632,3.1848,3.1977,3.1812,3.1781,3.1817,3.18,3.18,3.18,3.18,3.1801,3.182,3.1875,3.193,3.2055,3.2179,3.2232,3.2371,3.2457,3.2386,3.1682,3.1293,3.0888,3.0274,2.9695,2.9888,3.0025,3.0323,3.0727,3.1004,3.1601,3.2287,3.267,3.2737,3.2737,3.2722,3.2705,3.2705,3.2655,3.2607,3.259,3.2557,3.2506,3.2489,3.2506,3.2557,3.2557,3.2439,3.2301,3.2266,3.2249,3.2214,3.2214,3.2197,3.2179,3.19,3.1549,3.1129,3.0403,2.9558,2.8664,2.7994,2.7805,2.7806,2.7874,2.7908,2.8319,2.8835,2.942,2.9609,2.9367,2.9402,2.8954,2.861,2.8251,2.8098,2.8338,2.8099,2.7723,2.7502,2.7246,2.701,2.6893,2.6809,2.6742,2.6725,2.6657,2.6572,2.6555,2.6572,2.6502,2.624,2.6117,2.6045,2.5772,2.5513,2.5227,3.2357,3.3404,3.3565,3.387,3.4096,3.3646,3.3807,3.4307,3.3773,3.3346,3.31,3.2584,3.1958,3.1368,3.121,3.1339,3.1451,3.1547,3.1642,3.1855,3.1848,3.1971,3.199,3.1869,3.1817,3.18,3.18,3.18,3.18,3.1874,3.1948,3.1984,3.2108,3.2249,3.2319,3.2405,3.2506,3.2417,3.2115,3.2076,3.1688,3.125,3.0759,3.051,3.0539,3.0906,3.1384,3.1666,3.2033,3.2435,3.2838,3.2852,3.2868,3.2852,3.2852,3.2852,3.2852,3.2804,3.2805,3.2773,3.2755,3.2771,3.2805,3.2823,3.2789,3.274,3.2607,3.2557,3.254,3.2524,3.2524,3.2524,3.2506,3.2421,3.2092,3.1724,3.0942,3.0214,2.947,2.8694,2.8574,2.8591,2.8574,2.8608,2.8988,2.9489,2.9765,2.9799,2.9936,3.0213,3.0162,3.0023,2.9866,2.9747,2.954,2.9092,2.854,2.806,2.7787,2.733,2.6992,2.6958,2.6941,2.6924,2.6858,2.6842,2.6759,2.6725,2.664,2.6554,2.6433,2.6311,2.6187,2.5936,2.5807,3.3456,3.3694,3.316,3.3604,3.4525,3.4011,3.4133,3.4677,3.4299,3.3968,3.3896,3.3886,3.3098,3.1207,3.1254,3.1485,3.1864,3.1758,3.2092,3.2494,3.197,3.2178,3.2352,3.2162,3.1869,3.1834,3.187,3.1853,3.215,3.2157,3.2126,3.2249,3.2441,3.2526,3.2522,3.2608,3.2678,3.2536,3.25,3.2444,3.2268,3.1952,3.1846,3.1669,3.1581,3.188,3.2056,3.1803,3.2152,3.2538,3.287,3.29,3.2916,3.2932,3.2914,3.2948,3.2932,3.2916,3.29,3.2884,3.2884,3.2884,3.2902,3.2884,3.2884,3.2868,3.2804,3.2771,3.2756,3.2674,3.2674,3.2724,3.2707,3.254,3.2283,3.1846,3.1236,3.0871,3.0419,2.9847,2.9501,2.9501,2.952,2.9728,3.0162,3.0647,3.1081,3.1098,3.0802,3.1028,3.1272,3.1254,3.1218,3.066,3.012,2.993,2.9461,2.8893,2.8292,2.7798,2.7406,2.7168,2.7133,2.7133,2.7182,2.72,2.7104,2.6974,2.6859,2.6759,2.6623,2.652,2.6416,2.6329,2.617]}]]